Date StartTime U_cm/s V_cm/s W_cm/s Ustd_cm/s Vstd_cm/s Wstd_cm/s Uvar_(cm/s)^2 Vvar_(cm/s)^2 Wvar_(cm/s)^2 KE_(m/s)^2 TurbulentKE_(m/s)^2 HorizWindSpeed_cm/s FrictionSpeec_cm/s DragCoef SpeedOfSound_m/s SonicTemperature_C Pressure_mb 
07/24/2014  00:00:00       78.050      163.227      -17.567       60.099       74.301       43.814     3611.903     5520.607     1919.647        2.205        0.553      180.928       38.539        0.045      344.264       20.957      864.133
07/24/2014  00:01:00       43.796      240.713      -29.749       98.523      109.346       49.969     9706.741    11956.631     2496.909        4.245        1.208      244.664       47.101        0.037      344.466       21.300      864.083
07/24/2014  00:02:00       88.908       90.137        9.169       64.964       69.468       46.692     4220.380     4825.803     2180.105        1.367        0.561      126.607       35.874        0.080      344.351       21.106      864.081
07/24/2014  00:03:00       53.036       72.377       15.245       63.093       68.674       51.836     3980.695     4716.127     2687.010        0.983        0.569       89.728       31.568        0.124      344.210       20.867      864.105
07/24/2014  00:04:00      -14.468       48.055       -9.656       57.139       36.390       25.412     3264.868     1324.201      645.768        0.392        0.262       50.186       23.805        0.225      344.318       21.051      864.135
07/24/2014  00:05:00     -108.182      -12.420      -15.158       38.489       51.622       28.841     1481.432     2664.839      831.796        0.853        0.249      108.893       22.502        0.043      344.186       20.827      864.153
07/24/2014  00:06:00      -64.549       11.071        4.521       58.371       45.480       23.210     3407.146     2068.447      538.689        0.516        0.301       65.492       28.377        0.188      344.167       20.794      864.140
07/24/2014  00:07:00     -101.073       83.371      -18.894       40.080       38.477       23.070     1606.384     1480.507      532.234        1.057        0.181      131.021       17.954        0.019      344.516       21.390      864.139
07/24/2014  00:08:00     -172.738       96.131      -28.340       52.113       76.858       36.994     2715.733     5907.083     1368.590        2.494        0.500      197.686       43.444        0.048      344.671       21.651      864.145
07/24/2014  00:09:00     -129.174      100.515      -30.297       57.103       80.521       36.742     3260.804     6483.634     1349.975        1.940        0.555      163.674       43.356        0.070      344.833       21.930      864.136
07/24/2014  00:10:00      -69.665      109.035       -1.367       46.064       73.462       37.340     2121.929     5396.724     1394.309        1.283        0.446      129.390       32.339        0.062      344.700       21.703      864.135
07/24/2014  00:11:00     -203.830      -88.307       -2.030      103.254       70.132       36.644    10661.326     4918.450     1342.812        3.313        0.846      222.136       25.841        0.014      344.477       21.321      864.135
07/24/2014  00:12:00     -182.230      -24.317       -8.332       73.537       46.050       29.682     5407.687     2120.616      881.007        2.114        0.420      183.845       32.098        0.030      344.456       21.284      864.151
07/24/2014  00:13:00     -111.155       42.521      -18.036       63.263       48.084       23.362     4002.189     2312.032      545.795        1.067        0.343      119.010       18.425        0.024      344.526       21.406      864.150
07/24/2014  00:14:00      -42.394       71.141       -7.632       31.899       46.848       23.776     1017.517     2194.737      565.276        0.535        0.189       82.814       25.056        0.092      344.529       21.414      864.134
07/24/2014  00:15:00      -48.451      137.257       -5.656       98.433       63.341       48.851     9689.117     4012.127     2386.397        1.865        0.804      145.558       50.557        0.121      344.480       21.325      864.127
07/24/2014  00:16:00     -158.082       63.746      -23.445       56.009       81.116       35.636     3136.986     6579.776     1269.902        2.029        0.549      170.451       23.410        0.019      344.435       21.250      864.152
07/24/2014  00:17:00      -68.072      -32.615       13.152       75.328       65.069       26.412     5674.252     4234.017      697.587        0.824        0.530       75.482       27.941        0.137      344.268       20.966      864.168
07/24/2014  00:18:00      -71.104        1.623      -22.981       57.752       38.387       23.322     3335.294     1473.529      543.921        0.547        0.268       71.123       25.656        0.130      344.332       21.075      864.186
07/24/2014  00:19:00     -104.021      -50.029       -7.491       43.920       41.544       28.631     1928.983     1725.907      819.732        0.893        0.224      115.427       14.483        0.016      344.275       20.978      864.184
07/24/2014  00:20:00      -10.142      -22.891        1.417       31.948       39.931       17.406     1020.683     1594.445      302.974        0.177        0.146       25.037       20.930        0.699      344.333       21.077      864.167
07/24/2014  00:21:00       14.438      -88.781       -4.837       30.804       47.283       35.175      948.865     2235.690     1237.297        0.627        0.221       89.947       24.451        0.074      344.290       21.004      864.130
07/24/2014  00:22:00      -45.695        4.805        0.581       25.161       35.032       24.302      633.055     1227.262      590.572        0.228        0.123       45.947       11.234        0.060      344.341       21.092      864.155
07/24/2014  00:23:00      -11.477      -40.335       -6.579       14.531       30.416       11.220      211.139      925.144      125.897        0.153        0.063       41.936        8.616        0.042      344.371       21.142      864.184
07/24/2014  00:24:00       14.890      -69.285        3.827       18.010       18.059       19.009      324.374      326.113      361.354        0.302        0.051       70.867       13.794        0.038      344.473       21.316      864.191
07/24/2014  00:25:00       -6.597     -101.151       -2.062       35.487       29.014       19.374     1259.312      841.802      375.343        0.638        0.124      101.365       15.014        0.022      344.352       21.108      864.198
07/24/2014  00:26:00      -30.237      -72.926        2.281       22.555       23.962       11.996      508.720      574.165      143.904        0.373        0.061       78.946        4.891        0.004      344.275       20.979      864.204
07/24/2014  00:27:00      -48.028      -84.223      -12.643       48.457       48.224       28.937     2348.129     2325.527      837.352        0.753        0.276       96.954       25.526        0.069      344.191       20.834      864.223
07/24/2014  00:28:00      -93.068     -137.553       14.904      101.288       73.935       36.212    10259.213     5466.333     1311.328        2.242        0.852      166.079       36.221        0.048      344.093       20.665      864.233
07/24/2014  00:29:00     -141.937      -84.029       -5.830       84.035       49.148       36.358     7061.837     2415.535     1321.882        1.902        0.540      164.946       37.855        0.053      344.002       20.509      864.245
07/24/2014  00:30:00     -140.661      -89.893       11.477       69.404       53.484       34.836     4816.953     2860.544     1213.537        1.844        0.445      166.932       34.686        0.043      343.943       20.408      864.254
07/24/2014  00:31:00      -23.943     -112.247       13.568       42.997       37.934       21.413     1848.710     1439.008      458.518        0.855        0.187      114.772       14.791        0.017      344.122       20.717      864.248
07/24/2014  00:32:00       78.675       77.280       42.646       34.003       40.202       37.390     1156.204     1616.217     1397.985        0.907        0.209      110.281       13.408        0.015      344.149       20.763      864.218
07/24/2014  00:33:00       89.355       89.244       66.769       46.671       39.179       36.420     2178.185     1534.964     1326.412        1.272        0.252      126.288       16.135        0.016      344.293       21.009      864.195
07/24/2014  00:34:00      187.033      131.035       69.173       75.786       58.631       57.296     5743.564     3437.542     3282.779        3.470        0.623      228.367       47.988        0.044      344.451       21.274      864.160
07/24/2014  00:35:00       43.348       86.068       68.695       97.887       58.034       54.392     9581.877     3367.907     2958.513        1.495        0.795       96.368       43.306        0.202      344.653       21.624      864.132
07/24/2014  00:36:00      -42.194       31.105       29.572       27.381       41.880       43.421      749.710     1753.955     1885.413        0.400        0.219       52.420       29.149        0.309      344.367       21.135      864.177
07/24/2014  00:37:00      -90.139      -21.733       -6.932       35.272       32.871       19.130     1244.093     1080.523      365.951        0.567        0.135       92.722       12.575        0.018      344.113       20.702      864.202
07/24/2014  00:38:00     -143.827      -72.063        8.453       63.918       51.951       29.508     4085.510     2698.857      870.703        1.680        0.383      160.870       25.579        0.025      344.113       20.700      864.210
07/24/2014  00:39:00      -48.002      -44.421       12.467       98.626       48.714       34.470     9727.087     2373.069     1188.166        0.886        0.664       65.402       46.625        0.508      344.008       20.522      864.216
07/24/2014  00:40:00      181.530      -47.257       16.588       79.251      110.745       59.759     6280.643    12264.538     3571.105        2.878        1.106      187.581       61.869        0.109      344.602       21.534      864.179
07/24/2014  00:41:00       39.357       22.586       72.180       72.350       84.286       47.872     5234.501     7104.117     2291.762        1.095        0.732       45.378       50.126        1.220      344.459       21.293      864.088
07/24/2014  00:42:00       16.674      -53.337       16.956       44.877       65.570       31.424     2013.955     4299.487      987.449        0.535        0.365       55.883       34.119        0.373      344.451       21.278      864.120
07/24/2014  00:43:00      -40.125        5.903        3.465       68.634       62.535       27.468     4710.666     3910.643      754.512        0.551        0.469       40.557       36.602        0.814      344.354       21.113      864.148
07/24/2014  00:44:00      -95.257      -32.238       -7.615       32.456       35.206       19.268     1053.415     1239.479      371.259        0.642        0.133      100.565       19.223        0.037      344.053       20.597      864.178
07/24/2014  00:45:00      -68.012      -28.230       -8.090       31.766       33.627       19.948     1009.057     1130.762      397.942        0.401        0.127       73.638       21.585        0.086      344.114       20.704      864.187
07/24/2014  00:46:00      -66.075       53.231       -8.844       31.201       26.620       20.476      973.495      708.634      419.247        0.469        0.105       84.850       16.568        0.038      344.037       20.571      864.184
07/24/2014  00:47:00      -11.676        4.859       -1.045       22.475       18.403       15.122      505.106      338.664      228.661        0.062        0.054       12.646       16.613        1.726      344.016       20.538      864.184
07/24/2014  00:48:00      -49.360      -24.259       -4.830       31.692       22.197       11.189     1004.357      492.707      125.203        0.233        0.081       54.999       13.178        0.057      344.043       20.581      864.201
07/24/2014  00:49:00      -95.030      -52.064        2.976       66.087       39.472       19.533     4367.437     1558.002      381.555        0.903        0.315      108.358       17.831        0.027      344.070       20.628      864.216
07/24/2014  00:50:00      -49.078       -6.232       12.179       39.493       47.280       28.179     1559.700     2235.415      794.045        0.359        0.229       49.472       29.517        0.356      344.019       20.539      864.219
07/24/2014  00:51:00      -72.086      -55.820        6.435       40.497       31.346       20.011     1640.007      982.562      400.439        0.569        0.151       91.172       19.635        0.046      344.021       20.544      864.212
07/24/2014  00:52:00      -11.759       -4.754        9.663       31.470       24.329       16.921      990.357      591.881      286.320        0.106        0.093       12.683       14.742        1.351      343.754       20.089      864.208
07/24/2014  00:53:00      -43.446        3.737        2.330       38.574       28.719       21.730     1487.963      824.753      472.174        0.235        0.139       43.607       23.848        0.299      343.612       19.843      864.200
07/24/2014  00:54:00      -76.639      -30.647       -0.984       38.294       42.382       21.713     1466.440     1796.261      471.444        0.527        0.187       82.540       19.802        0.058      343.601       19.827      864.212
07/24/2014  00:55:00      -53.044      -53.828       -6.453       29.083       28.867       15.627      845.802      833.330      244.193        0.384        0.096       75.572        9.509        0.016      343.735       20.054      864.210
07/24/2014  00:56:00      -42.179      -10.239        2.078       32.555       20.981       12.963     1059.818      440.188      168.050        0.178        0.083       43.404       10.306        0.056      343.629       19.874      864.211
07/24/2014  00:57:00      -22.200       17.300        9.228       46.799       20.326       19.682     2190.135      413.133      387.380        0.193        0.150       28.145       22.917        0.663      343.553       19.744      864.217
07/24/2014  00:58:00      -64.936       38.590      -13.041       22.609       29.001       15.679      511.145      841.044      245.843        0.374        0.080       75.537       10.856        0.021      343.624       19.866      864.214
07/24/2014  00:59:00      -67.936      -37.785       -3.281       44.152       31.207       21.074     1949.358      973.900      444.112        0.471        0.168       77.737       17.746        0.052      343.607       19.838      864.225
07/24/2014  01:00:00      -30.031      -48.019       16.452       53.197       34.543       31.080     2829.961     1193.206      965.993        0.423        0.249       56.637       30.101        0.282      343.509       19.670      864.247
07/24/2014  01:01:00      -34.987     -120.825        7.340       24.551       34.783       18.447      602.776     1209.845      340.290        0.901        0.108      125.788       16.168        0.017      343.739       20.062      864.237
07/24/2014  01:02:00       12.561        5.455       41.203       32.955       65.245       31.653     1086.034     4256.886     1001.885        0.411        0.317       13.694       38.984        8.104      343.747       20.077      864.174
07/24/2014  01:03:00      -16.882       36.264       45.121       22.171       35.576       35.071      491.545     1265.679     1229.977        0.331        0.149       40.001       31.331        0.613      343.651       19.913      864.155
07/24/2014  01:04:00      -48.407       62.225      -14.456       28.896       23.556       17.390      835.006      554.899      302.412        0.406        0.085       78.837       13.871        0.031      343.520       19.689      864.179
07/24/2014  01:05:00      -34.689       33.304       -6.877       20.332       21.060       12.044      413.405      443.506      145.069        0.168        0.050       48.088        7.653        0.025      343.513       19.678      864.185
07/24/2014  01:06:00      -37.175      -32.850       -1.496       40.057       33.189       24.509     1604.593     1101.505      600.700        0.288        0.165       49.609       24.840        0.251      343.543       19.730      864.205
07/24/2014  01:07:00      -65.734      -60.319        1.529       50.396       36.426       28.346     2539.769     1326.855      803.483        0.631        0.234       89.215       27.613        0.096      343.424       19.526      864.206
07/24/2014  01:08:00        3.743      -33.426        5.764       36.719       37.543       30.373     1348.293     1409.469      922.531        0.242        0.184       33.635       23.678        0.496      343.530       19.705      864.184
07/24/2014  01:09:00      -15.679       53.555       85.814       13.007       42.008       23.147      169.186     1764.640      535.792        0.647        0.123       55.803       25.610        0.211      343.728       20.044      864.138
07/24/2014  01:10:00      -27.014       68.114        6.361       35.450       46.844       34.198     1256.688     2194.334     1169.495        0.501        0.231       73.275       35.993        0.241      343.588       19.805      864.146
07/24/2014  01:11:00       -8.723      108.153      -11.651       41.047       24.037       16.133     1684.859      577.759      260.264        0.722        0.126      108.504       11.974        0.012      343.421       19.520      864.152
07/24/2014  01:12:00       43.156      110.432      -15.220       22.198       35.949       25.596      492.756     1292.357      655.134        0.836        0.122      118.565       22.510        0.036      343.650       19.912      864.146
07/24/2014  01:13:00       39.648      126.241      -26.053       25.683       22.795       19.338      659.633      519.598      373.975        0.987        0.078      132.320       10.723        0.007      343.904       20.344      864.134
07/24/2014  01:14:00       14.463       96.931      -21.569       18.091       23.120       13.113      327.280      534.529      171.959        0.555        0.052       98.004       14.065        0.021      343.936       20.399      864.136
07/24/2014  01:15:00       20.509       17.525       -5.840       10.894       17.682        9.591      118.684      312.670       91.992        0.064        0.026       26.976        8.280        0.094      343.957       20.435      864.146
07/24/2014  01:16:00       15.307       19.128        2.683       15.384       14.327       11.243      236.673      205.263      126.403        0.059        0.028       24.498        8.291        0.115      343.765       20.107      864.168
07/24/2014  01:17:00       -8.431      -37.299      -12.683       10.498       23.728       10.548      110.213      563.001      111.263        0.120        0.039       38.240       13.134        0.118      343.745       20.075      864.181
07/24/2014  01:18:00      -12.124      -46.757       -1.288       16.443       23.741       20.872      270.374      563.650      435.621        0.180        0.063       48.303       16.895        0.122      343.586       19.802      864.184
07/24/2014  01:19:00      -32.631      -68.899        3.847       33.432       44.417       17.765     1117.701     1972.901      315.608        0.462        0.170       76.235       16.860        0.049      343.507       19.666      864.178
07/24/2014  01:20:00      -29.824      -54.803       -7.357       31.288       38.006       25.186      978.931     1444.424      634.330        0.350        0.153       62.392       20.748        0.111      343.504       19.662      864.173
07/24/2014  01:21:00      -38.712     -117.844        2.168       37.141       41.432       22.711     1379.448     1716.573      515.788        0.950        0.181      124.039       20.619        0.028      343.576       19.785      864.172
07/24/2014  01:22:00      -60.373     -144.834       -4.792       35.285       36.063       27.825     1245.003     1300.562      774.246        1.398        0.166      156.914       20.815        0.018      343.562       19.761      864.159
07/24/2014  01:23:00      -63.274     -180.272      -14.145       46.190       50.314       29.016     2133.546     2531.541      841.953        2.110        0.275      191.054       17.124        0.008      343.533       19.710      864.158
07/24/2014  01:24:00      -75.563     -152.627        1.893       61.040       57.526       36.464     3725.822     3309.245     1329.614        1.868        0.418      170.308       34.899        0.042      343.513       19.674      864.157
07/24/2014  01:25:00      -32.122     -114.036        9.157       40.678       52.785       29.268     1654.729     2786.275      856.601        0.971        0.265      118.474       18.458        0.024      343.572       19.778      864.154
07/24/2014  01:26:00        7.774      -59.201        5.385       49.551       55.921       33.877     2455.253     3127.132     1147.625        0.516        0.337       59.710       27.414        0.211      343.444       19.562      864.128
07/24/2014  01:27:00       17.537       85.505       99.462       53.377       57.877       39.957     2849.077     3349.761     1596.589        1.265        0.390       87.285       34.472        0.156      343.457       19.582      864.086
07/24/2014  01:28:00       37.219       51.411       56.883       44.398       44.885       46.382     1971.138     2014.656     2151.291        0.670        0.307       63.469       34.591        0.297      343.394       19.475      864.068
07/24/2014  01:29:00       23.115       19.057       21.645       71.707       23.119       23.998     5141.834      534.489      575.884        0.381        0.313       29.958       24.437        0.665      343.308       19.327      864.111
07/24/2014  01:30:00     -137.636      -23.639       -6.239       40.618       39.127       16.669     1649.802     1530.938      277.856        1.150        0.173      139.651       15.282        0.012      343.315       19.340      864.139
07/24/2014  01:31:00      -60.222      -62.709       -0.458       78.110       28.166       25.674     6101.159      793.332      659.179        0.755        0.378       86.943       29.898        0.118      343.378       19.446      864.150
07/24/2014  01:32:00      -36.398      -29.511        8.359       39.542       22.591       22.179     1563.606      510.334      491.899        0.242        0.128       46.859       16.096        0.118      343.461       19.589      864.139
07/24/2014  01:33:00      -56.539      -29.013      -15.949       37.844       33.553       13.147     1432.164     1125.782      172.843        0.351        0.137       63.549        8.954        0.020      343.575       19.782      864.122
07/24/2014  01:34:00       18.536       61.817       -1.403       28.589       23.321       14.184      817.351      543.849      201.187        0.286        0.078       64.536       12.952        0.040      343.509       19.670      864.114
07/24/2014  01:35:00       64.836       44.835        8.232       36.320       30.928       25.859     1319.153      956.539      668.677        0.461        0.147       78.828       22.286        0.080      343.290       19.298      864.072
07/24/2014  01:36:00       24.482       15.022       14.682       26.642       20.679       18.668      709.782      427.621      348.497        0.126        0.074       28.723       16.072        0.313      343.338       19.379      864.056
07/24/2014  01:37:00       84.341       63.148       12.378       37.590       35.104       22.541     1413.043     1232.291      508.116        0.720        0.158      105.361        8.868        0.007      343.542       19.726      864.060
07/24/2014  01:38:00       78.403       47.293        9.556       35.867       27.050       23.376     1286.415      731.688      546.420        0.552        0.128       91.563       10.813        0.014      343.518       19.685      864.046
07/24/2014  01:39:00      -16.818      -71.411      -10.197       50.085       42.090       34.147     2508.481     1771.541     1165.990        0.547        0.272       73.365       24.608        0.113      343.501       19.658      864.059
07/24/2014  01:40:00     -162.954     -124.264        1.319       62.727       52.082       37.818     3934.640     2712.557     1430.172        2.504        0.404      204.928       32.776        0.026      343.293       19.298      864.094
07/24/2014  01:41:00      -91.201     -126.613       -7.704       64.391       49.223       33.696     4146.141     2422.882     1135.392        1.605        0.385      156.040       27.734        0.032      343.382       19.454      864.115
07/24/2014  01:42:00      -22.220      -90.547        3.016       44.806       47.474       24.237     2007.565     2253.785      587.442        0.677        0.242       93.234       18.631        0.040      343.470       19.606      864.108
07/24/2014  01:43:00      -54.124      -41.780        0.983       44.949       24.154       21.081     2020.400      583.434      444.404        0.386        0.152       68.374        9.559        0.020      343.497       19.651      864.106
07/24/2014  01:44:00      -68.054      -39.297        3.930       45.710       36.377       20.362     2089.388     1323.307      414.620        0.501        0.191       78.584       20.224        0.066      343.440       19.553      864.127
07/24/2014  01:45:00      -21.617      -38.117       -1.277       25.990       22.995       15.596      675.456      528.756      243.245        0.168        0.072       43.820       10.526        0.058      343.416       19.513      864.130
07/24/2014  01:46:00       34.506       39.890       16.253       17.069       27.089       18.755      291.352      733.813      351.749        0.221        0.069       52.743       18.834        0.128      343.163       19.081      864.112
07/24/2014  01:47:00       10.435       52.705       -3.346       25.654       20.286        9.894      658.115      411.505       97.885        0.203        0.058       53.728        8.983        0.028      343.103       18.978      864.103
07/24/2014  01:48:00      -60.822       -2.726       -6.033       25.275       27.035       11.089      638.807      730.915      122.976        0.262        0.075       60.883        7.417        0.015      343.149       19.058      864.129
07/24/2014  01:49:00      -92.724      -50.563       -2.101       40.153       21.992       19.378     1612.252      483.643      375.514        0.681        0.124      105.614       17.309        0.027      343.092       18.960      864.157
07/24/2014  01:50:00       -1.249      -33.655       20.032       36.894       19.794       18.528     1361.197      391.783      343.278        0.182        0.105       33.678       19.573        0.338      343.113       18.997      864.161
07/24/2014  01:51:00        3.180      -26.984       14.712       21.683       17.244       17.275      470.158      297.368      298.423        0.101        0.053       27.171       15.839        0.340      343.269       19.261      864.141
07/24/2014  01:52:00      -13.426        4.773       -0.042       14.642        8.887       10.157      214.401       78.972      103.165        0.030        0.020       14.249        5.315        0.139      343.154       19.065      864.149
07/24/2014  01:53:00      -35.726        3.721        5.317       21.375       10.209       12.035      456.886      104.221      144.834        0.101        0.035       35.919       10.263        0.082      343.276       19.273      864.192
07/24/2014  01:54:00      -81.041       13.833       -8.695       43.562       23.940       14.669     1897.632      573.143      215.169        0.476        0.134       82.213        9.539        0.013      342.915       18.659      864.217
07/24/2014  01:55:00      -55.564       21.520       -6.486       35.369       30.552       17.485     1250.943      933.431      305.742        0.304        0.125       59.586       13.424        0.051      342.816       18.491      864.221
07/24/2014  01:56:00       13.647       71.847       -0.922       24.662       28.166       16.591      608.214      793.305      275.248        0.351        0.084       73.132       15.008        0.042      343.031       18.857      864.199
07/24/2014  01:57:00       40.108       61.855       -9.600       27.365       29.228       18.047      748.853      854.274      325.711        0.373        0.096       73.720       17.138        0.054      343.143       19.049      864.185
07/24/2014  01:58:00        3.079       70.462       -8.241       42.641       39.701       21.816     1818.229     1576.135      475.945        0.446        0.194       70.530       19.522        0.077      343.316       19.343      864.191
07/24/2014  01:59:00      -30.031       28.632       -7.227       14.914       19.152       13.127      222.433      366.815      172.327        0.127        0.038       41.492        8.874        0.046      343.453       19.574      864.195
07/24/2014  02:00:00       11.772      114.970      -14.848       35.925       80.995       22.716     1290.628     6560.126      516.001        1.097        0.418      115.571       31.462        0.074      343.420       19.517      864.224
07/24/2014  02:01:00       44.978       49.809       11.330       52.970       66.156       44.899     2805.848     4376.657     2015.897        0.691        0.460       67.111       17.469        0.068      343.379       19.449      864.220
07/24/2014  02:02:00        4.454       44.312       -5.522       65.255       22.363       19.863     4258.217      500.117      394.548        0.358        0.258       44.535       11.539        0.067      343.262       19.251      864.199
07/24/2014  02:03:00      -14.649       12.673        2.719       50.345       17.255       10.495     2534.626      297.735      110.144        0.166        0.147       19.370        8.737        0.203      343.269       19.261      864.204
07/24/2014  02:04:00       -1.864      189.978      -26.119       41.870       81.711       34.709     1753.076     6676.705     1204.708        2.320        0.482      189.987       34.301        0.033      343.251       19.229      864.216
07/24/2014  02:05:00      -40.166      122.234      -20.312       44.213       66.416       25.464     1954.833     4411.107      648.394        1.199        0.351      128.665       23.624        0.034      343.036       18.865      864.206
07/24/2014  02:06:00      -23.132       62.851       -8.687       50.020       41.935       24.527     2501.981     1758.562      601.571        0.471        0.243       66.972       15.521        0.054      343.098       18.970      864.205
07/24/2014  02:07:00      -75.434       53.747       -9.924       51.432       41.121       23.388     2645.205     1690.931      546.982        0.678        0.244       92.623       12.726        0.019      343.081       18.942      864.214
07/24/2014  02:08:00      -66.117       34.438      -17.001       47.478       42.508       21.548     2254.171     1806.911      464.333        0.519        0.226       74.548       20.390        0.075      343.036       18.863      864.217
07/24/2014  02:09:00     -102.477       74.150      -20.912       54.091       43.192       23.302     2925.879     1865.574      542.982        1.088        0.267      126.490       24.565        0.038      342.894       18.624      864.200
07/24/2014  02:10:00     -123.520       69.355      -18.911       47.011       39.471       28.531     2210.048     1557.990      814.036        1.250        0.229      141.659       27.700        0.038      342.808       18.476      864.192
07/24/2014  02:11:00      -52.759       18.241        1.183       35.763       36.425       22.900     1278.981     1326.796      524.402        0.312        0.157       55.823       16.077        0.083      342.713       18.316      864.199
07/24/2014  02:12:00      -25.188       86.234       -5.037       40.040       50.595       30.955     1603.181     2559.902      958.184        0.661        0.256       89.837       29.215        0.106      342.865       18.574      864.200
07/24/2014  02:13:00       75.507       96.380        5.905       52.742       49.386       43.493     2781.691     2439.001     1891.601        1.107        0.356      122.435       35.575        0.084      343.174       19.101      864.183
07/24/2014  02:14:00       24.174      108.703       -3.121       46.232       49.652       32.746     2137.392     2465.354     1072.277        0.904        0.284      111.358       26.498        0.057      343.162       19.080      864.183
07/24/2014  02:15:00      -65.528       25.038       -8.243       44.956       33.457       14.989     2021.048     1119.368      224.670        0.418        0.168       70.149       14.461        0.042      342.684       18.265      864.191
07/24/2014  02:16:00     -153.288        1.531      -17.540       45.917       29.577       23.045     2108.336      874.807      531.090        1.366        0.176      153.296       23.463        0.023      342.402       17.786      864.211
07/24/2014  02:17:00     -155.606       15.693      -18.175       29.460       23.847       19.358      867.920      568.664      374.731        1.330        0.091      156.395       17.043        0.012      342.602       18.126      864.232
07/24/2014  02:18:00     -121.223       15.997      -11.609       24.177       28.447       18.117      584.539      809.252      328.224        0.840        0.086      122.274       14.999        0.015      342.609       18.138      864.227
07/24/2014  02:19:00     -129.433       33.526       -9.077       20.431       20.332       13.092      417.406      413.408      171.405        0.948        0.050      133.705        6.581        0.002      342.483       17.924      864.230
07/24/2014  02:20:00     -114.499       17.159      -13.581       35.114       27.407       22.528     1233.000      751.155      507.519        0.804        0.125      115.778       18.612        0.026      342.356       17.708      864.244
07/24/2014  02:21:00     -119.457        6.991      -12.968       35.726       31.718       24.049     1276.342     1006.036      578.371        0.867        0.143      119.661       19.732        0.027      342.311       17.632      864.257
07/24/2014  02:22:00      -49.426       57.727      -12.412       29.571       42.952       22.482      874.446     1844.885      505.450        0.458        0.161       75.996       11.239        0.022      342.373       17.737      864.244
07/24/2014  02:23:00      -76.543       48.814       -7.665       32.592       35.655       16.968     1062.244     1271.253      287.916        0.546        0.131       90.784       18.290        0.041      342.375       17.741      864.231
07/24/2014  02:24:00      -81.502       34.213      -13.804       22.021       27.986       16.456      484.938      783.207      270.803        0.477        0.077       88.392       12.543        0.020      342.454       17.874      864.235
07/24/2014  02:25:00      -62.684       30.032      -12.443       16.894       27.410       11.505      285.394      751.293      132.362        0.308        0.058       69.507       10.147        0.021      342.496       17.947      864.233
07/24/2014  02:26:00      -58.457      -12.829       -5.383       20.034       33.086       15.094      401.375     1094.708      227.832        0.267        0.086       59.848       10.388        0.030      342.510       17.971      864.211
07/24/2014  02:27:00      -32.012        3.332       -4.711       26.378       28.456       16.698      695.814      809.733      278.830        0.142        0.089       32.185       14.147        0.193      342.503       17.958      864.216
07/24/2014  02:28:00      -15.653       -1.269       -3.096       20.016       14.684        9.134      400.650      215.632       83.427        0.048        0.035       15.704        6.196        0.156      342.689       18.275      864.212
07/24/2014  02:29:00      -60.874       11.393      -18.505       45.875       16.682       13.244     2104.517      278.284      175.407        0.337        0.128       61.931       11.594        0.035      342.486       17.930      864.207
07/24/2014  02:30:00       30.402       16.834       14.570       32.703       26.576       20.849     1069.508      706.290      434.700        0.181        0.111       34.752       17.315        0.248      342.710       18.310      864.206
07/24/2014  02:31:00       58.656       57.880        0.959       38.847       39.473       30.613     1509.115     1558.119      937.142        0.540        0.200       82.405       19.639        0.057      342.879       18.597      864.185
07/24/2014  02:32:00      120.006       74.320       20.216       48.756       35.694       23.794     2377.139     1274.084      566.156        1.227        0.211      141.156       19.267        0.019      342.950       18.719      864.163
07/24/2014  02:33:00       53.855       40.864       30.631       42.473       35.492       26.950     1803.933     1259.678      726.288        0.465        0.189       67.603       21.664        0.103      343.014       18.828      864.146
07/24/2014  02:34:00       37.730       89.711       -6.805       32.610       49.003       24.593     1063.441     2401.317      604.793        0.679        0.203       97.322       26.465        0.074      343.003       18.807      864.151
07/24/2014  02:35:00        9.203      120.248       -3.796       59.246       62.272       41.178     3510.089     3877.845     1695.590        1.182        0.454      120.599       38.125        0.100      343.075       18.932      864.142
07/24/2014  02:36:00        9.969      114.389       -5.116       42.087       65.729       37.124     1771.351     4320.340     1378.189        1.034        0.373      114.822       32.485        0.080      343.149       19.058      864.132
07/24/2014  02:37:00       31.678      133.147      -21.366       28.739       54.408       28.165      825.903     2960.259      793.285        1.188        0.229      136.864       27.419        0.040      343.189       19.125      864.123
07/24/2014  02:38:00       32.944       55.681       -3.867       38.884       45.383       24.715     1512.000     2059.601      610.807        0.419        0.209       64.697       21.759        0.113      343.064       18.912      864.132
07/24/2014  02:39:00        5.788       97.033       -7.324       44.138       36.692       24.635     1948.138     1346.337      606.869        0.670        0.195       97.206       22.532        0.054      343.087       18.952      864.142
07/24/2014  02:40:00      -51.975       36.751       -9.395       41.324       34.008       28.317     1707.643     1156.574      801.871        0.390        0.183       63.656       26.647        0.175      342.929       18.683      864.161
07/24/2014  02:41:00     -104.555        2.610      -11.220       35.459       27.456       15.468     1257.358      753.806      239.274        0.666        0.113      104.587       13.913        0.018      342.848       18.545      864.174
07/24/2014  02:42:00      -74.721       43.505      -14.539       45.409       61.357       27.303     2061.982     3764.742      745.440        0.713        0.329       86.463       30.632        0.126      343.114       18.997      864.182
07/24/2014  02:43:00      -41.280      122.477      -18.753       24.279       27.623       15.405      589.475      763.040      237.323        0.932        0.079      129.247       13.915        0.012      343.274       19.271      864.170
07/24/2014  02:44:00      -87.921       39.194      -11.774       27.675       20.762       14.928      765.908      431.056      222.841        0.541        0.071       96.262        8.339        0.008      343.185       19.118      864.161
07/24/2014  02:45:00      -93.409       24.077      -14.705       25.419       23.343       16.138      646.149      544.880      260.427        0.549        0.073       96.462        4.620        0.002      343.012       18.824      864.170
07/24/2014  02:46:00     -136.987       15.207      -19.010       27.834       21.115       14.229      774.740      445.848      202.463        1.039        0.071      137.829       12.739        0.009      342.766       18.406      864.193
07/24/2014  02:47:00     -130.486       22.748      -16.861       36.575       27.493       20.100     1337.718      755.873      404.025        1.016        0.125      132.454       15.275        0.013      342.720       18.327      864.213
07/24/2014  02:48:00     -143.515       -4.075      -18.804       35.532       42.712       17.522     1262.516     1824.316      307.016        1.218        0.170      143.573       16.669        0.013      342.575       18.082      864.206
07/24/2014  02:49:00      -60.686       33.212        0.476       75.189       24.778       16.863     5653.367      613.962      284.345        0.567        0.328       69.180       31.497        0.207      342.952       18.722      864.195
07/24/2014  02:50:00       50.795      168.997      -15.262       57.096       64.797       33.625     3259.903     4198.603     1130.652        1.998        0.429      176.466       32.415        0.034      343.441       19.554      864.206
07/24/2014  02:51:00      142.641      106.420       11.561       75.630       68.981       43.130     5719.937     4758.366     1860.240        2.207        0.617      177.965       31.612        0.032      343.510       19.670      864.193
07/24/2014  02:52:00       35.969      124.471       -6.196       97.083       83.979       48.985     9425.142     7052.390     2399.527        1.785        0.944      129.563       55.147        0.181      343.524       19.696      864.172
07/24/2014  02:53:00      -51.946       63.410      -19.334       42.588       78.445       33.434     1813.767     6153.655     1117.818        0.809        0.454       81.971       36.788        0.201      343.202       19.147      864.196
07/24/2014  02:54:00      -92.896        7.564       -4.739       47.852       36.315       25.243     2289.810     1318.783      637.208        0.648        0.212       93.203       23.160        0.062      343.379       19.450      864.210
07/24/2014  02:55:00     -169.278       38.806      -21.082       68.459       30.640       26.171     4686.646      938.825      684.913        1.846        0.316      173.669       21.630        0.016      343.353       19.404      864.217
07/24/2014  02:56:00     -228.846      125.770      -46.370       48.510       48.683       31.471     2353.230     2370.079      990.423        3.803        0.286      261.130       12.573        0.002      343.283       19.279      864.241
07/24/2014  02:57:00      -89.871       46.843      -10.040       84.867       54.256       32.096     7202.457     2943.726     1030.184        1.077        0.559      101.346       27.902        0.076      343.308       19.330      864.250
07/24/2014  02:58:00      -31.803       98.516      -13.220       50.732       52.146       26.835     2573.742     2719.166      720.096        0.845        0.301      103.522       24.237        0.055      343.216       19.171      864.252
07/24/2014  02:59:00      -35.068       52.172      -10.782       56.356       90.482       30.680     3175.992     8186.929      941.292        0.818        0.615       62.862       15.555        0.061      343.262       19.250      864.245
07/24/2014  03:00:00      -71.212       28.584        1.608       47.450       27.256       20.065     2251.544      742.896      402.584        0.464        0.170       76.735       19.409        0.064      343.121       19.008      864.261
07/24/2014  03:01:00      -63.742       52.101       -1.589       51.133       30.833       23.351     2614.624      950.677      545.275        0.544        0.206       82.326       15.032        0.033      343.152       19.062      864.276
07/24/2014  03:02:00      -19.672      101.252      -11.007       25.142       40.775       15.342      632.113     1662.562      235.371        0.664        0.127      103.145       17.298        0.028      343.174       19.101      864.280
07/24/2014  03:03:00        4.460      110.688      -13.623       46.000       42.601       25.954     2116.032     1814.887      673.624        0.853        0.230      110.778       23.370        0.045      343.092       18.960      864.276
07/24/2014  03:04:00      -27.945      126.161      -16.873       52.258       28.165       21.908     2730.886      793.246      479.949        1.049        0.200      129.219       14.069        0.012      343.080       18.940      864.273
07/24/2014  03:05:00      -89.229       44.871       -7.574       36.296       33.732       17.306     1317.404     1137.820      299.493        0.639        0.138       99.876       14.668        0.022      343.041       18.874      864.275
07/24/2014  03:06:00      -44.312       97.452      -19.813       47.972       57.203       23.550     2301.339     3272.134      554.581        0.899        0.306      107.053       25.004        0.055      343.000       18.803      864.298
07/24/2014  03:07:00      -19.357      136.084      -10.733       60.859       78.945       31.151     3703.843     6232.296      970.376        1.496        0.545      137.454       39.841        0.084      343.059       18.901      864.316
07/24/2014  03:08:00      -72.149      123.141      -28.602       46.070       27.236       16.875     2122.408      741.803      284.781        1.217        0.157      142.721       16.687        0.014      343.124       19.013      864.309
07/24/2014  03:09:00        2.836       91.347      -13.576       18.718       22.941       14.764      350.371      526.275      217.975        0.482        0.055       91.391       13.668        0.022      343.163       19.081      864.302
07/24/2014  03:10:00       -1.446      103.723      -20.294       22.629       28.211       12.944      512.072      795.853      167.540        0.632        0.074      103.734       12.916        0.016      343.159       19.074      864.286
07/24/2014  03:11:00       19.692       84.984       -7.549       20.877       46.583       22.285      435.866     2169.992      496.605        0.538        0.155       87.236       20.368        0.055      342.999       18.802      864.279
07/24/2014  03:12:00       -9.102      122.058      -25.067       57.587      126.095       43.575     3316.234    15900.071     1898.811        1.836        1.056      122.396       58.230        0.226      343.118       19.003      864.276
07/24/2014  03:13:00      -20.988       66.973      -18.480       45.930       54.990       21.215     2109.609     3023.953      450.071        0.542        0.279       70.185       25.437        0.131      343.046       18.883      864.282
07/24/2014  03:14:00      -33.921       57.758      -11.338       51.136       46.654       15.977     2614.886     2176.565      255.279        0.483        0.252       66.982       16.427        0.060      343.075       18.930      864.282
07/24/2014  03:15:00      -86.259        1.943      -10.381       43.423       14.611       19.391     1885.532      213.496      376.029        0.501        0.124       86.281       22.522        0.068      343.259       19.245      864.274
07/24/2014  03:16:00      -57.844       88.690      -12.117       34.903       41.292       23.162     1218.203     1705.005      536.494        0.741        0.173      105.886       20.512        0.038      342.974       18.759      864.279
07/24/2014  03:17:00      -26.080      180.850      -27.956       59.085       66.695       22.531     3490.990     4448.210      507.660        2.131        0.422      182.720       20.100        0.012      343.027       18.847      864.264
07/24/2014  03:18:00     -105.084      131.247      -27.654       50.089       48.853       31.293     2508.874     2386.629      979.263        1.745        0.294      168.132       28.285        0.028      342.919       18.665      864.254
07/24/2014  03:19:00      -51.185      197.395      -22.956       33.746       47.403       23.660     1138.817     2247.053      559.799        2.303        0.197      203.923       20.360        0.010      343.039       18.867      864.262
07/24/2014  03:20:00      -72.411      141.974      -14.223       40.756       50.886       30.226     1661.079     2589.427      913.583        1.538        0.258      159.374       27.344        0.029      343.019       18.836      864.293
07/24/2014  03:21:00     -125.223       62.083      -14.097       51.821       43.091       29.263     2685.454     1856.807      856.301        1.257        0.270      139.769       26.745        0.037      342.965       18.745      864.326
07/24/2014  03:22:00     -134.973      134.473      -29.975       59.557       40.854       25.144     3547.085     1669.085      632.219        2.152        0.292      190.527       20.094        0.011      343.058       18.901      864.357
07/24/2014  03:23:00      -84.532       73.807      -18.521       32.781       38.039       16.043     1074.580     1447.001      257.381        0.786        0.139      112.219       15.000        0.018      343.098       18.972      864.349
07/24/2014  03:24:00      -76.787       29.896       -5.373       27.568       32.863       22.883      759.978     1079.996      523.633        0.459        0.118       82.402       12.948        0.025      342.964       18.741      864.343
07/24/2014  03:25:00     -116.532       60.406      -19.193       54.744       47.441       32.782     2996.935     2250.678     1074.660        1.196        0.316      131.257       38.863        0.088      343.003       18.807      864.329
07/24/2014  03:26:00     -113.652       75.863       -7.724       40.016       43.687       40.422     1601.258     1908.548     1633.972        1.194        0.257      136.645       32.525        0.057      342.970       18.753      864.312
07/24/2014  03:27:00     -113.445       93.717      -14.382       44.729       48.222       30.420     2000.713     2325.386      925.396        1.355        0.263      147.149       26.118        0.032      342.890       18.617      864.305
07/24/2014  03:28:00     -147.601      128.763      -32.819       45.036       65.738       35.301     2028.220     4321.527     1246.181        2.352        0.380      195.872       37.225        0.036      343.037       18.864      864.298
07/24/2014  03:29:00     -130.567       92.877      -29.691       44.870       57.417       29.209     2013.352     3296.721      853.192        1.636        0.308      160.231       30.818        0.037      342.988       18.783      864.302
07/24/2014  03:30:00      -99.407       54.699      -11.965       40.662       26.469       21.890     1653.416      700.621      479.160        0.792        0.142      113.462       17.819        0.025      342.923       18.672      864.318
07/24/2014  03:31:00      -85.358       29.209      -13.971       18.944       33.700       15.921      358.863     1135.694      253.469        0.504        0.087       90.217       14.527        0.026      342.890       18.616      864.322
07/24/2014  03:32:00     -129.895      104.378      -30.709       37.872       74.094       27.183     1434.290     5489.923      738.914        1.819        0.383      166.636       34.696        0.043      342.936       18.693      864.314
07/24/2014  03:33:00      -81.797      173.190      -25.938       44.318       51.051       28.977     1964.109     2606.224      839.653        2.138        0.270      191.535       24.914        0.017      342.880       18.597      864.311
07/24/2014  03:34:00     -104.706      139.343      -23.185       51.418       50.130       31.834     2643.846     2513.004     1013.404        1.854        0.309      174.298       26.021        0.022      342.841       18.530      864.296
07/24/2014  03:35:00     -120.552      106.108      -28.762       39.374       41.213       23.921     1550.340     1698.482      572.214        1.522        0.191      160.598       22.195        0.019      342.837       18.525      864.284
07/24/2014  03:36:00     -180.942       99.703      -22.781       62.209       47.400       45.710     3869.925     2246.771     2089.389        2.570        0.410      206.593       43.220        0.044      342.929       18.680      864.273
07/24/2014  03:37:00     -154.722       28.000      -26.062       70.334       67.280       26.259     4946.808     4526.593      689.549        1.778        0.508      157.235       25.204        0.026      342.865       18.572      864.267
07/24/2014  03:38:00     -156.361       92.328      -28.172       63.279       44.375       36.327     4004.182     1969.103     1319.678        2.053        0.365      181.585       26.122        0.021      342.933       18.688      864.267
07/24/2014  03:39:00     -137.751       74.359       -9.798       54.627       44.732       29.575     2984.137     2000.951      874.698        1.523        0.293      156.540       20.012        0.016      342.906       18.644      864.262
07/24/2014  03:40:00     -126.143       97.941      -25.414       42.820       47.759       33.502     1833.557     2280.903     1122.365        1.569        0.262      159.701       32.680        0.042      342.949       18.715      864.253
07/24/2014  03:41:00     -163.539      151.373      -42.410       46.468       50.950       34.736     2159.251     2595.880     1206.611        2.871        0.298      222.843       31.222        0.020      342.998       18.797      864.238
07/24/2014  03:42:00     -158.506      161.767      -29.796       65.768       65.929       38.215     4325.448     4346.685     1460.390        3.115        0.507      226.479       35.841        0.025      342.913       18.653      864.234
07/24/2014  03:43:00     -136.507      148.749      -23.853       49.289       61.614       43.537     2429.370     3796.328     1895.502        2.472        0.406      201.892       37.775        0.035      342.907       18.642      864.241
07/24/2014  03:44:00     -162.537      143.916      -42.223       59.802       55.545       38.265     3576.227     3085.264     1464.207        2.852        0.406      217.095       39.260        0.033      342.971       18.752      864.254
07/24/2014  03:45:00     -169.145       93.825      -34.276       50.803       64.134       32.697     2580.975     4113.114     1069.118        2.317        0.388      193.424       33.974        0.031      343.097       18.967      864.245
07/24/2014  03:46:00      -91.304       35.926       -5.646       34.930       34.945       20.974     1220.076     1221.147      439.929        0.627        0.144       98.117       14.995        0.023      342.927       18.680      864.223
07/24/2014  03:47:00     -121.864       56.000       -5.145       50.061       37.835       29.205     2506.141     1431.457      852.917        1.140        0.240      134.115       19.745        0.022      342.898       18.629      864.207
07/24/2014  03:48:00     -114.959      111.245      -20.048       51.635       48.248       32.556     2666.217     2327.845     1059.887        1.602        0.303      159.972       33.209        0.043      342.835       18.521      864.209
07/24/2014  03:49:00     -153.230      130.192      -33.276       47.054       54.334       29.163     2214.041     2952.152      850.494        2.378        0.301      201.071       27.725        0.019      342.914       18.655      864.206
07/24/2014  03:50:00     -145.966      109.746      -21.078       50.252       51.115       37.768     2525.264     2612.788     1426.421        2.018        0.328      182.621       25.984        0.020      342.903       18.637      864.197
07/24/2014  03:51:00     -147.858       96.177      -20.833       42.537       49.223       32.726     1809.419     2422.952     1070.998        1.842        0.265      176.386       27.627        0.025      342.871       18.581      864.190
07/24/2014  03:52:00     -124.413       35.307      -10.041       35.104       31.751       21.292     1232.297     1008.137      453.360        0.976        0.135      129.326        9.547        0.005      342.759       18.394      864.193
07/24/2014  03:53:00      -81.774       -0.935       -3.434       35.212       39.294       16.371     1239.914     1544.012      268.015        0.488        0.153       81.780       16.954        0.043      342.695       18.283      864.194
07/24/2014  03:54:00      -87.246      -28.223       -4.528       53.165       34.545       22.400     2826.570     1193.354      501.774        0.647        0.226       91.698       28.497        0.097      342.638       18.188      864.191
07/24/2014  03:55:00     -119.486      -40.627      -16.038       21.271       35.238       16.104      452.449     1241.730      259.353        0.907        0.098      126.204       11.687        0.009      342.550       18.039      864.199
07/24/2014  03:56:00      -80.882      -30.193       -3.910       35.772       31.567       21.191     1279.648      996.480      449.043        0.510        0.136       86.333       21.809        0.064      342.389       17.765      864.215
07/24/2014  03:57:00     -127.270       -7.037      -22.569       48.065       27.187       18.908     2310.217      739.109      357.509        1.008        0.170      127.465       25.875        0.041      342.594       18.112      864.211
07/24/2014  03:58:00     -155.345       28.668      -18.666       33.533       28.053       18.506     1124.465      786.990      342.481        1.378        0.113      157.968       14.021        0.008      342.657       18.221      864.197
07/24/2014  03:59:00     -117.437      105.841      -24.903       43.616       77.692       32.916     1902.326     6036.110     1083.462        1.732        0.451      158.094       36.277        0.053      342.763       18.399      864.181
07/24/2014  04:00:00     -148.656       21.049      -10.294       69.508      109.140       40.233     4831.417    11911.573     1618.662        2.050        0.918      150.139       39.116        0.068      342.731       18.344      864.162
07/24/2014  04:01:00      -50.079       15.493        7.122       44.487       33.953       35.157     1979.071     1152.834     1236.040        0.358        0.218       52.421       30.752        0.344      342.527       17.998      864.171
07/24/2014  04:02:00      -88.807       41.766      -15.732       52.178       37.681       22.783     2722.543     1419.870      519.084        0.727        0.233       98.138       20.973        0.046      342.682       18.263      864.188
07/24/2014  04:03:00      -58.505      -21.890       -9.727       55.683       64.605       16.666     3100.582     4173.771      277.747        0.577        0.378       62.466       14.502        0.054      342.777       18.423      864.187
07/24/2014  04:04:00     -101.239      -45.765       -5.389       32.904       38.345       16.128     1082.653     1470.331      260.104        0.759        0.141      111.102        6.250        0.003      342.472       17.907      864.195
07/24/2014  04:05:00      -78.364      -42.214       -4.111       28.605       33.139       20.632      818.241     1098.220      425.661        0.514        0.117       89.011       18.243        0.042      342.421       17.818      864.197
07/24/2014  04:06:00      -71.476      -20.420       -1.887       27.560       24.463       15.737      759.543      598.427      247.664        0.357        0.080       74.336        4.935        0.004      342.441       17.853      864.195
07/24/2014  04:07:00      -66.767      -30.264       -7.578       31.657       24.086       13.668     1002.172      580.137      186.807        0.360        0.088       73.305       14.083        0.037      342.352       17.702      864.207
07/24/2014  04:08:00      -65.293      -14.933       -4.146       34.522       18.953       16.764     1191.792      359.230      281.025        0.317        0.092       66.979       17.150        0.066      342.278       17.577      864.219
07/24/2014  04:09:00      -81.550      -27.299       -9.722       16.350       29.366       12.319      267.320      862.347      151.760        0.439        0.064       85.998       11.076        0.017      342.330       17.663      864.233
07/24/2014  04:10:00     -101.132      -31.401       -8.066       28.587       30.233       13.721      817.198      914.016      188.279        0.660        0.096      105.895        9.673        0.008      342.276       17.573      864.231
07/24/2014  04:11:00     -105.383      -15.858      -14.462       27.099       24.803       19.254      734.333      615.183      370.713        0.664        0.086      106.569       14.182        0.018      342.254       17.535      864.235
07/24/2014  04:12:00      -66.290       -4.520       -6.810       25.245       24.971       16.993      637.292      623.530      288.755        0.301        0.077       66.444       13.848        0.043      342.233       17.499      864.241
07/24/2014  04:13:00     -123.244       83.668      -14.227       47.216       60.127       36.257     2229.312     3615.262     1314.575        1.477        0.358      148.962       18.464        0.015      342.476       17.911      864.251
07/24/2014  04:14:00      -75.345      118.865      -18.520       33.713       83.008       28.903     1136.599     6890.350      835.397        1.450        0.443      140.734       24.541        0.030      342.580       18.088      864.248
07/24/2014  04:15:00      -47.199       62.983       -4.738       42.544       31.351       26.773     1810.019      982.857      716.771        0.486        0.175       78.706       22.221        0.080      342.470       17.903      864.247
07/24/2014  04:16:00      -90.428       57.091      -18.074       49.765       65.775       25.488     2476.603     4326.285      649.629        0.961        0.373      106.942       24.831        0.054      342.517       17.982      864.246
07/24/2014  04:17:00      -71.010       46.305       -1.369       26.472       39.173       22.760      700.769     1534.540      518.004        0.497        0.138       84.774       13.446        0.025      342.377       17.744      864.249
07/24/2014  04:18:00      -52.281       12.883      -10.008       29.447       23.427       14.235      867.143      548.802      202.648        0.231        0.081       53.845        9.979        0.034      342.348       17.694      864.255
07/24/2014  04:19:00      -19.892       17.073       -3.525       22.528       14.819        6.852      507.500      219.604       46.949        0.074        0.039       26.214        5.019        0.037      342.269       17.560      864.262
07/24/2014  04:20:00      -17.092      -24.533       -4.411       20.416       14.430       14.040      416.832      208.222      197.117        0.087        0.041       29.901        6.102        0.042      342.285       17.588      864.268
07/24/2014  04:21:00      -58.240      -20.601       -8.975       18.543       23.460       11.023      343.830      550.358      121.502        0.246        0.051       61.776       11.452        0.034      342.252       17.531      864.272
07/24/2014  04:22:00      -71.239      -39.229       -9.261       23.178       17.413       11.433      537.222      303.206      130.713        0.384        0.049       81.326        3.352        0.002      342.151       17.362      864.277
07/24/2014  04:23:00      -51.457      -38.229        1.546       28.643       19.460       14.239      820.409      378.698      202.739        0.276        0.070       64.103       14.310        0.050      342.038       17.168      864.285
07/24/2014  04:24:00      -60.243      -16.359       -8.407       32.763       16.579       14.391     1073.432      274.862      207.098        0.276        0.078       62.425       16.775        0.072      342.163       17.381      864.273
07/24/2014  04:25:00        7.591       -1.895        2.778       13.366       10.647       10.911      178.657      113.349      119.040        0.024        0.021        7.824        8.180        1.093      342.105       17.281      864.254
07/24/2014  04:26:00      -10.039      -30.166       -1.575       10.604       11.838       10.028      112.437      140.132      100.569        0.068        0.018       31.793        5.432        0.029      342.295       17.603      864.229
07/24/2014  04:27:00      -19.088        8.809       -0.828       14.075       24.040       11.944      198.104      577.913      142.654        0.068        0.046       21.023        7.836        0.139      342.181       17.412      864.217
07/24/2014  04:28:00      -14.608       39.509       -4.612       20.310       18.721       10.991      412.513      350.474      120.798        0.134        0.044       42.123       11.032        0.069      342.110       17.290      864.216
07/24/2014  04:29:00       15.980       24.768        1.064       19.176       15.456        8.934      367.708      238.881       79.813        0.078        0.034       29.475        5.497        0.035      342.054       17.196      864.199
07/24/2014  04:30:00       43.603       18.970        3.759       22.157       21.255       17.158      490.952      451.783      294.414        0.176        0.062       47.551       12.381        0.068      341.875       16.890      864.192
07/24/2014  04:31:00       86.430       43.717       16.098       34.181       21.956       31.226     1168.360      482.069      975.038        0.613        0.131       96.857       23.771        0.060      341.916       16.961      864.185
07/24/2014  04:32:00       40.641       13.498        9.379       15.669       17.468       22.184      245.506      305.146      492.114        0.148        0.052       42.824       15.716        0.135      342.114       17.297      864.199
07/24/2014  04:33:00       16.225        2.307        3.886       10.602       13.497       12.909      112.407      182.177      166.645        0.037        0.023       16.389        9.818        0.359      342.032       17.157      864.224
07/24/2014  04:34:00       43.754       39.950       39.228       16.473       12.221       16.662      271.370      149.357      277.616        0.287        0.035       59.249        8.911        0.023      341.915       16.960      864.233
07/24/2014  04:35:00       26.317       46.329       42.732       26.042       21.927       16.923      678.188      480.773      286.402        0.305        0.072       53.282       14.662        0.076      341.899       16.932      864.237
07/24/2014  04:36:00        7.227       33.577       53.109       23.225       21.449       16.845      539.384      460.063      283.750        0.264        0.064       34.346       14.738        0.184      341.958       17.032      864.236
07/24/2014  04:37:00       16.916       43.130       52.108       34.177       25.039       27.592     1168.087      626.933      761.292        0.371        0.128       46.329       25.768        0.309      341.908       16.947      864.241
07/24/2014  04:38:00       30.818       20.725       37.214       37.842       21.537       21.085     1432.026      463.846      444.563        0.255        0.117       37.138       24.333        0.429      341.830       16.816      864.263
07/24/2014  04:39:00       55.097       42.558       30.795       37.046       16.732       24.758     1372.431      279.960      612.982        0.403        0.113       69.619       19.287        0.077      341.874       16.888      864.275
07/24/2014  04:40:00       74.593       33.119       -1.735       20.329       17.828       14.953      413.261      317.851      223.582        0.381        0.048       81.615        7.891        0.009      341.782       16.734      864.285
07/24/2014  04:41:00       41.016       19.010        6.775       29.772       10.114       15.353      886.362      102.296      235.722        0.166        0.061       45.207       10.654        0.056      341.775       16.722      864.284
07/24/2014  04:42:00        2.924       64.151      -10.977       26.690       20.923       17.449      712.365      437.760      304.460        0.285        0.073       64.217       13.443        0.044      341.786       16.741      864.293
07/24/2014  04:43:00      -49.062       42.251      -10.728       31.481       34.331       12.586      991.070     1178.598      158.413        0.332        0.116       64.747        9.621        0.022      341.909       16.949      864.289
07/24/2014  04:44:00      -98.059      -26.744       -7.252       35.224       23.405       15.634     1240.732      547.775      244.437        0.621        0.102      101.640       15.038        0.022      341.807       16.777      864.294
07/24/2014  04:45:00     -122.101      -68.479       -1.098       32.047       21.925       15.541     1027.014      480.721      241.530        1.067        0.087      139.993       14.059        0.010      341.585       16.400      864.319
07/24/2014  04:46:00      -62.289      -55.619        2.575       33.123       25.399       20.359     1097.165      645.108      414.469        0.457        0.108       83.507       16.146        0.037      341.575       16.384      864.341
07/24/2014  04:47:00      -44.417      -45.298       10.774       42.364       29.215       19.495     1794.704      853.537      380.045        0.358        0.151       63.441       22.142        0.122      341.608       16.439      864.327
07/24/2014  04:48:00      -27.676      -44.559        2.340       28.951       24.973       18.385      838.174      623.639      338.024        0.228        0.090       52.455       19.639        0.140      341.733       16.650      864.301
07/24/2014  04:49:00      -20.781      -23.965        3.399       26.518       20.766       14.453      703.205      431.229      208.882        0.118        0.067       31.720       16.563        0.273      341.659       16.526      864.280
07/24/2014  04:50:00        0.986      -13.078        1.618       11.806       10.742        7.349      139.381      115.390       54.010        0.024        0.015       13.115        4.013        0.094      341.645       16.501      864.271
07/24/2014  04:51:00        4.078      -14.975        0.559        7.223       13.471       11.522       52.172      181.455      132.765        0.030        0.018       15.520        8.963        0.334      341.758       16.694      864.282
07/24/2014  04:52:00        6.593        2.610        0.052       11.062       14.755        6.191      122.364      217.711       38.322        0.021        0.019        7.090        7.325        1.067      341.693       16.583      864.299
07/24/2014  04:53:00       11.738       13.598       -0.682        6.381        6.592        5.118       40.714       43.459       26.197        0.022        0.006       17.963        4.038        0.051      341.655       16.520      864.302
07/24/2014  04:54:00       10.962       16.184       -0.405        8.986       10.481        6.346       80.753      109.853       40.274        0.031        0.012       19.547        6.682        0.117      341.636       16.484      864.301
07/24/2014  04:55:00       -2.488      -26.366       -0.979       17.113       19.024       11.688      292.847      361.924      136.612        0.075        0.040       26.483        8.807        0.111      341.648       16.507      864.306
07/24/2014  04:56:00        0.526      -24.248       -3.215       10.721        7.341        7.170      114.947       53.895       51.406        0.041        0.011       24.254        3.030        0.016      341.705       16.604      864.315
07/24/2014  04:57:00      -28.674       -3.536        0.242       11.239        7.986        7.948      126.320       63.783       63.165        0.054        0.013       28.892        6.351        0.048      341.667       16.540      864.321
07/24/2014  04:58:00      -11.464        1.724        3.106        6.535        9.010        4.173       42.707       81.181       17.414        0.014        0.007       11.593        3.294        0.081      341.658       16.528      864.325
07/24/2014  04:59:00       -9.703        1.667       -1.525        4.900        3.712        4.164       24.013       13.778       17.336        0.008        0.003        9.845        2.107        0.046      341.689       16.574      864.320
07/24/2014  05:00:00        0.544        3.322       -3.437        6.137        8.051        7.193       37.661       64.823       51.745        0.009        0.008        3.366        6.628        3.876      341.700       16.594      864.325
07/24/2014  05:01:00       24.926       31.187        5.506       14.327        9.524        9.159      205.257       90.701       83.890        0.100        0.019       39.924        6.222        0.024      341.833       16.817      864.333
07/24/2014  05:02:00       23.455       65.931       -8.906       10.992       20.930        7.314      120.833      438.080       53.494        0.279        0.031       69.979        8.087        0.013      341.820       16.800      864.331
07/24/2014  05:03:00       21.954       75.331      -13.868       14.112       15.708        7.957      199.155      246.749       63.312        0.343        0.025       78.465        9.822        0.016      341.885       16.906      864.332
07/24/2014  05:04:00        9.173       87.712      -12.795       23.282       15.578        9.827      542.063      242.686       96.579        0.441        0.044       88.191        9.929        0.013      341.733       16.651      864.347
07/24/2014  05:05:00       -7.004       88.318      -14.529       15.456       14.897        6.937      238.873      221.909       48.121        0.428        0.025       88.595        4.384        0.002      341.758       16.693      864.361
07/24/2014  05:06:00      -43.039       82.082      -15.368       30.336       13.809        9.506      920.281      190.691       90.359        0.501        0.060       92.681        8.905        0.009      341.770       16.714      864.372
07/24/2014  05:07:00      -35.109      119.070      -18.453       23.134       23.057       17.048      535.172      531.635      290.645        0.855        0.068      124.138       10.496        0.007      341.674       16.551      864.374
07/24/2014  05:08:00      -29.773       71.352      -10.751       14.989       23.707       16.701      224.670      562.025      278.910        0.358        0.053       77.315       12.763        0.027      341.698       16.591      864.364
07/24/2014  05:09:00      -30.205       38.704      -10.546       20.407       22.186       13.684      416.449      492.215      187.266        0.181        0.055       49.096       14.507        0.087      341.641       16.496      864.359
07/24/2014  05:10:00      -42.145       21.317      -11.463       21.317       17.903        9.343      454.418      320.528       87.284        0.161        0.043       47.229       11.107        0.055      341.612       16.444      864.364
07/24/2014  05:11:00      -21.386       14.681       -2.974       18.330       19.061       10.971      335.978      363.322      120.362        0.075        0.041       25.940        9.865        0.145      341.588       16.405      864.381
07/24/2014  05:12:00       16.831        2.498        3.956       19.998       10.133       10.555      399.903      102.680      111.408        0.046        0.031       17.015        7.891        0.215      341.645       16.503      864.384
07/24/2014  05:13:00        4.342        7.247        1.807       13.831       12.849       15.957      191.293      165.092      254.626        0.034        0.031        8.448       13.142        2.420      341.628       16.472      864.382
07/24/2014  05:14:00       -9.243      -37.199       -2.364       21.079       36.563       22.265      444.316     1336.879      495.744        0.188        0.114       38.330       20.054        0.274      341.589       16.406      864.385
07/24/2014  05:15:00        9.687      -50.181      -18.834       16.417       22.602       11.396      269.529      510.833      129.869        0.194        0.046       51.108       14.994        0.086      341.453       16.175      864.396
07/24/2014  05:16:00       -1.950      -12.293       -4.875        6.369        6.442        4.390       40.564       41.499       19.269        0.014        0.005       12.447        2.171        0.030      341.548       16.336      864.417
07/24/2014  05:17:00      -17.616        8.936       -0.029        6.532       13.266        9.833       42.666      175.992       96.689        0.035        0.016       19.753       10.046        0.259      341.540       16.322      864.430
07/24/2014  05:18:00       15.442       33.568        3.148       15.673        9.502       11.411      245.634       90.286      130.203        0.092        0.023       36.949        9.292        0.063      341.557       16.351      864.434
07/24/2014  05:19:00       27.107       27.935       -5.381       11.950       11.620        6.201      142.811      135.036       38.449        0.093        0.016       38.925        4.579        0.014      341.583       16.396      864.455
07/24/2014  05:20:00       14.857       30.475       -4.872        9.025        9.617        9.942       81.453       92.494       98.841        0.072        0.014       33.903        4.291        0.016      341.593       16.412      864.467
07/24/2014  05:21:00        1.992       37.054       -5.924        8.002       14.318        7.131       64.027      205.002       50.853        0.087        0.016       37.107        4.629        0.016      341.502       16.262      864.472
07/24/2014  05:22:00        9.261       53.749      -10.079       17.378       26.121       12.693      302.012      682.313      161.113        0.211        0.057       54.541       16.096        0.087      341.498       16.253      864.462
07/24/2014  05:23:00       27.892       68.744      -11.627       24.450       26.291       17.349      597.823      691.240      300.971        0.361        0.080       74.187       18.836        0.064      341.429       16.135      864.452
07/24/2014  05:24:00       14.913       77.581      -12.553       17.398       15.712        8.713      302.698      246.879       75.913        0.351        0.031       79.002        7.565        0.009      341.445       16.161      864.434
07/24/2014  05:25:00       17.868       87.984       -9.015       25.997       50.695       21.831      675.844     2569.945      476.571        0.593        0.186       89.780       25.178        0.079      341.420       16.121      864.426
07/24/2014  05:26:00       29.886      150.298      -28.951       24.428       34.122       14.359      596.719     1164.338      206.170        1.314        0.098      153.240       16.308        0.011      341.431       16.139      864.425
07/24/2014  05:27:00       15.083       95.323      -16.462       18.097       19.097       14.427      327.507      364.714      208.144        0.524        0.045       96.509       10.600        0.012      341.378       16.050      864.436
07/24/2014  05:28:00        5.767      101.966      -13.151       11.837       21.944        8.640      140.116      481.523       74.650        0.565        0.035      102.129        8.366        0.007      341.351       16.004      864.441
07/24/2014  05:29:00        6.881      157.169      -25.594       19.857       21.124        9.867      394.306      446.218       97.365        1.317        0.047      157.320        6.768        0.002      341.485       16.231      864.448
07/24/2014  05:30:00        1.335      165.906      -23.460       23.932       21.014       10.086      572.736      441.595      101.717        1.460        0.056      165.912        7.519        0.002      341.455       16.178      864.462
07/24/2014  05:31:00        0.143      125.023      -16.629       16.222       15.059        8.777      263.140      226.789       77.029        0.824        0.028      125.023        3.988        0.001      341.361       16.020      864.480
07/24/2014  05:32:00       -8.460      150.803      -22.872       21.130       20.407       10.940      446.478      416.437      119.685        1.216        0.049      151.040        7.405        0.002      341.455       16.179      864.511
07/24/2014  05:33:00      -41.120       68.531      -13.004       27.941       27.909       12.962      780.720      778.893      168.024        0.414        0.086       79.921       12.174        0.023      341.375       16.044      864.536
07/24/2014  05:34:00      -33.722       -1.327        4.311       25.745       26.164       18.121      662.798      684.531      328.373        0.142        0.084       33.748       18.096        0.288      341.212       15.769      864.550
07/24/2014  05:35:00       -8.647      -27.504       -4.381       31.274       15.984       14.669      978.032      255.483      215.193        0.115        0.072       28.832       16.600        0.331      341.106       15.589      864.551
07/24/2014  05:36:00       -2.277      -17.244       -1.073       17.363       11.836        7.105      301.472      140.099       50.475        0.040        0.025       17.393        3.909        0.051      341.113       15.600      864.549
07/24/2014  05:37:00      -15.955      -18.939        0.156       11.060       12.407       15.450      122.314      153.941      238.696        0.056        0.026       24.763        8.423        0.116      340.972       15.360      864.553
07/24/2014  05:38:00      -52.835       -0.885       -3.523       25.657       10.906       11.969      658.265      118.951      143.249        0.186        0.046       52.842       14.926        0.080      341.052       15.496      864.564
07/24/2014  05:39:00      -74.556       -7.643       -7.525       16.426       19.567       13.835      269.799      382.854      191.404        0.326        0.042       74.947       11.740        0.025      340.999       15.406      864.580
07/24/2014  05:40:00      -97.653      -14.601      -10.188       19.278       16.304       14.441      371.624      265.805      208.539        0.535        0.042       98.738       11.922        0.015      340.934       15.298      864.608
07/24/2014  05:41:00      -71.960       -9.735       -8.317       25.804       13.338       10.505      665.849      177.913      110.353        0.315        0.048       72.615        8.781        0.015      340.791       15.056      864.613
07/24/2014  05:42:00      -49.124        6.555       -6.626       23.797       18.353       12.148      566.289      336.821      147.569        0.178        0.053       49.560       13.057        0.069      340.847       15.152      864.618
07/24/2014  05:43:00      -71.375       -5.755       -4.596       29.519       24.082       13.441      871.390      579.952      180.663        0.339        0.082       71.606       12.169        0.029      340.884       15.212      864.630
07/24/2014  05:44:00      -95.464      -24.214       -7.411       16.687       16.543        9.836      278.448      273.669       96.745        0.520        0.032       98.487        9.071        0.008      340.782       15.041      864.629
07/24/2014  05:45:00      -77.454      -30.699       -3.124       12.086       13.586       11.450      146.079      184.581      131.102        0.371        0.023       83.316        9.217        0.012      340.868       15.185      864.620
07/24/2014  05:46:00      -91.418      -31.220       -4.561       13.457       23.291       10.006      181.080      542.487      100.118        0.509        0.041       96.602        4.244        0.002      340.903       15.244      864.616
07/24/2014  05:47:00      -90.627      -53.923       -5.924       53.162       30.926       18.215     2826.236      956.387      331.801        0.763        0.206      105.456       21.000        0.040      340.741       14.971      864.622
07/24/2014  05:48:00     -111.740      -37.721       -2.248       26.467       25.330       14.915      700.511      641.606      222.472        0.774        0.078      117.935       13.910        0.014      340.685       14.877      864.634
07/24/2014  05:49:00     -115.043      -43.752        0.192       21.138       22.104       14.312      446.797      488.583      204.826        0.814        0.057      123.081       12.278        0.010      340.758       14.999      864.638
07/24/2014  05:50:00     -112.467      -49.083       -2.960       28.690       24.105       15.266      823.128      581.066      233.036        0.835        0.082      122.711       10.174        0.007      340.805       15.079      864.648
07/24/2014  05:51:00      -51.639      -50.946       -3.742       33.857       18.833       16.298     1146.289      354.690      265.623        0.352        0.088       72.540       18.316        0.064      340.867       15.183      864.651
07/24/2014  05:52:00      -64.335      -32.967       -7.052       16.658       20.560       13.312      277.496      422.726      177.202        0.308        0.044       72.290       13.182        0.033      340.956       15.334      864.661
07/24/2014  05:53:00      -45.534       -5.125       -0.337       21.478       13.657       17.421      461.285      186.514      303.492        0.153        0.048       45.822       16.337        0.127      340.806       15.080      864.659
07/24/2014  05:54:00      -61.344       -6.983       -1.533       21.997       14.869       10.052      483.849      221.087      101.041        0.231        0.040       61.740        8.060        0.017      340.670       14.851      864.650
07/24/2014  05:55:00      -58.228       -9.029       -0.034       18.887       15.202       10.537      356.707      231.095      111.031        0.209        0.035       58.924       10.281        0.030      340.684       14.874      864.647
07/24/2014  05:56:00      -69.282      -35.191       -1.062       24.222       21.304       11.828      586.685      453.877      139.899        0.361        0.059       77.707       11.334        0.021      340.635       14.791      864.637
07/24/2014  05:57:00     -101.224      -39.925       -3.183       21.511       22.450       11.505      462.724      503.987      132.367        0.647        0.055      108.813        8.642        0.006      340.597       14.728      864.636
07/24/2014  05:58:00      -74.573      -12.366       -2.262       28.581       26.922       16.511      816.853      724.790      272.620        0.377        0.091       75.591       12.380        0.027      340.522       14.599      864.630
07/24/2014  05:59:00      -86.393      -47.370       -4.647       41.358       30.503       15.524     1710.517      930.440      240.994        0.630        0.144       98.527       15.794        0.026      340.533       14.620      864.625
07/24/2014  06:00:00     -117.634      -45.453       -4.639       27.604       23.402       15.698      761.956      547.669      246.422        0.874        0.078      126.110        7.983        0.004      340.496       14.554      864.628
07/24/2014  06:01:00      -92.416      -37.289       -3.539       29.518       32.216       17.302      871.319     1037.878      299.351        0.608        0.110       99.656       17.107        0.029      340.548       14.646      864.630
07/24/2014  06:02:00      -85.571      -18.319       -5.690       25.607       27.755       19.411      655.694      770.355      376.768        0.475        0.090       87.510       16.648        0.036      340.541       14.633      864.648
07/24/2014  06:03:00      -75.056      -15.348       -4.372       27.126       16.376       12.181      735.813      268.160      148.374        0.352        0.058       76.609       11.202        0.021      340.560       14.665      864.656
07/24/2014  06:04:00      -70.187      -10.010       -1.178       37.235       15.723       12.078     1386.449      247.200      145.883        0.340        0.089       70.897       16.802        0.056      340.508       14.576      864.656
07/24/2014  06:05:00      -54.506      -17.838       -1.193       25.504       19.632       11.942      650.431      385.429      142.603        0.223        0.059       57.351       12.664        0.049      340.511       14.581      864.667
07/24/2014  06:06:00      -58.958      -23.438       -3.851       20.901       16.126       11.897      436.832      260.039      141.550        0.244        0.042       63.446       10.850        0.029      340.567       14.677      864.678
07/24/2014  06:07:00      -76.472      -33.362       -1.371       18.887       19.547       13.030      356.710      382.094      169.786        0.394        0.045       83.433        7.905        0.009      340.595       14.723      864.696
07/24/2014  06:08:00      -77.882      -37.017       -6.702       20.565       25.079       12.623      422.922      628.962      159.333        0.435        0.061       86.231        9.412        0.012      340.578       14.695      864.715
07/24/2014  06:09:00      -75.514      -22.355       -5.903       33.268       25.201       16.399     1106.782      635.084      268.942        0.412        0.101       78.753       16.431        0.044      340.431       14.446      864.730
07/24/2014  06:10:00      -63.959      -22.067       -0.899       34.194       19.500       14.147     1169.257      380.262      200.148        0.316        0.087       67.658       11.879        0.031      340.408       14.408      864.728
07/24/2014  06:11:00      -70.554       -0.802       -6.344       22.663       19.526       12.508      513.617      381.255      156.452        0.303        0.053       70.558        8.555        0.015      340.436       14.456      864.731
07/24/2014  06:12:00      -78.914      -22.106      -12.814       18.487       23.408       14.596      341.770      547.919      213.054        0.399        0.055       81.951       10.697        0.017      340.450       14.479      864.735
07/24/2014  06:13:00      -85.231       20.200      -16.555       23.926       39.358       17.158      572.441     1549.049      294.409        0.518        0.121       87.593       18.327        0.044      340.650       14.817      864.733
07/24/2014  06:14:00      -74.271       21.246      -11.403       34.658       31.574       20.219     1201.146      996.905      408.794        0.435        0.130       77.250       14.182        0.034      340.942       15.311      864.724
07/24/2014  06:15:00      -57.467      -10.258       -6.746       21.685       25.986       17.791      470.232      675.297      316.512        0.246        0.073       58.375       14.383        0.061      340.862       15.176      864.723
07/24/2014  06:16:00      -52.630       -4.349       -5.187       21.351       24.929       15.724      455.861      621.467      247.252        0.207        0.066       52.809       11.949        0.051      340.950       15.325      864.723
07/24/2014  06:17:00      -57.113      -15.776      -14.692       16.213       10.808       10.072      262.853      116.815      101.445        0.210        0.024       59.252        5.056        0.007      340.865       15.179      864.738
07/24/2014  06:18:00      -80.179      -22.845      -15.036       12.846       14.650       12.811      165.021      214.631      164.115        0.386        0.027       83.370        7.600        0.008      340.703       14.908      864.741
07/24/2014  06:19:00      -79.799      -18.852       -9.938       22.710       17.257        9.667      515.753      297.795       93.448        0.386        0.045       81.996        5.788        0.005      340.632       14.787      864.754
07/24/2014  06:20:00      -78.821      -14.197       -6.566       16.893       15.447        9.978      285.385      238.597       99.570        0.354        0.031       80.089        7.540        0.009      340.596       14.726      864.771
07/24/2014  06:21:00      -76.318      -10.777      -13.155       23.626       14.638        9.294      558.211      214.275       86.376        0.349        0.043       77.075        8.380        0.012      340.559       14.664      864.802
07/24/2014  06:22:00      -61.653       -7.238       -7.327       18.483       11.047       12.247      341.604      122.029      149.980        0.226        0.031       62.076       12.137        0.038      340.553       14.653      864.821
07/24/2014  06:23:00      -89.013      -18.009       -7.404       22.196       17.046       10.347      492.675      290.575      107.057        0.460        0.045       90.816       11.601        0.016      340.636       14.793      864.839
07/24/2014  06:24:00      -92.449      -20.329       -7.752       17.104       18.126       11.740      292.548      328.542      137.820        0.489        0.038       94.658        5.398        0.003      340.739       14.969      864.853
07/24/2014  06:25:00      -93.349      -12.064       -6.516       15.703       20.173       11.971      246.594      406.951      143.314        0.485        0.040       94.125        5.712        0.004      340.690       14.885      864.875
07/24/2014  06:26:00      -78.117      -39.699       -5.993       24.250       16.789       13.662      588.062      281.882      186.653        0.439        0.053       87.626       12.162        0.019      340.789       15.052      864.877
07/24/2014  06:27:00      -69.368      -21.289       -3.902       25.223       20.640       15.949      636.204      426.021      254.378        0.330        0.066       72.561       12.202        0.028      340.822       15.108      864.876
07/24/2014  06:28:00      -71.167      -47.457       -5.571       26.020       21.771       12.251      677.016      473.985      150.082        0.432        0.065       85.539        7.342        0.007      341.039       15.476      864.880
07/24/2014  06:29:00      -83.671      -47.208       -2.605       27.076       26.252       16.270      733.096      689.189      264.699        0.546        0.084       96.070       10.950        0.013      341.021       15.444      864.890
07/24/2014  06:30:00      -56.052      -56.005        7.861       30.879       23.157       15.888      953.510      536.230      252.420        0.404        0.087       79.237       13.057        0.027      341.034       15.467      864.892
07/24/2014  06:31:00      -73.749      -70.826       -1.152       43.202       42.168       16.536     1866.387     1778.122      273.438        0.719        0.196      102.251       17.743        0.030      341.066       15.520      864.890
07/24/2014  06:32:00      -95.996      -95.726        2.876       56.064       37.983       29.195     3143.121     1442.677      852.375        1.191        0.272      135.568       28.442        0.044      340.963       15.347      864.894
07/24/2014  06:33:00      -63.616      -64.945        5.366       54.056       34.105       26.119     2922.061     1163.168      682.227        0.653        0.238       90.911       33.232        0.134      341.013       15.432      864.902
07/24/2014  06:34:00     -111.314      -71.328       -0.328       29.466       28.840       20.088      868.259      831.721      403.508        0.979        0.105      132.206       14.540        0.012      341.062       15.516      864.910
07/24/2014  06:35:00      -99.749      -46.073       -1.004       28.022       16.158       15.385      785.226      261.084      236.698        0.668        0.064      109.875       15.991        0.021      341.133       15.635      864.908
07/24/2014  06:36:00      -91.439      -37.499       -3.504       29.497       19.585       15.923      870.058      383.581      253.533        0.564        0.075       98.829       17.934        0.033      341.126       15.623      864.913
07/24/2014  06:37:00      -79.663      -29.145       -2.222       31.938       22.235       11.765     1020.020      494.398      138.409        0.443        0.083       84.827       13.146        0.024      341.136       15.639      864.927
07/24/2014  06:38:00      -73.055      -25.027        0.083       52.323       24.337       17.881     2737.671      592.272      319.726        0.481        0.182       77.223       22.050        0.082      341.139       15.646      864.945
07/24/2014  06:39:00      -50.918      -19.713        4.327       29.892       30.018       15.442      893.532      901.074      238.464        0.252        0.102       54.601       16.305        0.089      341.198       15.745      864.949
07/24/2014  06:40:00      -87.008        9.943       -2.872       15.736       20.695       13.625      247.632      428.285      185.644        0.427        0.043       87.574        8.370        0.009      341.151       15.666      864.972
07/24/2014  06:41:00     -124.174      -15.337      -11.421       29.064       16.623       14.426      844.721      276.314      208.103        0.856        0.066      125.118        9.174        0.005      341.203       15.754      864.991
07/24/2014  06:42:00      -86.197      -19.940       -6.640       42.928       32.044       19.439     1842.843     1026.791      377.860        0.556        0.162       88.473       19.645        0.049      341.177       15.707      864.993
07/24/2014  06:43:00      -92.670       -3.728      -11.223       18.030       30.748       16.720      325.077      945.467      279.546        0.514        0.078       92.745        7.858        0.007      341.260       15.848      865.007
07/24/2014  06:44:00      -93.164       -8.503       -5.483       21.270       17.039       11.714      452.421      290.344      137.210        0.483        0.044       93.551       10.643        0.013      341.238       15.813      865.018
07/24/2014  06:45:00     -111.624        6.431       -9.770       20.535       22.697       17.940      421.666      515.157      321.852        0.693        0.063      111.809       13.263        0.014      341.325       15.959      865.022
07/24/2014  06:46:00      -56.385      -18.243       -7.818       20.736       13.429       13.504      429.980      180.330      182.347        0.218        0.040       59.263       12.682        0.046      341.394       16.075      865.041
07/24/2014  06:47:00      -11.251       -8.605        0.126       14.818       18.529       14.690      219.574      343.325      215.796        0.049        0.039       14.164       12.577        0.788      341.619       16.458      865.036
07/24/2014  06:48:00      -13.847       14.067       11.446       10.993        9.689       15.556      120.840       93.876      241.986        0.049        0.023       19.739        7.383        0.140      341.778       16.727      865.046
07/24/2014  06:49:00      -42.711      -20.614       -4.552       28.878       28.497       19.122      833.930      812.054      365.668        0.214        0.101       47.425       14.970        0.100      341.461       16.189      865.068
07/24/2014  06:50:00      -38.407      -38.458      -12.494       23.962       17.710       12.594      574.170      313.632      158.605        0.208        0.052       54.352        7.043        0.017      341.389       16.067      865.067
07/24/2014  06:51:00       -6.963      -25.596        4.914       21.539       18.032       16.787      463.929      325.152      281.799        0.090        0.054       26.526       13.176        0.247      341.582       16.397      865.086
07/24/2014  06:52:00      -29.066      -20.042        1.512       23.566       20.526       15.281      555.352      421.314      233.515        0.123        0.061       35.306       13.292        0.142      341.517       16.284      865.093
07/24/2014  06:53:00      -21.647       -9.182        5.562       18.261       12.033       12.131      333.451      144.804      147.156        0.060        0.031       23.514       12.449        0.280      341.665       16.535      865.100
07/24/2014  06:54:00       -9.758       -2.481        9.906       12.581        8.004        8.484      158.272       64.069       71.974        0.025        0.015       10.069        6.062        0.362      341.853       16.855      865.110
07/24/2014  06:55:00       14.791      -10.366       15.107       23.393       16.787       18.702      547.245      281.792      349.754        0.087        0.059       18.062       14.384        0.634      342.139       17.340      865.110
07/24/2014  06:56:00        4.442       -1.267       26.893       14.679       17.782       14.641      215.460      316.198      214.359        0.075        0.037        4.619       10.814        5.481      342.272       17.567      865.120
07/24/2014  06:57:00        5.301      -38.248       -4.183       21.271       31.521       21.292      452.466      993.552      453.364        0.170        0.095       38.613       16.579        0.184      341.769       16.712      865.134
07/24/2014  06:58:00        9.619        9.443       29.337       15.104       15.524       14.205      228.116      241.002      201.784        0.086        0.034       13.479        5.130        0.145      342.120       17.308      865.160
07/24/2014  06:59:00        0.146      -12.413       10.637       18.792       15.951       10.162      353.135      254.426      103.267        0.049        0.036       12.414        4.303        0.120      341.890       16.917      865.178
07/24/2014  07:00:00      -30.133      -25.849        2.075       13.722       20.354        8.041      188.295      414.302       64.658        0.112        0.033       39.701        6.013        0.023      341.735       16.655      865.191
07/24/2014  07:01:00      -20.003      -17.417       11.710       27.406       17.085       12.878      751.089      291.903      165.832        0.102        0.060       26.523       11.074        0.174      341.919       16.967      865.192
07/24/2014  07:02:00      -31.209      -33.634        3.963       23.896       19.666       14.890      571.016      386.738      221.701        0.165        0.059       45.882       14.028        0.093      341.684       16.569      865.193
07/24/2014  07:03:00      -46.368      -42.777        0.478       18.017       18.967       10.183      324.602      359.755      103.687        0.238        0.039       63.086       11.668        0.034      341.657       16.522      865.192
07/24/2014  07:04:00      -29.562      -16.961        1.627       14.102        9.840       10.229      198.867       96.824      104.623        0.078        0.020       34.082        9.251        0.074      341.775       16.722      865.192
07/24/2014  07:05:00      -39.225      -14.964       -1.113       10.572        7.566        5.663      111.776       57.247       32.066        0.098        0.010       41.982        3.968        0.009      341.750       16.681      865.202
07/24/2014  07:06:00      -20.556       -4.037        2.405        6.960        6.149        4.701       48.442       37.807       22.099        0.028        0.005       20.949        3.578        0.029      341.827       16.810      865.212
07/24/2014  07:07:00      -36.301       -2.049       -4.028        9.354        5.385        6.586       87.491       28.999       43.374        0.075        0.008       36.359        2.532        0.005      341.733       16.651      865.224
07/24/2014  07:08:00      -36.897       -7.640       -0.278        9.136        4.317        3.834       83.469       18.640       14.697        0.077        0.006       37.680        4.472        0.014      341.859       16.864      865.234
07/24/2014  07:09:00      -19.971      -17.207       -1.749        6.852        6.977        6.952       46.943       48.682       48.326        0.042        0.007       26.361        5.125        0.038      341.944       17.006      865.250
07/24/2014  07:10:00      -24.186       -9.076       -4.336        9.571        6.403        4.344       91.603       41.002       18.873        0.042        0.008       25.833        2.539        0.010      341.936       16.997      865.256
07/24/2014  07:11:00      -14.353      -10.891        1.477       15.414       10.672       13.037      237.586      113.892      169.951        0.042        0.026       18.018        7.409        0.169      342.143       17.346      865.266
07/24/2014  07:12:00      -27.265      -48.116       -0.331       15.208       13.865       11.544      231.279      192.225      133.271        0.181        0.028       55.304       11.438        0.043      341.928       16.982      865.258
07/24/2014  07:13:00      -37.428      -91.363       -0.449       11.099       25.107       10.941      123.184      630.344      119.708        0.531        0.044       98.732        5.890        0.004      341.897       16.929      865.260
07/24/2014  07:14:00      -41.217      -74.274       -5.631       13.208       35.800        9.889      174.463     1281.631       97.799        0.440        0.078       84.944       12.524        0.022      341.902       16.937      865.261
07/24/2014  07:15:00      -65.930      -34.713       -9.614       12.799       19.601        8.876      163.821      384.196       78.782        0.314        0.031       74.510        6.051        0.007      342.011       17.123      865.263
07/24/2014  07:16:00      -31.696      -79.508        0.571       26.566       38.658       18.119      705.746     1494.440      328.315        0.493        0.126       85.593       15.836        0.034      341.974       17.059      865.270
07/24/2014  07:17:00      -37.242      -34.308        0.263       28.038       33.090       20.830      786.142     1094.968      433.907        0.244        0.116       50.636       14.133        0.078      342.040       17.172      865.263
07/24/2014  07:18:00      -63.644      -73.904       -4.279       40.526       37.016       21.000     1642.349     1370.198      440.988        0.649        0.173       97.531       15.035        0.024      341.950       17.019      865.262
07/24/2014  07:19:00      -60.100      -70.444        6.420       48.907       31.383       24.287     2391.919      984.903      589.848        0.629        0.198       92.598       28.077        0.092      341.968       17.049      865.264
07/24/2014  07:20:00      -67.855      -64.119       -4.618       48.786       34.839       25.907     2380.063     1213.750      671.172        0.650        0.213       93.357       31.002        0.110      342.086       17.251      865.272
07/24/2014  07:21:00      -48.246      -32.614        9.333       31.790       27.585       20.904     1010.594      760.935      436.996        0.284        0.110       58.235       10.709        0.034      342.027       17.150      865.278
07/24/2014  07:22:00      -84.110      -37.297       -4.135       28.692       24.602       14.461      823.247      605.250      209.107        0.506        0.082       92.008       11.516        0.016      342.028       17.154      865.284
07/24/2014  07:23:00      -65.007      -29.953        1.441       22.482       28.947       12.533      505.434      837.938      157.079        0.331        0.075       71.576       14.050        0.039      342.048       17.186      865.281
07/24/2014  07:24:00      -62.376      -62.028        1.520       24.640       28.489       19.754      607.146      811.645      390.222        0.477        0.090       87.967       15.298        0.030      342.086       17.248      865.288
07/24/2014  07:25:00      -46.849      -35.047       -3.394       21.981       24.445       14.201      483.173      597.560      201.663        0.236        0.064       58.508       14.151        0.059      342.167       17.386      865.289
07/24/2014  07:26:00      -66.211      -12.326        0.054       27.496       18.253       17.754      756.017      333.167      315.207        0.297        0.070       67.349       15.000        0.050      342.090       17.255      865.291
07/24/2014  07:27:00      -81.450      -26.145       -2.270       28.543       26.496       17.361      814.699      702.017      301.387        0.457        0.091       85.543       15.715        0.034      342.070       17.221      865.306
07/24/2014  07:28:00      -76.035       19.745        1.451       20.654       20.628       17.303      426.589      425.518      299.395        0.366        0.058       78.557       15.681        0.040      342.057       17.200      865.317
07/24/2014  07:29:00      -37.919      -20.302        3.202       22.407       19.297       11.729      502.058      372.377      137.578        0.144        0.051       43.012        7.259        0.028      342.099       17.271      865.325
07/24/2014  07:30:00      -79.867      -51.297        5.044       49.387       34.299       24.917     2439.034     1176.452      620.842        0.664        0.212       94.921       19.737        0.043      342.102       17.276      865.331
07/24/2014  07:31:00      -53.851      -59.141        6.613       26.514       33.549       19.409      703.001     1125.506      376.707        0.432        0.110       79.985       18.816        0.055      342.196       17.437      865.347
07/24/2014  07:32:00      -62.846      -35.387        3.680       22.622       17.605        9.992      511.767      309.927       99.840        0.307        0.046       72.124       10.026        0.019      342.264       17.551      865.356
07/24/2014  07:33:00      -59.985       -9.124       -0.967       18.033       10.763        8.093      325.196      115.839       65.496        0.209        0.025       60.675        8.042        0.018      342.301       17.615      865.363
07/24/2014  07:34:00      -35.853        7.211       -1.114       16.363        9.681        8.310      267.750       93.724       69.049        0.088        0.022       36.571        7.821        0.046      342.503       17.958      865.382
07/24/2014  07:35:00      -64.407      -56.892       -5.864       25.799       32.814       20.656      665.577     1076.788      426.660        0.479        0.108       85.936       11.384        0.018      342.460       17.886      865.383
07/24/2014  07:36:00      -39.826      -90.590        4.932       33.044       31.461       26.631     1091.882      989.819      709.191        0.630        0.140       98.958       23.303        0.055      342.353       17.704      865.385
07/24/2014  07:37:00      -26.466       -7.021       16.573       25.770       16.909       16.786      664.102      285.899      281.754        0.113        0.062       27.382       17.224        0.396      342.784       18.438      865.394
07/24/2014  07:38:00      -52.143      -49.537        0.871       24.121       33.130       16.214      581.805     1097.572      262.889        0.356        0.097       71.923       14.291        0.039      342.405       17.792      865.394
07/24/2014  07:39:00      -39.129      -69.002        4.474       23.277       28.198       19.915      541.840      795.115      396.599        0.402        0.087       79.324       10.570        0.018      342.337       17.676      865.401
07/24/2014  07:40:00     -101.908      -65.786       -2.131       45.709       31.424       20.470     2089.324      987.466      419.039        0.911        0.175      121.297       16.510        0.019      342.415       17.811      865.396
07/24/2014  07:41:00      -71.236      -85.896        1.539       49.514       31.011       30.283     2451.654      961.660      917.031        0.839        0.217      111.592       24.263        0.047      342.413       17.806      865.388
07/24/2014  07:42:00      -63.458     -119.986        7.464       38.676       43.237       31.972     1495.847     1869.456     1022.196        1.143        0.219      135.734       23.803        0.031      342.300       17.612      865.386
07/24/2014  07:43:00      -78.239     -123.744       -5.245       50.628       42.869       31.221     2563.166     1837.753      974.741        1.342        0.269      146.403       29.173        0.040      342.320       17.647      865.385
07/24/2014  07:44:00      -62.326      -93.239        4.554       49.741       46.796       26.704     2474.163     2189.820      713.113        0.899        0.269      112.152       28.634        0.065      342.412       17.803      865.387
07/24/2014  07:45:00     -105.612      -90.155       -5.151       41.930       51.664       28.605     1758.165     2669.163      818.271        1.228        0.262      138.859       19.036        0.019      342.360       17.714      865.390
07/24/2014  07:46:00      -85.055      -59.342        8.042       47.288       43.994       27.503     2236.176     1935.469      756.419        0.787        0.246      103.710       24.323        0.055      342.567       18.067      865.400
07/24/2014  07:47:00      -81.640      -71.652        2.074       30.762       31.795       20.954      946.284     1010.895      439.057        0.710        0.120      108.624       16.355        0.023      342.486       17.929      865.404
07/24/2014  07:48:00      -19.841      -37.575       15.957       32.552       36.096       22.375     1059.636     1302.915      500.650        0.246        0.143       42.492       25.407        0.358      342.790       18.446      865.410
07/24/2014  07:49:00      -51.852      -55.545        4.605       27.417       36.400       24.550      751.666     1324.968      602.721        0.424        0.134       75.986       23.377        0.095      342.717       18.321      865.399
07/24/2014  07:50:00      -16.429      -19.429        5.345       25.819       15.961       18.246      666.644      254.744      332.903        0.096        0.063       25.444       17.398        0.468      342.908       18.646      865.399
07/24/2014  07:51:00      -51.374      -22.575       -3.351       33.875       33.955       20.961     1147.540     1152.961      439.359        0.295        0.137       56.115       14.538        0.067      342.799       18.461      865.391
07/24/2014  07:52:00      -25.744      -47.088        8.138       25.383       37.450       21.159      644.313     1402.481      447.701        0.272        0.125       53.666       16.524        0.095      342.955       18.728      865.384
07/24/2014  07:53:00      -63.873      -46.372       -0.462       47.508       25.455       16.846     2257.052      647.934      283.795        0.471        0.159       78.931       21.626        0.075      342.861       18.567      865.388
07/24/2014  07:54:00      -83.508      -40.748       -4.839       19.649       23.688       15.931      386.093      561.140      253.810        0.493        0.060       92.920        6.845        0.005      342.880       18.599      865.388
07/24/2014  07:55:00      -39.172      -43.378       -4.324       18.113       22.344       14.385      328.072      499.268      206.936        0.223        0.052       58.448       10.100        0.030      342.908       18.647      865.401
07/24/2014  07:56:00      -31.043      -52.433        4.466       26.074       31.036       21.652      679.875      963.250      468.820        0.292        0.106       60.933       18.254        0.090      343.018       18.835      865.408
07/24/2014  07:57:00       -6.949        0.745       22.867       27.232       37.327       25.508      741.570     1393.273      650.637        0.168        0.139        6.989       16.593        5.637      343.674       19.953      865.414
07/24/2014  07:58:00      -40.627       13.848       -6.509       25.102       19.081       22.119      630.131      364.070      489.256        0.168        0.074       42.922       20.930        0.238      343.256       19.240      865.426
07/24/2014  07:59:00      -26.228       58.332        8.729       32.833       38.234       24.414     1078.001     1461.857      596.029        0.365        0.157       63.957       20.575        0.103      343.414       19.508      865.426
07/24/2014  08:00:00       -7.268        5.914       17.835       28.301       50.858       23.251      800.922     2586.500      540.627        0.217        0.196        9.371       15.971        2.905      343.675       19.955      865.433
07/24/2014  08:01:00      -51.024       -6.134        6.021       40.630       40.426       18.358     1650.803     1634.299      337.024        0.315        0.181       51.391       19.501        0.144      343.125       19.017      865.425
07/24/2014  08:02:00      -73.358       35.969       -9.064       34.033       20.564       14.509     1158.246      422.887      210.511        0.427        0.090       81.702        3.468        0.002      343.140       19.042      865.415
07/24/2014  08:03:00       -6.740       -1.995       17.152       24.552       30.273       23.985      602.784      916.442      575.266        0.122        0.105        7.029       17.210        5.994      343.868       20.285      865.410
07/24/2014  08:04:00      -45.357      -30.030       11.214       31.730       24.128       15.142     1006.782      582.171      229.281        0.245        0.091       54.397       13.236        0.059      343.316       19.341      865.401
07/24/2014  08:05:00      -63.763       13.439        1.541       30.736       28.843       22.336      944.705      831.910      498.901        0.326        0.114       65.163       20.529        0.099      343.370       19.435      865.403
07/24/2014  08:06:00       18.206       52.613       20.866       30.632       59.664       31.302      938.317     3559.756      979.794        0.451        0.274       55.674       36.077        0.420      344.047       20.590      865.396
07/24/2014  08:07:00       21.304      163.643      -20.382       32.204       35.953       24.230     1037.083     1292.638      587.110        1.528        0.146      165.024       16.681        0.010      343.373       19.439      865.393
07/24/2014  08:08:00       17.103       58.811        9.124       35.466       40.672       32.358     1257.837     1654.216     1047.054        0.390        0.198       61.247       24.363        0.158      343.921       20.374      865.389
07/24/2014  08:09:00       14.540       45.529        7.392       24.368       46.311       27.407      593.782     2144.667      751.149        0.291        0.174       47.794       29.026        0.369      343.855       20.261      865.378
07/24/2014  08:10:00       54.897       50.231        8.576       26.800       18.896       22.782      718.267      357.054      519.027        0.360        0.080       74.410       11.451        0.024      343.739       20.063      865.376
07/24/2014  08:11:00       11.208       51.247       49.949       28.565       36.059       32.155      815.983     1300.260     1033.919        0.420        0.158       52.458       18.280        0.121      344.074       20.635      865.369
07/24/2014  08:12:00       37.881       67.103        7.223       38.083       42.230       34.556     1450.323     1783.332     1194.122        0.521        0.221       77.057       17.107        0.049      343.907       20.349      865.368
07/24/2014  08:13:00       -8.813       78.596      -11.262       53.579       53.340       30.789     2870.760     2845.138      947.968        0.652        0.333       79.088       31.566        0.159      343.659       19.928      865.368
07/24/2014  08:14:00        9.993       53.156       36.491       65.007       33.996       32.912     4225.967     1155.757     1083.200        0.536        0.323       54.088       25.733        0.226      343.942       20.410      865.356
07/24/2014  08:15:00       10.251       25.743       14.822       35.593       27.773       30.399     1266.871      771.338      924.083        0.197        0.148       27.709       16.286        0.345      343.893       20.325      865.354
07/24/2014  08:16:00      -25.831      143.744      -11.847       28.676       77.569       29.993      822.333     6016.963      899.568        1.460        0.387      146.047       38.546        0.070      343.703       20.001      865.375
07/24/2014  08:17:00       36.991      155.777       -5.018       48.246       64.985       51.489     2327.638     4223.032     2651.072        1.743        0.460      160.109       46.154        0.083      343.909       20.351      865.388
07/24/2014  08:18:00      102.189       53.572        0.578       51.047       42.331       28.245     2605.764     1791.940      797.758        0.925        0.260      115.380       25.507        0.049      343.714       20.022      865.391
07/24/2014  08:19:00       29.198       91.845      -11.089       43.550       52.527       28.748     1896.590     2759.056      826.450        0.745        0.274       96.374       28.804        0.089      343.720       20.030      865.399
07/24/2014  08:20:00      -28.551       27.625        8.210       45.460       32.679       22.218     2066.655     1067.919      493.617        0.264        0.181       39.728       21.400        0.290      343.872       20.289      865.412
07/24/2014  08:21:00      -46.835      138.915       -9.887       40.675       60.123       32.190     1654.488     3614.733     1036.204        1.395        0.315      146.598       24.315        0.028      343.640       19.893      865.422
07/24/2014  08:22:00       -0.515      169.621      -14.445       27.330       61.129       29.378      746.915     3736.750      863.046        1.716        0.267      169.621       32.406        0.036      343.758       20.094      865.439
07/24/2014  08:23:00       25.135      215.484      -24.040       44.910       69.407       31.556     2016.911     4817.271      995.811        2.773        0.391      216.945       33.613        0.024      343.661       19.926      865.450
07/24/2014  08:24:00      -15.783      136.829       -8.368       32.899       62.072       28.250     1082.345     3852.962      798.043        1.239        0.287      137.736       28.072        0.042      343.782       20.135      865.454
07/24/2014  08:25:00       50.190       77.494       23.211       56.223       53.794       36.266     3160.988     2893.829     1315.210        0.822        0.369       92.328       30.937        0.112      344.215       20.876      865.451
07/24/2014  08:26:00        6.314       71.753       10.288       49.017       59.889       40.222     2402.660     3586.654     1617.791        0.645        0.380       72.031       37.954        0.278      344.216       20.879      865.450
07/24/2014  08:27:00       -4.545      131.941      -17.716       46.463       55.218       33.429     2158.843     3048.977     1117.488        1.203        0.316      132.020       29.052        0.048      344.022       20.546      865.453
07/24/2014  08:28:00     -110.592      116.785      -20.009       51.858       70.811       37.989     2689.243     5014.195     1443.159        1.771        0.457      160.839       43.046        0.072      343.652       19.912      865.452
07/24/2014  08:29:00      -61.490       78.701       -2.211       66.254       59.468       32.486     4389.652     3536.482     1055.345        0.948        0.449       99.874       33.000        0.109      343.825       20.210      865.421
07/24/2014  08:30:00     -108.254      140.734      -23.497       68.758       75.406       35.050     4727.730     5686.115     1228.520        2.186        0.582      177.553       29.745        0.028      343.731       20.048      865.414
07/24/2014  08:31:00       33.182      214.944      -17.574       48.602      100.633       51.104     2362.116    10126.947     2611.605        3.135        0.755      217.490       60.386        0.077      343.969       20.453      865.415
07/24/2014  08:32:00        2.094      159.567      -15.030       32.813       60.543       33.037     1076.682     3665.449     1091.445        1.576        0.292      159.581       33.572        0.044      343.904       20.343      865.413
07/24/2014  08:33:00     -118.479      166.380      -25.682       60.501       55.645       33.451     3660.383     3096.420     1118.949        2.513        0.394      204.254       34.081        0.028      343.758       20.093      865.420
07/24/2014  08:34:00      -81.125       84.702      -14.134       43.862       33.349       28.556     1923.846     1112.176      815.455        0.890        0.193      117.285       26.505        0.051      343.715       20.021      865.422
07/24/2014  08:35:00      -81.727       24.964        0.453       24.384       56.204       24.449      594.572     3158.906      597.767        0.583        0.218       85.455       14.238        0.028      343.566       19.768      865.421
07/24/2014  08:36:00      -14.942      143.126       -0.333       32.460       61.514       39.598     1053.633     3784.019     1567.989        1.356        0.320      143.904       39.714        0.076      344.071       20.629      865.440
07/24/2014  08:37:00      -31.489      229.149      -17.709       56.861       64.769       41.197     3233.136     4194.981     1697.154        3.147        0.456      231.303       29.605        0.016      343.937       20.399      865.450
07/24/2014  08:38:00      -52.067       98.866       -1.764       32.245       44.112       32.499     1039.762     1945.851     1056.169        0.826        0.202      111.739       25.082        0.050      343.854       20.259      865.479
07/24/2014  08:39:00      -33.631       82.189       -3.874       47.336       54.398       36.233     2240.691     2959.144     1312.859        0.721        0.326       88.804       32.071        0.130      344.083       20.651      865.472
07/24/2014  08:40:00     -120.998       34.968      -27.063       71.053       64.519       34.539     5048.532     4162.732     1192.934        1.350        0.520      125.949       30.521        0.059      343.813       20.188      865.472
07/24/2014  08:41:00     -158.105      -56.279      -16.055       52.641       56.144       36.264     2771.093     3152.127     1315.046        1.783        0.362      167.823       19.576        0.014      343.717       20.024      865.470
07/24/2014  08:42:00      -50.093       20.153        4.904       85.392       43.702       35.250     7291.863     1909.893     1242.575        0.669        0.522       53.995       41.534        0.592      344.311       21.040      865.467
07/24/2014  08:43:00       -5.715       84.101       -5.937       33.431       54.998       29.356     1117.618     3024.753      861.789        0.607        0.250       84.295       30.696        0.133      344.418       21.223      865.468
07/24/2014  08:44:00      -12.013       81.129        0.882       44.251       37.562       29.047     1958.167     1410.924      843.722        0.547        0.211       82.014        4.435        0.003      344.486       21.339      865.467
07/24/2014  08:45:00      -30.075       58.108        0.090       23.714       50.921       27.940      562.376     2592.936      780.631        0.411        0.197       65.430       16.136        0.061      344.212       20.870      865.458
07/24/2014  08:46:00       -6.770       89.271        1.404       24.709       49.132       28.958      610.546     2413.914      838.563        0.594        0.193       89.528       29.335        0.107      344.500       21.363      865.450
07/24/2014  08:47:00      115.962       91.168        8.219       52.418       46.063       40.571     2747.613     2121.838     1645.978        1.417        0.326      147.509       25.319        0.029      344.116       20.706      865.448
07/24/2014  08:48:00       60.399       63.927       46.262       36.362       26.976       30.823     1322.175      727.731      950.051        0.644        0.150       87.947       12.732        0.021      344.314       21.044      865.442
07/24/2014  08:49:00      103.392       68.588       21.616       58.156       35.611       39.914     3382.126     1268.126     1593.139        1.105        0.312      124.073       22.642        0.033      344.153       20.769      865.454
07/24/2014  08:50:00      133.054       74.607       57.641       63.982       44.934       43.774     4093.664     2019.034     1916.139        1.731        0.401      152.544       26.580        0.030      343.989       20.486      865.456
07/24/2014  08:51:00       44.641       58.857       60.512       55.150       48.826       34.495     3041.577     2383.992     1189.879        0.787        0.331       73.871       31.603        0.183      344.436       21.253      865.455
07/24/2014  08:52:00      124.649      102.306       40.208       65.288       43.877       49.607     4262.578     1925.217     2460.892        1.813        0.432      161.257       40.026        0.062      344.067       20.621      865.441
07/24/2014  08:53:00       84.425       80.413       61.701       54.186       43.569       47.178     2936.145     1898.220     2225.738        1.223        0.353      116.593       28.919        0.062      344.007       20.521      865.446
07/24/2014  08:54:00       39.996       14.095       33.726       26.365       45.303       24.939      695.121     2052.390      621.971        0.315        0.168       42.407       25.227        0.354      344.248       20.934      865.430
07/24/2014  08:55:00       61.509       71.203       75.872       53.896       41.459       28.990     2904.747     1718.873      840.405        1.004        0.273       94.092        8.388        0.008      344.450       21.277      865.434
07/24/2014  08:56:00       11.627       29.290       55.987       60.110       58.436       33.073     3613.170     3414.734     1093.835        0.612        0.406       31.513       35.347        1.258      344.631       21.587      865.415
07/24/2014  08:57:00       80.603      120.987      121.798      103.292       79.974       67.210    10669.270     6395.870     4517.137        2.877        1.079      145.378       67.256        0.214      344.281       20.986      865.410
07/24/2014  08:58:00      126.128       71.582       17.849       81.759       60.280       38.332     6684.544     3633.726     1469.328        1.657        0.589      145.025       19.708        0.018      344.248       20.931      865.405
07/24/2014  08:59:00       20.261       -0.643       28.374       54.610       75.025       52.525     2982.255     5628.820     2758.837        0.629        0.568       20.272       55.822        7.583      344.554       21.455      865.409
07/24/2014  09:00:00       39.345      -17.737       30.046       48.443       72.021       37.917     2346.703     5187.083     1437.693        0.587        0.449       43.158       38.601        0.800      344.711       21.723      865.403
07/24/2014  09:01:00      107.503       55.728       63.625      100.889       62.964       56.983    10178.491     3964.472     3247.077        1.805        0.870      121.089       56.548        0.218      344.469       21.307      865.412
07/24/2014  09:02:00      101.233       42.672       26.674       74.397       52.377       46.665     5534.970     2743.337     2177.578        1.162        0.523      109.859       30.300        0.076      344.304       21.028      865.415
07/24/2014  09:03:00       64.213       62.819        6.356       41.549       34.998       38.623     1726.344     1224.827     1491.774        0.628        0.222       89.831       25.462        0.080      344.327       21.067      865.403
07/24/2014  09:04:00       52.012      100.679       -7.348       35.784       38.306       27.930     1280.514     1467.344      780.059        0.821        0.176      113.321       18.898        0.028      344.207       20.861      865.393
07/24/2014  09:05:00       13.137       52.332        0.312       39.239       32.028       27.980     1539.664     1025.773      782.877        0.313        0.167       53.955       20.004        0.137      344.618       21.565      865.384
07/24/2014  09:06:00       75.077       61.080       -5.668       41.153       34.101       30.018     1693.592     1162.871      901.089        0.658        0.188       96.785       20.496        0.045      344.497       21.358      865.363
07/24/2014  09:07:00       27.678       65.191       -1.622       27.498       32.360       35.280      756.156     1047.184     1244.683        0.403        0.152       70.823       17.553        0.061      344.524       21.405      865.355
07/24/2014  09:08:00       45.206       22.522       12.989       29.217       23.321       25.657      853.643      543.873      658.297        0.239        0.103       50.506       14.683        0.085      344.360       21.125      865.339
07/24/2014  09:09:00      -20.240       -7.105       -1.976       35.717       13.844       16.616     1275.694      191.655      276.105        0.110        0.087       21.451       10.509        0.240      344.195       20.842      865.322
07/24/2014  09:10:00      -60.116       -9.521       -1.564       31.554       29.036       19.679      995.675      843.090      387.251        0.297        0.111       60.866       20.488        0.113      344.145       20.756      865.301
07/24/2014  09:11:00      -38.519       -0.965        9.834       23.355       33.980       24.617      545.461     1154.627      605.995        0.194        0.115       38.531       15.140        0.154      344.463       21.300      865.293
07/24/2014  09:12:00       -5.627       37.895       69.473       22.737       46.608       39.112      516.980     2172.334     1529.759        0.526        0.211       38.310       37.573        0.962      344.900       22.048      865.287
07/24/2014  09:13:00       16.311       -1.871       31.351       53.833       59.232       37.132     2897.956     3508.462     1378.749        0.452        0.389       16.418       26.868        2.678      344.714       21.729      865.281
07/24/2014  09:14:00      106.149       93.867       63.915       90.937       59.002       55.444     8269.467     3481.254     3074.016        1.949        0.741      141.699       46.364        0.107      344.521       21.397      865.266
07/24/2014  09:15:00      153.460      103.808       42.082       83.805       55.354       55.301     7023.338     3064.117     3058.165        2.462        0.657      185.273       45.915        0.061      344.405       21.199      865.263
07/24/2014  09:16:00      140.188       88.514       17.864       69.481       66.647       53.348     4827.599     4441.832     2846.001        1.996        0.606      165.793       24.180        0.021      344.466       21.303      865.262
07/24/2014  09:17:00       42.702       62.002       59.206       53.490       58.546       43.649     2861.215     3427.595     1905.228        0.868        0.410       75.284       19.381        0.066      345.152       22.479      865.273
07/24/2014  09:18:00       40.337       23.934       55.526       50.972       52.034       42.161     2598.158     2707.506     1777.550        0.618        0.354       46.903       18.537        0.156      344.937       22.111      865.280
07/24/2014  09:19:00       69.967       20.201       24.876       68.617       49.482       39.553     4708.271     2448.486     1564.463        0.732        0.436       72.825       24.956        0.117      344.533       21.419      865.292
07/24/2014  09:20:00       83.680       72.880       51.210       44.748       42.140       39.579     2002.346     1775.794     1566.468        1.014        0.267      110.968       24.425        0.048      344.469       21.310      865.276
07/24/2014  09:21:00       59.270       51.322       52.404       46.634       33.089       28.591     2174.726     1094.910      817.427        0.649        0.204       78.402       23.066        0.087      344.536       21.426      865.278
07/24/2014  09:22:00       72.566      -98.822        1.682       63.990       64.250       51.617     4094.774     4128.096     2664.299        1.296        0.544      122.604       56.998        0.216      344.832       21.931      865.263
07/24/2014  09:23:00       55.826       88.471       80.029       58.495       54.353       57.759     3421.617     2954.269     3336.072        1.353        0.486      104.612       53.062        0.257      344.479       21.327      865.276
07/24/2014  09:24:00       26.668       28.638        1.521       24.712       20.986       24.275      610.698      440.430      589.263        0.159        0.082       39.132        2.800        0.005      344.304       21.029      865.267
07/24/2014  09:25:00       33.173       35.397       11.111       27.908       21.268       21.489      778.873      452.327      461.757        0.208        0.085       48.512       17.772        0.134      344.358       21.122      865.264
07/24/2014  09:26:00       26.209       59.030       57.165       35.084       54.963       46.838     1230.859     3020.949     2193.813        0.694        0.322       64.587       41.768        0.418      344.881       22.014      865.256
07/24/2014  09:27:00       43.903       40.563       42.832       45.736       43.106       50.239     2091.799     1858.095     2523.971        0.594        0.324       59.773       40.142        0.451      344.708       21.720      865.262
07/24/2014  09:28:00       12.763       16.968       27.948       40.346       37.287       27.571     1627.805     1390.328      760.161        0.250        0.189       21.233       17.400        0.672      344.828       21.924      865.241
07/24/2014  09:29:00       69.397       63.854       59.157       47.143       36.643       32.914     2222.480     1342.702     1083.311        0.852        0.232       94.304       12.954        0.019      344.554       21.456      865.223
07/24/2014  09:30:00       12.434        9.287       34.637       27.824       39.164       25.234      774.155     1533.782      636.731        0.219        0.147       15.520       12.555        0.654      345.265       22.672      865.207
07/24/2014  09:31:00       15.550        0.400       35.750       31.442       58.262       41.902      988.622     3394.448     1755.819        0.383        0.307       15.555       46.593        8.973      345.094       22.381      865.196
07/24/2014  09:32:00       17.931      -31.998       30.094       40.956       56.497       31.517     1677.411     3191.905      993.314        0.406        0.293       36.680       29.846        0.662      345.258       22.660      865.175
07/24/2014  09:33:00        4.085       -3.883       31.231       23.504       46.630       36.075      552.451     2174.342     1301.376        0.252        0.201        5.636       20.349       13.035      345.515       23.101      865.166
07/24/2014  09:34:00       44.211       33.280       37.244       88.200       48.110       39.814     7779.298     2314.556     1585.137        0.806        0.584       55.337       27.866        0.254      345.660       23.349      865.161
07/24/2014  09:35:00      124.846       88.387       15.561       47.190       29.771       34.502     2226.892      886.322     1190.408        1.397        0.215      152.966       19.735        0.017      344.467       21.306      865.152
07/24/2014  09:36:00      139.626       83.641       53.640       98.226       71.728       63.978     9648.290     5144.837     4093.143        2.412        0.944      162.762       57.708        0.126      344.624       21.572      865.148
07/24/2014  09:37:00      105.619       93.025       31.922       63.307       48.315       72.433     4007.828     2334.336     5246.574        1.621        0.579      140.745       36.379        0.067      344.643       21.608      865.142
07/24/2014  09:38:00      170.509      103.679       25.584       76.738       55.152       53.062     5888.671     3041.720     2815.545        2.611        0.587      199.556       42.938        0.046      344.587       21.509      865.152
07/24/2014  09:39:00      156.078      108.841       38.417       58.431       42.556       46.308     3414.171     1811.006     2144.390        2.252        0.368      190.281       36.622        0.037      344.526       21.406      865.146
07/24/2014  09:40:00       98.720       64.759       15.036       47.132       35.443       36.409     2221.446     1256.180     1325.633        0.948        0.240      118.065       24.972        0.045      344.509       21.377      865.148
07/24/2014  09:41:00       48.409        9.811       36.263       40.564       61.041       50.050     1645.425     3725.959     2505.052        0.581        0.394       49.393       23.170        0.220      344.890       22.032      865.136
07/24/2014  09:42:00        1.142       45.002       37.993       46.448       46.251       42.203     2157.434     2139.176     1781.127        0.477        0.304       45.017       27.130        0.363      345.574       23.204      865.132
07/24/2014  09:43:00       -0.205       39.743       59.475       32.112       48.665       39.086     1031.168     2368.264     1527.721        0.502        0.246       39.744       34.862        0.769      345.847       23.671      865.135
07/24/2014  09:44:00      133.631      121.235        4.647       43.434       25.575       42.676     1886.515      654.082     1821.241        1.847        0.218      180.430       14.361        0.006      344.552       21.452      865.127
07/24/2014  09:45:00       15.203       43.674        3.617       28.531       46.342       31.561      814.036     2147.553      996.110        0.305        0.198       46.245       34.494        0.556      345.000       22.220      865.121
07/24/2014  09:46:00       58.897       70.559       35.140       47.630       48.094       47.644     2268.616     2313.028     2269.955        0.827        0.343       91.910       19.466        0.045      345.179       22.524      865.107
07/24/2014  09:47:00      110.334      109.438       59.111      101.130       69.323       65.739    10227.249     4805.642     4321.678        2.350        0.968      155.403       68.669        0.195      345.070       22.336      865.118
07/24/2014  09:48:00      120.633       65.293       39.600       86.724       63.868       48.912     7521.097     4079.149     2392.403        1.719        0.700      137.169       29.920        0.048      345.071       22.338      865.102
07/24/2014  09:49:00      237.016       95.289       20.677       85.268       70.427       48.186     7270.656     4959.937     2321.905        4.012        0.728      255.453       28.387        0.012      344.587       21.507      865.095
07/24/2014  09:50:00      176.972      104.889       17.781       95.507       67.969       53.251     9121.641     4619.804     2835.691        2.960        0.829      205.720       33.602        0.027      344.875       22.002      865.085
07/24/2014  09:51:00      182.994       52.615       35.971       81.591       60.821       62.939     6657.049     3699.236     3961.341        2.593        0.716      190.407       39.521        0.043      344.819       21.906      865.078
07/24/2014  09:52:00       96.823       24.902       33.261       66.040       67.960       39.824     4361.270     4618.601     1585.918        1.083        0.528       99.974       28.187        0.079      345.031       22.271      865.091
07/24/2014  09:53:00       97.713       72.852        2.180       39.861       43.417       31.544     1588.892     1885.072      995.009        0.966        0.223      121.883       14.081        0.013      344.803       21.882      865.072
07/24/2014  09:54:00       75.747      -30.564       29.270       59.198       81.738       45.026     3504.403     6681.068     2027.326        0.987        0.611       81.681       34.653        0.180      345.325       22.774      865.076
07/24/2014  09:55:00       11.580       69.908       99.974       32.826       50.261       43.124     1077.555     2526.177     1859.645        1.024        0.273       70.860       39.108        0.305      345.267       22.677      865.095
07/24/2014  09:56:00       25.621       58.084       74.789       49.556       43.308       36.815     2455.808     1875.625     1355.328        0.765        0.284       63.484       36.942        0.339      345.002       22.221      865.087
07/24/2014  09:57:00       59.617      105.616       95.193       95.528       74.877       59.505     9125.678     5606.628     3540.832        2.102        0.914      121.280       42.724        0.124      345.347       22.812      865.091
07/24/2014  09:58:00      137.953       88.086       44.545       89.275       66.158       45.484     7969.967     4376.852     2068.775        2.159        0.721      163.677       46.426        0.080      345.062       22.323      865.087
07/24/2014  09:59:00      120.768      141.717      135.250       99.690       84.937       85.358     9938.193     7214.282     7286.022        3.869        1.222      186.195       62.254        0.112      345.152       22.475      865.083
07/24/2014  10:00:00      146.228      109.341      129.187      100.027       88.041       62.673    10005.409     7751.187     3927.934        3.585        1.084      182.588       56.362        0.095      344.974       22.171      865.089
07/24/2014  10:01:00       36.471       39.488      101.345       59.675       84.952       54.966     3561.089     7216.875     3021.216        1.348        0.690       53.754       60.334        1.260      345.568       23.191      865.093
07/24/2014  10:02:00       57.638      -86.177       33.555       61.017       95.423       58.729     3723.133     9105.594     3449.143        1.407        0.814      103.676       51.738        0.249      345.493       23.062      865.084
07/24/2014  10:03:00       84.011       -8.521       49.027       64.089       63.143       50.424     4107.423     3987.082     2542.543        1.008        0.532       84.442       51.910        0.378      345.157       22.488      865.084
07/24/2014  10:04:00       73.117      130.444      130.322      102.236       91.866       74.847    10452.247     8439.313     5602.014        3.191        1.225      149.538       70.629        0.223      345.272       22.682      865.060
07/24/2014  10:05:00       54.539       -0.196       68.142       82.270      112.137       80.379     6768.426    12574.682     6460.778        1.671        1.290       54.539       87.794        2.591      345.226       22.604      865.058
07/24/2014  10:06:00       76.868      -18.780       50.945       96.502      117.488       67.018     9312.687    13803.464     4491.349        1.823        1.380       79.129       91.778        1.345      345.212       22.579      865.062
07/24/2014  10:07:00       48.803       16.623       70.008       57.374       63.115       47.693     3291.824     3983.513     2274.649        0.855        0.477       51.557       44.540        0.746      345.535       23.137      865.053
07/24/2014  10:08:00       40.461       54.335       80.986       55.596       70.366       44.537     3090.889     4951.305     1983.519        1.058        0.501       67.745       34.390        0.258      345.693       23.405      865.026
07/24/2014  10:09:00      128.139       74.226       69.249      107.930       86.305       51.964    11648.792     7448.594     2700.295        2.426        1.090      148.085       39.315        0.070      345.378       22.865      865.030
07/24/2014  10:10:00      116.308       98.414       30.987       57.688       55.067       52.895     3327.962     3032.411     2797.880        1.666        0.458      152.358       11.987        0.006      345.222       22.597      865.033
07/24/2014  10:11:00       74.732       70.770       33.235       78.331       58.339       46.896     6135.680     3403.474     2199.248        1.172        0.587      102.924       17.788        0.030      345.455       22.997      865.010
07/24/2014  10:12:00      -29.053       24.393        4.274       45.729       21.935       34.046     2091.174      481.152     1159.133        0.259        0.187       37.936       32.522        0.735      345.511       23.094      865.001
07/24/2014  10:13:00       21.865       36.508       57.466       51.931       47.173       49.058     2696.869     2225.299     2406.667        0.622        0.366       42.555       46.531        1.196      345.789       23.570      864.987
07/24/2014  10:14:00      134.244       95.578       44.853      100.758       60.086       56.666    10152.273     3610.361     3211.079        2.307        0.849      164.793       21.361        0.017      345.390       22.885      864.963
07/24/2014  10:15:00      194.532      137.295       27.014       97.387       64.418       64.826     9484.268     4149.633     4202.453        3.763        0.892      238.102       29.388        0.015      345.268       22.675      864.954
07/24/2014  10:16:00      158.895       77.541       11.857       79.772       57.925       42.776     6363.636     3355.318     1829.796        2.147        0.577      176.806       26.135        0.022      345.342       22.800      864.962
07/24/2014  10:17:00      116.236       88.315       14.194       77.849       82.010       47.064     6060.488     6725.599     2215.054        1.825        0.750      145.981       34.712        0.057      345.769       23.536      864.953
07/24/2014  10:18:00      194.555      131.841       31.824       84.260       55.346       62.887     7099.780     3063.136     3954.798        3.518        0.706      235.019       25.004        0.011      345.402       22.904      864.957
07/24/2014  10:19:00       98.610       62.147       59.752      108.379       79.823       68.400    11746.067     6371.782     4678.531        1.997        1.140      116.560       70.083        0.362      345.816       23.616      864.946
07/24/2014  10:20:00       99.624      111.965       55.521       96.295       69.421       79.111     9272.656     4819.287     6258.589        2.294        1.018      149.870       67.305        0.202      345.493       23.060      864.963
07/24/2014  10:21:00      132.978       64.956       50.650      104.820       66.399       64.670    10987.238     4408.879     4182.263        2.202        0.979      147.994       50.200        0.115      345.356       22.828      864.981
07/24/2014  10:22:00      139.037       89.506       14.781       48.710       43.631       47.265     2372.617     1903.682     2234.015        1.703        0.326      165.356       21.915        0.018      345.136       22.449      864.987
07/24/2014  10:23:00       75.056       36.245       16.341      102.139       65.812       40.554    10432.385     4331.267     1644.636        1.181        0.820       83.350       12.555        0.023      345.219       22.591      864.973
07/24/2014  10:24:00       -0.107       -6.529       31.623       36.698       63.744       45.679     1346.771     4063.291     2086.554        0.427        0.375        6.530       45.490       48.537      345.890       23.745      864.970
07/24/2014  10:25:00       99.549       36.095       14.557       83.411       58.006       38.369     6957.476     3364.713     1472.196        1.161        0.590      105.891       40.272        0.145      345.816       23.618      864.974
07/24/2014  10:26:00      152.405       96.504       49.665       69.932       49.307       58.648     4890.463     2431.176     3439.583        2.288        0.538      180.389       48.318        0.072      345.445       22.978      864.971
07/24/2014  10:27:00      154.974       29.386       83.900       93.474       49.780       54.771     8737.435     2478.023     2999.913        2.306        0.711      157.735       49.820        0.100      345.390       22.884      864.968
07/24/2014  10:28:00       34.064       16.339       69.130       51.286       77.142       35.729     2630.280     5950.892     1276.546        0.803        0.493       37.780       34.489        0.833      345.796       23.584      864.950
07/24/2014  10:29:00        9.697       41.711       52.406       47.144       41.653       30.842     2222.527     1734.953      951.226        0.474        0.245       42.823       25.611        0.358      346.277       24.411      864.952
07/24/2014  10:30:00       59.705      164.655      -20.756       45.067       79.586       51.421     2031.026     6334.000     2644.086        2.106        0.550      175.146       42.642        0.059      345.438       22.967      864.950
07/24/2014  10:31:00       12.807      107.058      -15.535       31.521       84.553       34.575      993.581     7149.217     1195.406        1.060        0.467      107.821       35.322        0.107      345.420       22.938      864.957
07/24/2014  10:32:00        5.273       10.473       14.359       21.486       16.560       26.281      461.667      274.222      690.714        0.088        0.071       11.726       17.135        2.135      346.147       24.187      864.949
07/24/2014  10:33:00       -6.776        5.291       24.430       29.671       37.023       23.780      880.369     1370.706      565.484        0.174        0.141        8.597       21.792        6.425      345.872       23.713      864.940
07/24/2014  10:34:00       -4.328       32.001       68.559       22.958       34.276       24.733      527.061     1174.817      611.712        0.403        0.116       32.293       22.803        0.499      346.247       24.358      864.928
07/24/2014  10:35:00      120.493       59.751       47.433       84.918       59.087       61.150     7211.040     3491.302     3739.278        1.739        0.722      134.494       39.126        0.085      345.440       22.971      864.926
07/24/2014  10:36:00       84.514       45.246       40.103       64.008       60.916       49.345     4097.044     3710.814     2434.973        1.052        0.512       95.863       38.294        0.160      345.589       23.228      864.919
07/24/2014  10:37:00       27.280       45.173       78.089       60.247       71.064       56.258     3629.694     5050.148     3164.973        1.036        0.592       52.771       44.730        0.718      346.231       24.330      864.897
07/24/2014  10:38:00       71.798       44.769      108.981       89.603       74.500       59.856     8028.673     5550.190     3582.761        1.810        0.858       84.612       46.912        0.307      345.879       23.725      864.904
07/24/2014  10:39:00       61.164      -36.458       23.311       44.877       70.727       52.171     2013.904     5002.266     2721.788        0.767        0.487       71.206       44.829        0.396      345.795       23.580      864.905
07/24/2014  10:40:00        1.133      -45.142       13.823       24.752       48.183       39.097      612.667     2321.614     1528.562        0.335        0.223       45.156       39.257        0.756      346.359       24.550      864.884
07/24/2014  10:41:00       39.809     -115.838      -13.248       51.314       42.894       24.763     2633.099     1839.902      613.186        1.013        0.254      122.487       15.584        0.016      345.669       23.365      864.869
07/24/2014  10:42:00      -10.854      -49.605       66.835       51.150      105.648       41.631     2616.368    11161.433     1733.162        1.128        0.776       50.779       53.820        1.123      345.724       23.459      864.841
07/24/2014  10:43:00       20.148       12.462       51.426       59.748       77.318       44.629     3569.858     5978.023     1991.781        0.737        0.577       23.691       46.324        3.823      345.840       23.658      864.831
07/24/2014  10:44:00       63.108       50.890       88.409       93.054      119.503       81.753     8659.001    14281.030     6683.586        2.200        1.481       81.070       89.987        1.232      345.958       23.859      864.813
07/24/2014  10:45:00      167.367      108.382       80.155      107.779      100.001       82.620    11616.251    10000.254     6826.139        3.731        1.422      199.395       54.666        0.075      345.698       23.412      864.784
07/24/2014  10:46:00      135.877      106.472       99.292      113.777       76.384       70.411    12945.284     5834.517     4957.775        3.169        1.187      172.623       56.579        0.107      345.773       23.541      864.780
07/24/2014  10:47:00       51.663       31.244       46.285       82.113      100.782       58.658     6742.528    10157.040     3440.757        1.306        1.017       60.376       44.020        0.532      346.216       24.304      864.759
07/24/2014  10:48:00       18.343      121.421      133.845       63.927       81.466       53.906     4086.661     6636.786     2905.829        2.331        0.681      122.799       48.432        0.156      346.463       24.726      864.752
07/24/2014  10:49:00      136.606       93.342       97.351      103.975       75.859       60.895    10810.804     5754.549     3708.256        2.856        1.014      165.451       49.650        0.090      345.924       23.800      864.755
07/24/2014  10:50:00      144.705      158.865       75.693      110.500       76.185       68.294    12210.246     5804.172     4664.100        3.729        1.134      214.890       69.111        0.103      346.018       23.962      864.750
07/24/2014  10:51:00      153.920       97.244       22.750       67.244       52.662       50.969     4521.710     2773.246     2597.888        2.178        0.495      182.065       37.823        0.043      345.679       23.380      864.751
07/24/2014  10:52:00       80.758       55.902       32.706       66.471       46.861       45.549     4418.407     2195.915     2074.674        0.970        0.434       98.219       39.319        0.160      346.047       24.013      864.748
07/24/2014  10:53:00        1.466     -132.381        9.803       45.632       58.011       28.570     2082.256     3365.267      816.227        1.194        0.313      132.389       26.443        0.040      345.482       23.043      864.733
07/24/2014  10:54:00        3.665      -88.480       -1.848       65.066       38.944       27.558     4233.565     1516.660      759.438        0.718        0.325       88.556       24.986        0.080      345.578       23.208      864.717
07/24/2014  10:55:00      -12.875       -4.367       35.005       61.415       54.084       36.007     3771.810     2925.038     1296.535        0.470        0.400       13.596       28.696        4.455      346.004       23.939      864.708
07/24/2014  10:56:00      -94.004      -88.312       -5.817       56.326       43.818       28.490     3172.610     1920.021      811.662        1.129        0.295      128.979       16.193        0.016      345.609       23.260      864.694
07/24/2014  10:57:00      -88.992      -97.194       -1.291       47.437       45.676       29.831     2250.248     2086.295      889.894        1.130        0.261      131.781       30.012        0.052      345.464       23.013      864.674
07/24/2014  10:58:00      -47.430      -26.905       21.941       50.356       38.343       29.842     2535.696     1470.203      890.526        0.417        0.245       54.530       25.198        0.214      345.868       23.708      864.663
07/24/2014  10:59:00      -34.125      -16.171       18.526       55.125       34.732       29.645     3038.815     1206.338      878.823        0.345        0.256       37.762       35.255        0.872      346.434       24.680      864.661
07/24/2014  11:00:00      -47.584       21.129      -10.814       37.816       46.575       47.302     1430.071     2169.191     2237.472        0.433        0.292       52.064       36.336        0.487      346.061       24.039      864.651
07/24/2014  11:01:00        4.487       20.458       73.883       35.598       54.380       48.219     1267.194     2957.218     2325.084        0.622        0.327       20.945       39.142        3.492      346.466       24.735      864.648
07/24/2014  11:02:00       83.576       60.203       63.661       65.884       67.915       47.148     4340.733     4612.489     2222.960        1.292        0.559      103.001       25.563        0.062      346.007       23.944      864.640
07/24/2014  11:03:00       19.626       11.612       31.673       38.966       53.551       38.234     1518.369     2867.681     1461.832        0.368        0.292       22.804       36.132        2.511      346.226       24.321      864.619
07/24/2014  11:04:00       51.502      -63.073       20.417       60.348       78.828       52.876     3641.884     6213.897     2795.856        0.985        0.633       81.429       37.937        0.217      346.167       24.220      864.612
07/24/2014  11:05:00       45.353      148.108      155.487       78.720      103.650      100.261     6196.861    10743.296    10052.333        3.758        1.350      154.896       92.411        0.356      346.273       24.401      864.593
07/24/2014  11:06:00       98.052       82.397       65.153       94.573       62.912       55.563     8944.030     3957.915     3087.233        1.832        0.799      128.075       33.252        0.067      345.951       23.848      864.607
07/24/2014  11:07:00       68.777       80.461       90.553       88.663       67.135       59.260     7861.048     4507.061     3511.776        1.764        0.794      105.851       52.101        0.242      346.354       24.541      864.605
07/24/2014  11:08:00      170.465       96.355       31.441       98.626       68.838       61.899     9727.178     4738.608     3831.506        2.881        0.915      195.813       55.199        0.079      346.001       23.933      864.601
07/24/2014  11:09:00      250.577      163.334        7.663       86.890       68.265       64.286     7549.818     4660.172     4132.659        5.293        0.817      299.110       40.834        0.019      345.607       23.254      864.614
07/24/2014  11:10:00      120.283       74.676       47.530       92.694       79.458       72.215     8592.137     6313.577     5215.019        2.121        1.006      141.579       54.385        0.148      345.960       23.863      864.622
07/24/2014  11:11:00       87.257       80.194      101.828       66.857       61.589       54.014     4469.821     3793.205     2917.529        1.779        0.559      118.511       39.438        0.111      346.140       24.173      864.630
07/24/2014  11:12:00      127.201       56.344       28.126       81.078       48.883       50.503     6573.588     2389.577     2550.582        1.583        0.576      139.121       18.224        0.017      346.099       24.103      864.629
07/24/2014  11:13:00      166.940       87.236       38.994       94.424       72.229       48.045     8915.967     5216.986     2308.354        2.672        0.822      188.359       32.203        0.029      345.939       23.826      864.612
07/24/2014  11:14:00       86.803       93.224      117.416       97.378       71.791       60.360     9482.490     5154.016     3643.295        2.414        0.914      127.379       51.989        0.167      346.243       24.349      864.607
07/24/2014  11:15:00      168.615       88.918       31.540       66.116       50.340       49.869     4371.307     2534.091     2486.935        2.336        0.470      190.624       36.242        0.036      345.717       23.446      864.606
07/24/2014  11:16:00      108.610       63.288       30.482       72.862       61.972       54.652     5308.850     3840.524     2986.821        1.443        0.607      125.704       26.388        0.044      346.144       24.179      864.582
07/24/2014  11:17:00       99.582       75.996       38.921       68.982       64.585       53.954     4758.471     4171.255     2911.024        1.452        0.592      125.268       36.202        0.084      345.981       23.898      864.583
07/24/2014  11:18:00       63.255       93.744       51.847       39.199       57.540       43.461     1536.564     3310.800     1888.848        1.111        0.337      113.089       18.487        0.027      346.047       24.013      864.574
07/24/2014  11:19:00       93.179       66.067        8.650       77.455       44.093       42.118     5999.261     1944.179     1773.907        1.142        0.486      114.224       28.212        0.061      346.069       24.051      864.571
07/24/2014  11:20:00      -18.835       66.507      -22.925       50.559       49.478       27.864     2556.174     2448.094      776.397        0.554        0.289       69.123       14.298        0.043      345.603       23.251      864.579
07/24/2014  11:21:00      -15.762      102.080        9.094       31.661       61.291       28.855     1002.442     3756.633      832.639        0.817        0.280      103.290       29.556        0.082      346.247       24.358      864.564
07/24/2014  11:22:00       37.793      129.914      -22.887       44.501       71.493       50.171     1980.304     5111.276     2517.136        1.422        0.480      135.299       37.821        0.078      345.721       23.454      864.539
07/24/2014  11:23:00     -152.463       35.825      -12.622       56.688       68.999       25.283     3213.551     4760.847      639.240        1.665        0.431      156.615       26.347        0.028      345.527       23.120      864.528
07/24/2014  11:24:00     -202.889      -54.257      -14.843       59.585       38.421       34.296     3550.371     1476.182     1176.195        2.526        0.310      210.019       31.201        0.022      345.586       23.219      864.509
07/24/2014  11:25:00     -185.943      -23.151       -4.890       73.354       53.899       39.807     5380.880     2905.094     1584.589        2.250        0.494      187.379       37.692        0.040      345.709       23.431      864.485
07/24/2014  11:26:00     -208.776      -13.323      -13.444       75.622       88.167       42.412     5718.726     7773.471     1798.806        2.962        0.765      209.200       35.949        0.030      345.955       23.852      864.457
07/24/2014  11:27:00     -191.108      -50.058       -2.895       78.207       64.627       39.255     6116.357     4176.694     1540.940        2.543        0.592      197.555       35.502        0.032      345.725       23.460      864.444
07/24/2014  11:28:00     -149.903       -9.107       -9.187       63.818       33.597       32.675     4072.678     1128.777     1067.658        1.445        0.313      150.180       30.113        0.040      345.635       23.306      864.446
07/24/2014  11:29:00      -97.856      -40.183       -7.609       64.537       43.309       26.855     4164.968     1875.640      721.200        0.900        0.338      105.785       29.919        0.080      345.850       23.676      864.453
07/24/2014  11:30:00      -18.490      -48.636        1.962       35.190       57.644       26.335     1238.340     3322.784      693.540        0.398        0.263       52.032       18.236        0.123      345.937       23.824      864.458
07/24/2014  11:31:00       12.628      -71.298        8.680       61.425      109.028       33.876     3772.996    11887.154     1147.578        1.106        0.840       72.408       48.381        0.446      345.977       23.894      864.456
07/24/2014  11:32:00       71.504       74.790       28.461       68.385       52.001       45.328     4676.526     2704.063     2054.634        1.047        0.472      103.471       35.849        0.120      346.670       25.084      864.457
07/24/2014  11:33:00      185.810       87.878       25.535      127.452       86.005       71.745    16244.036     7396.823     5147.412        3.584        1.439      205.543       53.297        0.067      346.411       24.636      864.430
07/24/2014  11:34:00      199.043      115.044        4.452      107.107       85.263       48.464    11471.921     7269.798     2348.780        3.698        1.055      229.898       29.768        0.017      346.004       23.935      864.433
07/24/2014  11:35:00       38.128       53.816      -12.281       32.863       46.159       30.710     1079.947     2130.618      943.112        0.433        0.208       65.954       28.251        0.183      345.858       23.688      864.431
07/24/2014  11:36:00       81.394       48.676       45.228       49.003       38.521       41.515     2401.282     1483.872     1723.502        0.832        0.280       94.838       11.432        0.015      346.201       24.280      864.410
07/24/2014  11:37:00      134.433       94.050       32.155      104.689       75.366       63.063    10959.888     5680.002     3976.979        2.428        1.031      164.066       62.856        0.147      346.166       24.217      864.390
07/24/2014  11:38:00        9.357       93.920      -13.197       56.713       54.764       40.147     3216.314     2999.120     1611.795        0.845        0.391       94.385       34.242        0.132      346.446       24.701      864.387
07/24/2014  11:39:00      -30.132      178.049      -12.763       45.250       61.156       41.254     2047.574     3740.117     1701.891        2.013        0.374      180.581       33.846        0.035      346.392       24.606      864.375
07/24/2014  11:40:00      -27.700      195.828      -16.515       45.446       91.503       38.813     2065.305     8372.743     1506.423        2.566        0.597      197.777       35.289        0.032      346.291       24.431      864.344
07/24/2014  11:41:00      -61.593      116.322       -1.328       48.356       66.522       42.510     2338.299     4425.165     1807.119        1.295        0.429      131.623       38.805        0.087      346.473       24.748      864.337
07/24/2014  11:42:00      -39.321       66.615       13.494       42.741       48.641       39.127     1826.799     2365.925     1530.918        0.594        0.286       77.354       26.399        0.116      346.663       25.072      864.322
07/24/2014  11:43:00      -11.895       -0.548      -14.664       75.689       43.785       25.293     5728.836     1917.136      639.713        0.432        0.414       11.908       11.595        0.948      345.966       23.876      864.333
07/24/2014  11:44:00       67.118      -13.260       -9.182       43.781       45.674       56.165     1916.733     2086.078     3154.515        0.596        0.358       68.415       31.462        0.211      346.184       24.249      864.306
07/24/2014  11:45:00      -63.891      -20.902       15.839       91.018       57.445       40.721     8284.340     3299.979     1658.173        0.900        0.662       67.223       37.649        0.314      346.404       24.629      864.259
07/24/2014  11:46:00       47.585       37.220       26.443       72.819       31.432       37.707     5302.654      987.950     1421.804        0.603        0.386       60.412       46.084        0.582      346.770       25.258      864.266
07/24/2014  11:47:00      100.638       96.136       80.969       70.882       71.894       47.666     5024.267     5168.704     2272.085        1.919        0.623      139.177       42.596        0.094      346.729       25.186      864.252
07/24/2014  11:48:00       73.242        0.530       24.689       65.863       97.992       43.232     4337.983     9602.388     1868.974        1.089        0.790       73.244       26.172        0.128      346.665       25.075      864.240
07/24/2014  11:49:00       63.654      -26.916       64.737      109.628       96.618       76.617    12018.197     9335.068     5870.129        1.809        1.361       69.110       68.320        0.977      346.693       25.123      864.219
07/24/2014  11:50:00       31.807      -41.997       57.010       64.172      110.377       70.542     4118.073    12183.165     4976.113        1.365        1.064       52.683       77.679        2.174      347.178       25.958      864.198
07/24/2014  11:51:00       28.864       78.845       65.110       76.107       89.976       66.079     5792.215     8095.601     4366.476        1.477        0.913       83.962       62.639        0.557      346.895       25.472      864.206
07/24/2014  11:52:00       34.133      181.476       -7.277       62.926      105.914       55.625     3959.623    11217.792     3094.120        2.621        0.914      184.658       61.577        0.111      346.380       24.585      864.203
07/24/2014  11:53:00      -10.763      158.162      -13.097       40.868       89.645       32.549     1670.164     8036.302     1059.468        1.803        0.538      158.528       38.664        0.059      346.268       24.391      864.195
07/24/2014  11:54:00        0.686       32.842       26.110       26.214       38.929       31.270      687.154     1515.445      977.840        0.247        0.159       32.849       28.658        0.761      347.408       26.357      864.166
07/24/2014  11:55:00       15.606       39.100       39.206       38.882       25.101       22.802     1511.772      630.061      519.951        0.299        0.133       42.100       20.717        0.242      347.272       26.122      864.131
07/24/2014  11:56:00       38.490       49.534        5.681       42.178       37.371       31.941     1778.965     1396.580     1020.200        0.408        0.210       62.730       30.169        0.231      346.745       25.215      864.113
07/24/2014  11:57:00       88.190       84.393       12.433       97.327       71.855       41.550     9472.606     5163.188     1726.395        1.570        0.818      122.064       30.719        0.063      346.906       25.491      864.083
07/24/2014  11:58:00      178.863      134.918       26.863      117.531       85.353       67.696    13813.506     7285.152     4582.751        3.829        1.284      224.042       45.048        0.040      346.313       24.467      864.048
07/24/2014  11:59:00       95.022      137.513       18.990       83.973       87.691       69.353     7051.499     7689.699     4809.851        2.392        0.978      167.149       62.078        0.138      346.526       24.835      864.022
07/24/2014  12:00:00       58.454      123.414       -3.696       63.883       83.075       57.362     4081.092     6901.409     3290.421        1.646        0.714      136.557       54.776        0.161      346.520       24.827      864.012
07/24/2014  12:01:00      124.464      112.210       -1.321      106.409       64.958       53.201    11322.904     4219.514     2830.321        2.322        0.919      167.578       39.509        0.056      346.706       25.144      863.996
07/24/2014  12:02:00      147.610      115.645       33.747       95.740       68.379       40.290     9166.101     4675.624     1623.270        2.588        0.773      187.516       33.614        0.032      346.422       24.654      863.995
07/24/2014  12:03:00        8.056      -35.090        5.772       44.358       29.503       25.327     1967.617      870.444      641.435        0.240        0.174       36.003       20.172        0.314      346.907       25.491      863.982
07/24/2014  12:04:00       63.026       62.653       21.124       60.061       35.692       37.014     3607.294     1273.938     1370.007        0.730        0.313       88.869       18.788        0.045      347.154       25.918      863.948
07/24/2014  12:05:00       75.588      108.212        9.174       81.305       55.883       36.592     6610.475     3122.872     1338.951        1.429        0.554      131.997       28.015        0.045      346.483       24.762      863.946
07/24/2014  12:06:00       77.692       89.719        6.658       64.587       64.004       54.011     4171.543     4096.554     2917.210        1.266        0.559      118.683       30.410        0.066      346.983       25.622      863.919
07/24/2014  12:07:00      208.565      119.125       21.444       61.949       69.261       59.801     3837.633     4797.079     3576.167        3.518        0.611      240.187       30.338        0.016      346.259       24.376      863.901
07/24/2014  12:08:00       28.253       29.926        7.618       62.848       84.962       40.900     3949.822     7218.564     1672.801        0.729        0.642       41.156       23.089        0.315      346.672       25.088      863.910
07/24/2014  12:09:00        4.016       11.194        1.761       29.490       27.810       25.197      869.637      773.407      634.871        0.121        0.114       11.893       10.561        0.789      346.823       25.348      863.892
07/24/2014  12:10:00       10.138       33.442        7.705       31.306       30.718       21.069      980.047      943.568      443.887        0.182        0.118       34.945       19.433        0.309      347.159       25.927      863.872
07/24/2014  12:11:00      -11.443        3.981       13.802       25.675       35.087       22.635      659.207     1231.077      512.361        0.137        0.120       12.115        9.197        0.576      347.399       26.342      863.855
07/24/2014  12:12:00        9.653      -89.801        0.823       39.569       68.648       30.875     1565.707     4712.602      953.250        0.769        0.362       90.318       29.688        0.108      347.116       25.852      863.851
07/24/2014  12:13:00      114.799      -87.437       39.056       89.834      120.392       72.952     8070.202    14494.339     5322.031        2.511        1.394      144.305       79.704        0.305      347.114       25.849      863.825
07/24/2014  12:14:00       81.414       29.090       54.877       76.544       92.093       63.729     5859.004     8481.030     4061.405        1.444        0.920       86.455       43.591        0.254      346.747       25.217      863.821
07/24/2014  12:15:00      131.001     -145.840      -30.745       67.446       87.298       42.493     4548.905     7621.024     1805.679        2.667        0.699      196.037       47.242        0.058      346.524       24.830      863.815
07/24/2014  12:16:00       98.064     -154.937      -26.255       46.936       52.270       34.150     2203.023     2732.192     1166.251        2.021        0.305      183.363       28.189        0.024      346.376       24.576      863.810
07/24/2014  12:17:00        5.616        1.954       36.335       43.684       38.150       36.953     1908.289     1455.413     1365.560        0.304        0.236        5.946       22.019       13.712      347.326       26.216      863.791
07/24/2014  12:18:00      -81.400        2.097       18.402       57.268       61.562       41.748     3279.628     3789.906     1742.897        0.789        0.441       81.427       46.590        0.327      346.710       25.154      863.779
07/24/2014  12:19:00      -98.524       19.845      -20.320       34.408       21.172       16.915     1183.897      448.248      286.105        0.622        0.096      100.503       11.542        0.013      346.297       24.443      863.761
07/24/2014  12:20:00     -107.784      -17.162       -2.836       42.415       58.396       25.942     1799.031     3410.061      672.967        0.890        0.294      109.142       17.238        0.025      346.526       24.837      863.739
07/24/2014  12:21:00      -79.156       13.740       -5.808       28.295       26.152       19.450      800.584      683.927      378.296        0.418        0.093       80.339       18.594        0.054      346.387       24.598      863.732
07/24/2014  12:22:00      -53.234       23.029       -4.061       38.149       28.605       27.104     1455.365      818.231      734.635        0.319        0.150       58.002       19.067        0.108      346.840       25.379      863.707
07/24/2014  12:23:00        9.878      -84.051        3.302       37.689       46.274       24.364     1420.450     2141.253      593.582        0.566        0.208       84.629       20.971        0.061      346.398       24.618      863.703
07/24/2014  12:24:00       22.200      -35.357       35.614       39.962       80.046       43.798     1597.000     6407.338     1918.291        0.646        0.496       41.748       38.418        0.847      347.120       25.859      863.684
07/24/2014  12:25:00      -16.391       -2.771       17.467       49.563       32.851       26.706     2456.529     1079.183      713.195        0.241        0.212       16.623       22.039        1.758      347.407       26.355      863.666
07/24/2014  12:26:00      -36.454      -37.307        5.276       55.415       52.017       31.361     3070.846     2705.766      983.481        0.475        0.338       52.160       30.240        0.336      347.324       26.212      863.659
07/24/2014  12:27:00      -83.641      -59.741       -7.514       50.228       53.648       30.000     2522.859     2878.130      899.995        0.846        0.315      102.785       27.142        0.070      346.737       25.200      863.658
07/24/2014  12:28:00      -36.538      -32.047       -4.526       34.211       34.775       15.345     1170.363     1209.268      235.464        0.250        0.131       48.600        9.837        0.041      346.841       25.379      863.660
07/24/2014  12:29:00      -28.255      -36.105       21.554       71.999       43.414       30.735     5183.836     1884.777      944.656        0.529        0.401       45.846       27.874        0.370      347.048       25.736      863.671
07/24/2014  12:30:00       25.245      -56.752       23.917       57.591       59.900       43.885     3316.684     3587.968     1925.883        0.663        0.442       62.113       39.976        0.414      347.255       26.091      863.676
07/24/2014  12:31:00       22.038       50.387       54.169       70.794       45.864       45.110     5011.816     2103.476     2034.879        0.755        0.458       54.996       16.201        0.087      347.645       26.765      863.672
07/24/2014  12:32:00       23.100       72.002        7.452       33.044       46.606       33.911     1091.915     2172.097     1149.953        0.509        0.221       75.616       25.039        0.110      347.465       26.455      863.649
07/24/2014  12:33:00      135.203      105.906       33.630       81.902       60.313       48.200     6707.894     3637.714     2323.206        2.165        0.633      171.744       23.605        0.019      346.809       25.322      863.637
07/24/2014  12:34:00      186.872      120.150       12.865       84.914       56.355       55.193     7210.422     3175.850     3046.250        3.147        0.672      222.165       38.857        0.031      346.796       25.297      863.613
07/24/2014  12:35:00       54.782       98.923        6.441       64.584       45.994       44.102     4171.097     2115.421     1945.007        1.053        0.412      113.079       34.892        0.095      346.938       25.546      863.595
07/24/2014  12:36:00       67.846       45.248       28.327       84.485       48.582       35.976     7137.683     2360.247     1294.261        0.912        0.540       81.550       27.271        0.112      347.578       26.649      863.580
07/24/2014  12:37:00      269.987      162.071       32.495      138.727       76.899       85.775    19245.171     5913.529     7357.286        6.636        1.626      314.897       36.829        0.014      346.924       25.518      863.604
07/24/2014  12:38:00        9.246      206.441      -28.235       40.468       49.256       35.984     1637.688     2426.193     1294.858        2.443        0.268      206.648       17.981        0.008      346.666       25.075      863.634
07/24/2014  12:39:00       43.712      128.028      -25.978       67.972       98.877       45.423     4620.152     9776.681     2063.220        1.772        0.823      135.284       23.854        0.031      346.696       25.126      863.664
07/24/2014  12:40:00     -109.988      -38.162      -10.527       60.328       51.648       36.046     3639.410     2667.499     1299.324        1.063        0.380      116.420       26.499        0.052      346.872       25.431      863.630
07/24/2014  12:41:00       -8.552      -26.906       17.201       40.621       57.087       37.721     1650.065     3258.954     1422.899        0.371        0.317       28.232       36.523        1.674      347.261       26.103      863.623
07/24/2014  12:42:00       44.967      106.181       96.998       63.464       72.257       60.249     4027.686     5221.046     3629.995        1.779        0.644      115.310       48.329        0.176      347.561       26.619      863.619
07/24/2014  12:43:00       24.206       44.766       27.431       53.558       45.910       34.681     2868.424     2107.746     1202.779        0.476        0.309       50.891       21.435        0.177      347.773       26.984      863.616
07/24/2014  12:44:00       -6.632      -25.595       31.674       35.823       81.246       49.514     1283.284     6600.874     2451.631        0.602        0.517       26.440       40.899        2.393      347.732       26.916      863.617
07/24/2014  12:45:00      114.022       93.190       63.644       71.474       51.790       59.330     5108.469     2682.227     3520.019        1.852        0.566      147.260       40.315        0.075      347.213       26.019      863.605
07/24/2014  12:46:00      181.881      117.733       30.170       89.556       90.720       80.923     8020.313     8230.202     6548.496        3.532        1.140      216.660       48.271        0.050      346.916       25.504      863.596
07/24/2014  12:47:00      123.746      117.517       18.162       66.309       48.948       68.153     4396.820     2395.892     4644.886        2.044        0.572      170.655       27.820        0.027      347.178       25.958      863.553
07/24/2014  12:48:00      107.818      106.949       83.247      150.275      101.454       92.444    22582.537    10292.826     8545.906        3.570        2.071      151.865       79.226        0.272      347.272       26.119      863.556
07/24/2014  12:49:00       64.118      -19.103        8.832       50.067       52.366       43.144     2506.706     2742.231     1861.402        0.583        0.356       66.903       23.762        0.126      347.153       25.918      863.561
07/24/2014  12:50:00       32.320      -24.090       18.442       50.084       78.508       30.550     2508.388     6163.496      933.332        0.578        0.480       40.310       24.588        0.372      347.091       25.810      863.543
07/24/2014  12:51:00       30.809      -45.105       42.332       63.266       70.229       57.624     4002.561     4932.081     3320.528        0.851        0.613       54.623       39.003        0.510      347.683       26.831      863.522
07/24/2014  12:52:00       24.264      115.829      126.091       53.237       77.459       62.192     2834.131     5999.934     3867.838        2.130        0.635      118.343       53.154        0.202      347.417       26.369      863.507
07/24/2014  12:53:00       55.579      -82.137       -9.571       43.363       58.727       35.658     1880.351     3448.907     1271.493        0.826        0.330       99.174       23.904        0.058      347.121       25.861      863.510
07/24/2014  12:54:00       18.402      -14.246       40.057       28.689       71.670       34.672      823.071     5136.660     1202.133        0.465        0.358       23.272       35.299        2.301      347.705       26.867      863.473
07/24/2014  12:55:00       45.890      -24.415       -2.092       32.344       32.961       25.263     1046.150     1086.397      638.241        0.274        0.139       51.981       21.555        0.172      347.369       26.289      863.440
07/24/2014  12:56:00       -2.868       19.788       39.061       34.572       24.907       26.954     1195.241      620.336      726.498        0.223        0.127       19.994       18.094        0.819      347.809       27.047      863.414
07/24/2014  12:57:00       -5.943      -21.653       37.447       36.067       49.038       36.038     1300.834     2404.753     1298.768        0.345        0.250       22.453       26.217        1.363      347.967       27.319      863.391
07/24/2014  12:58:00        4.660     -118.107       -2.919       65.411      101.136       42.777     4278.574    10228.503     1829.887        1.515        0.817      118.199       49.384        0.175      347.276       26.127      863.360
07/24/2014  12:59:00       99.771     -124.504      -23.881       79.975       94.018       61.228     6396.009     8839.309     3748.857        2.250        0.949      159.547       51.952        0.106      347.274       26.123      863.332
07/24/2014  13:00:00       72.307     -153.817      -19.193       85.328       86.967       61.051     7280.870     7563.199     3727.248        2.391        0.929      169.965       56.214        0.109      347.334       26.225      863.303
07/24/2014  13:01:00       79.352        5.127       70.521       85.440      161.926       92.243     7300.004    26220.027     8508.811        2.665        2.101       79.517      110.279        1.923      347.379       26.304      863.289
07/24/2014  13:02:00       61.899       36.248       67.059       80.126       71.647       59.058     6420.230     5133.252     3487.887        1.234        0.752       71.731       55.817        0.605      347.477       26.476      863.307
07/24/2014  13:03:00      -49.233      -23.929      -19.254       55.810       23.679       21.724     3114.778      560.677      471.951        0.376        0.207       54.741       22.026        0.162      346.853       25.401      863.306
07/24/2014  13:04:00     -132.258       39.007        4.456       34.130       35.083       22.125     1164.830     1230.801      489.528        1.096        0.144      137.890       17.643        0.016      346.840       25.377      863.282
07/24/2014  13:05:00      -56.173       10.006       17.318       60.574       51.611       28.781     3669.229     2663.746      828.338        0.536        0.358       57.057       26.887        0.222      347.618       26.719      863.264
07/24/2014  13:06:00      -48.077      -57.808      -16.429       74.606       57.208       24.339     5566.005     3272.722      592.368        0.768        0.472       75.187       18.781        0.062      346.997       25.648      863.248
07/24/2014  13:07:00      -89.219       -6.660       -6.288       44.217       28.197       23.041     1955.104      795.088      530.866        0.566        0.164       89.467       22.146        0.061      347.290       26.153      863.225
07/24/2014  13:08:00     -171.517      -69.473        0.044       47.354       52.745       26.612     2242.413     2782.084      708.197        1.999        0.287      185.053       18.018        0.009      347.202       26.000      863.196
07/24/2014  13:09:00      -50.056      -77.025        8.787       61.886       45.452       35.127     3829.832     2065.880     1233.921        0.782        0.356       91.861       32.310        0.124      347.363       26.277      863.180
07/24/2014  13:10:00       -3.043     -137.834       19.094       33.903       27.935       23.294     1149.446      780.364      542.588        1.092        0.124      137.868       21.928        0.025      346.844       25.383      863.165
07/24/2014  13:11:00        8.678      -52.010       18.000       20.947       35.984       30.371      438.794     1294.884      922.385        0.288        0.133       52.729       20.636        0.153      347.706       26.870      863.153
07/24/2014  13:12:00       -0.445       -8.442       11.093       21.643       32.063       22.589      468.403     1028.011      510.285        0.110        0.100        8.454       19.099        5.104      347.906       27.215      863.138
07/24/2014  13:13:00       10.406       58.310       69.174       67.422       44.943       44.047     4545.766     2019.898     1940.097        0.840        0.425       59.232       31.086        0.275      348.255       27.819      863.127
07/24/2014  13:14:00       77.233       94.728       27.425       73.255       54.829       51.440     5366.354     3006.258     2646.076        1.335        0.551      122.222       31.286        0.066      347.705       26.867      863.123
07/24/2014  13:15:00       88.197       81.148        7.034       70.828       42.981       50.136     5016.578     1847.366     2513.591        1.189        0.469      119.849       36.179        0.091      347.415       26.367      863.105
07/24/2014  13:16:00      115.536      124.550        3.472      104.663       64.436       61.087    10954.441     4152.030     3731.603        2.385        0.942      169.886       42.572        0.063      347.532       26.568      863.073
07/24/2014  13:17:00       53.512       95.617       68.381      107.457       68.013       77.014    11546.936     4625.712     5931.103        1.939        1.105      109.573       74.196        0.459      347.859       27.132      863.050
07/24/2014  13:18:00       24.971       31.003       90.410       50.219       78.177       45.587     2521.991     6111.636     2078.143        1.023        0.536       39.809       51.921        1.701      347.868       27.149      863.043
07/24/2014  13:19:00       34.619      -59.027       16.149       35.929       89.949       45.854     1290.864     8090.794     2102.589        0.821        0.574       68.430       55.441        0.656      347.692       26.846      863.009
07/24/2014  13:20:00        5.903       45.143       30.727       38.716       35.597       34.991     1498.944     1267.160     1224.345        0.350        0.200       45.527        6.718        0.022      348.098       27.548      862.995
07/24/2014  13:21:00       62.750       56.099       38.837       50.776       40.450       34.427     2578.186     1636.222     1185.237        0.700        0.270       84.170       15.604        0.034      348.167       27.665      862.970
07/24/2014  13:22:00      -32.040       77.242        2.788       56.243       65.807       39.339     3163.276     4330.616     1547.575        0.802        0.452       83.624       34.585        0.171      347.719       26.892      862.960
07/24/2014  13:23:00      -63.942       99.224      -21.507       39.411       76.765       29.352     1553.190     5892.897      861.514        1.135        0.415      118.042       18.042        0.023      347.376       26.300      862.968
07/24/2014  13:24:00      -27.927       -4.357      -11.285       53.495       29.770       12.342     2861.666      886.229      152.314        0.241        0.195       28.264        8.687        0.094      347.404       26.350      862.948
07/24/2014  13:25:00     -106.963        6.111        6.118       56.184       65.326       43.573     3156.670     4267.547     1898.592        1.042        0.466      107.138       31.275        0.085      347.798       27.029      862.937
07/24/2014  13:26:00      -32.003       72.097        9.238       46.384      103.399       37.003     2151.521    10691.372     1369.189        1.026        0.711       78.881       52.171        0.437      348.109       27.566      862.916
07/24/2014  13:27:00      -41.685      258.632      -27.577       63.749       70.661       49.292     4063.962     4993.042     2429.722        4.044        0.574      261.970       41.921        0.026      347.505       26.518      862.910
07/24/2014  13:28:00        7.064      112.237       15.120       68.953       97.598       55.208     4754.572     9525.272     3047.913        1.510        0.866      112.459       57.186        0.259      347.650       26.773      862.928
07/24/2014  13:29:00      157.265      100.981        4.023       51.908       45.841       39.692     2694.470     2101.417     1575.478        2.066        0.319      186.895       27.224        0.021      347.339       26.235      862.906
07/24/2014  13:30:00       85.990      127.639       91.836       75.539       50.462       72.484     5706.136     2546.459     5253.904        2.281        0.675      153.903       46.311        0.091      347.812       27.053      862.893
07/24/2014  13:31:00      120.237       96.086       98.129      135.965       84.025       84.853    18486.497     7060.202     7200.060        3.303        1.637      153.914       87.128        0.320      347.621       26.719      862.884
07/24/2014  13:32:00       79.993      159.758      134.033      120.374       88.311       84.798    14489.926     7798.878     7190.753        3.968        1.474      178.666       65.700        0.135      347.857       27.128      862.851
07/24/2014  13:33:00       61.338      122.972      151.837       89.351      119.164       98.662     7983.589    14200.034     9734.144        3.692        1.596      137.421       84.395        0.377      347.879       27.166      862.833
07/24/2014  13:34:00      111.396      161.992      172.063      116.018      103.432       77.934    13460.148    10698.193     6073.673        4.924        1.512      196.598       67.150        0.117      347.600       26.683      862.832
07/24/2014  13:35:00       80.044       49.276       91.639       50.850       69.313       42.213     2585.725     4804.257     1781.895        1.320        0.459       93.996       47.674        0.257      347.566       26.627      862.850
07/24/2014  13:36:00       46.017       -2.448       35.387       70.486       38.818       35.611     4968.344     1506.867     1268.141        0.556        0.387       46.082       25.580        0.308      347.999       27.375      862.838
07/24/2014  13:37:00      160.642      117.793        9.638       64.211       46.287       43.660     4123.031     2142.530     1906.209        2.397        0.409      199.201       23.891        0.014      347.575       26.642      862.810
07/24/2014  13:38:00       49.404       89.858        0.574       64.873       63.019       45.662     4208.460     3971.418     2084.993        1.039        0.513      102.544       28.851        0.079      347.662       26.794      862.792
07/24/2014  13:39:00       55.837       68.466        3.629       83.035       65.521       39.971     6894.778     4293.014     1597.712        1.030        0.639       88.348       30.896        0.122      347.677       26.820      862.779
07/24/2014  13:40:00       83.087       86.588       21.195       80.209       82.349       62.599     6433.486     6781.308     3918.586        1.599        0.857      120.005       37.952        0.100      347.776       26.989      862.759
07/24/2014  13:41:00      146.548     -189.320      -16.848       90.473      121.253       76.110     8185.440    14702.203     5792.662        4.314        1.434      239.413       83.712        0.122      347.488       26.491      862.755
07/24/2014  13:42:00       12.533     -138.668        2.032       81.422       74.892       53.088     6629.595     5608.749     2818.375        1.722        0.753      139.234       38.650        0.077      347.603       26.692      862.758
07/24/2014  13:43:00      -14.917     -112.261      -14.161       71.586       75.972       34.377     5124.541     5771.736     1181.762        1.255        0.604      113.248       35.039        0.096      347.544       26.591      862.737
07/24/2014  13:44:00       12.103       -5.586       32.796       47.707       56.246       30.621     2275.967     3163.591      937.675        0.381        0.319       13.330       21.927        2.706      348.335       27.954      862.699
07/24/2014  13:45:00      -10.371      -42.081       17.028       46.563       46.556       43.512     2168.069     2167.458     1893.292        0.420        0.311       43.340       24.307        0.315      348.280       27.860      862.675
07/24/2014  13:46:00      -64.357      -39.052       14.034       69.963       55.430       33.634     4894.880     3072.532     1131.216        0.748        0.455       75.279       41.537        0.304      348.098       27.549      862.670
07/24/2014  13:47:00      -62.433       28.199       14.271       41.802       44.274       33.413     1747.420     1960.210     1116.449        0.486        0.241       68.506       26.021        0.144      347.957       27.303      862.656
07/24/2014  13:48:00       -4.693       26.666       27.639       34.002       30.055       27.808     1156.129      903.282      773.301        0.216        0.142       27.076       24.189        0.798      348.415       28.097      862.657
07/24/2014  13:49:00       34.247       32.713       38.796       72.955       44.153       42.569     5322.454     1949.529     1812.136        0.641        0.454       47.360       36.991        0.610      348.322       27.934      862.630
07/24/2014  13:50:00       14.570      -23.652       -3.249       44.907       47.769       25.335     2016.594     2281.920      641.885        0.286        0.247       27.780       13.128        0.223      348.308       27.910      862.615
07/24/2014  13:51:00      -40.098      -44.430        7.633       52.789       42.483       28.521     2786.680     1804.793      813.461        0.452        0.270       59.849       15.281        0.065      348.260       27.826      862.608
07/24/2014  13:52:00      -94.296      -43.067       -0.749       88.562       37.262       37.366     7843.238     1388.433     1396.183        1.069        0.531      103.665       42.941        0.172      347.933       27.261      862.616
07/24/2014  13:53:00     -225.273     -127.462       -2.699       99.121       88.515       40.258     9824.984     7834.906     1620.677        4.314        0.964      258.833       51.591        0.040      347.679       26.819      862.580
07/24/2014  13:54:00     -183.630      -70.606        3.502       89.904       63.942       45.834     8082.651     4088.628     2100.796        2.649        0.714      196.737       45.276        0.053      347.900       27.203      862.569
07/24/2014  13:55:00     -161.161     -138.346       -5.398       58.630       74.778       37.565     3437.510     5591.684     1411.156        2.779        0.522      212.397       38.637        0.033      347.712       26.877      862.558
07/24/2014  13:56:00     -123.750      -75.925       -5.983       52.974       43.206       28.164     2806.255     1866.731      793.236        1.329        0.273      145.184       19.672        0.018      347.551       26.603      862.550
07/24/2014  13:57:00      -20.068       -8.967       -3.510       20.551       20.489       20.903      422.330      419.789      436.917        0.089        0.064       21.980       16.504        0.564      347.839       27.098      862.527
07/24/2014  13:58:00       -5.973       -1.685       16.770       17.436       23.864       21.766      304.016      569.496      473.744        0.083        0.067        6.206       16.676        7.219      348.598       28.412      862.496
07/24/2014  13:59:00      -43.110      -44.097        6.946       50.962       51.529       28.611     2597.154     2655.198      818.603        0.496        0.304       61.668       26.661        0.187      348.406       28.080      862.481
07/24/2014  14:00:00        1.219       22.179       33.959       81.894       62.408       46.721     6706.578     3894.717     2182.875        0.721        0.639       22.213       28.757        1.676      348.446       28.147      862.440
07/24/2014  14:01:00       19.384       59.172       82.113       49.144       61.578       46.307     2415.123     3791.880     2144.383        0.948        0.418       62.267       40.205        0.417      348.713       28.612      862.426
07/24/2014  14:02:00      163.291      123.935      111.701      101.556       79.644       73.777    10313.712     6343.162     5443.008        3.830        1.105      204.997       61.369        0.090      348.270       27.842      862.413
07/24/2014  14:03:00      105.116      -21.392       54.748       87.311      126.420       86.381     7623.260    15982.131     7461.687        2.278        1.553      107.271       94.875        0.782      348.130       27.600      862.427
07/24/2014  14:04:00      101.801       19.943       35.317       52.075      101.950       51.071     2711.817    10393.815     2608.214        1.386        0.786      103.736       14.258        0.019      348.128       27.597      862.424
07/24/2014  14:05:00       84.458       75.364        6.874       34.303       29.630       34.513     1176.701      877.911     1191.179        0.805        0.162      113.194       20.171        0.032      347.886       27.180      862.390
07/24/2014  14:06:00      134.129       97.470       21.027      115.980       58.171       47.404    13451.311     3383.821     2247.126        2.350        0.954      165.804       19.445        0.014      348.034       27.433      862.371
07/24/2014  14:07:00      211.491      127.089        6.787       79.478       61.430       50.026     6316.782     3773.628     2502.584        3.676        0.630      246.738       42.588        0.030      347.839       27.094      862.352
07/24/2014  14:08:00      104.332       73.072       45.225       90.993       49.413       47.577     8279.792     2441.689     2263.567        1.562        0.649      127.376       35.352        0.077      348.266       27.836      862.334
07/24/2014  14:09:00      103.528       82.718       37.777       62.212       33.846       44.282     3870.385     1145.582     1960.918        1.298        0.349      132.515       38.999        0.087      348.195       27.715      862.321
07/24/2014  14:10:00       47.683       73.882       57.627       63.191       52.609       61.346     3993.094     2767.655     3763.332        1.079        0.526       87.933       41.871        0.227      348.300       27.895      862.307
07/24/2014  14:11:00       50.639      108.355       57.865       50.172       54.720       74.029     2517.200     2994.302     5480.298        1.432        0.550      119.604       41.792        0.122      348.172       27.673      862.283
07/24/2014  14:12:00      -16.000       19.176      -21.383       24.179       55.771       15.536      584.605     3110.358      241.372        0.251        0.197       24.975       13.495        0.292      347.825       27.075      862.292
07/24/2014  14:13:00      -80.561      -27.864        9.060       77.805       46.612       33.706     6053.635     2172.674     1136.064        0.835        0.468       85.244       40.395        0.225      348.060       27.480      862.266
07/24/2014  14:14:00       -5.374      -25.960       18.747       50.827       58.702       37.257     2583.360     3445.883     1388.115        0.423        0.371       26.510       32.682        1.520      348.664       28.524      862.232
07/24/2014  14:15:00       99.076       90.210       52.923      113.539       60.971       57.142    12891.203     3717.433     3265.245        2.031        0.994      133.992       64.000        0.228      348.308       27.908      862.206
07/24/2014  14:16:00      227.195      142.212       35.938      101.543       77.871       61.313    10310.901     6063.832     3759.294        4.663        1.007      268.033       36.417        0.018      348.134       27.605      862.187
07/24/2014  14:17:00      151.964      117.763       31.192       88.850       72.668       58.726     7894.364     5280.611     3448.737        2.728        0.831      192.253       43.172        0.050      348.372       28.017      862.160
07/24/2014  14:18:00      219.561      131.729       58.154      112.501       77.433       76.276    12656.431     5995.844     5817.980        4.670        1.224      256.046       45.767        0.032      348.332       27.946      862.137
07/24/2014  14:19:00      186.039      137.664       13.604      100.151       75.520       62.933    10030.144     5703.299     3960.542        3.672        0.985      231.434       43.630        0.036      348.268       27.836      862.126
07/24/2014  14:20:00      127.611      105.597       11.389      100.543       69.963       69.288    10108.869     4894.846     4800.821        2.368        0.990      165.636       28.478        0.030      348.551       28.328      862.117
07/24/2014  14:21:00      133.511       83.795       65.902      114.917       91.826       66.942    13205.847     8432.045     4481.178        2.765        1.306      157.629       38.846        0.061      348.332       27.949      862.112
07/24/2014  14:22:00      250.210      163.435       45.298       74.715       58.657       58.495     5582.405     3440.594     3421.642        5.190        0.622      298.858       32.835        0.012      348.021       27.409      862.094
07/24/2014  14:23:00      174.063      136.870       20.615       81.599       54.826       51.128     6658.472     3005.879     2614.120        3.086        0.614      221.430       34.634        0.024      348.003       27.380      862.085
07/24/2014  14:24:00      103.518       81.182       34.388       80.241       57.748       48.836     6438.589     3334.844     2384.991        1.532        0.608      131.554       47.039        0.128      348.372       28.020      862.068
07/24/2014  14:25:00       71.914       27.785       44.356       65.570       77.078       49.759     4299.456     5941.070     2475.909        1.031        0.636       77.095       29.143        0.143      348.363       28.005      862.047
07/24/2014  14:26:00       79.636       66.769       50.656       67.365       61.639       59.043     4538.041     3799.330     3486.116        1.259        0.591      103.923       43.025        0.171      348.539       28.307      862.031
07/24/2014  14:27:00      185.656       63.451       20.196      118.468       84.429       45.044    14034.578     7128.256     2028.982        3.104        1.160      196.199       17.930        0.008      348.167       27.663      862.011
07/24/2014  14:28:00       67.763       63.353       57.718      124.563       60.245       42.903    15515.919     3629.449     1840.644        1.646        1.049       92.766       45.301        0.238      348.523       28.280      861.990
07/24/2014  14:29:00      220.944      143.477       59.305      104.718       67.645       72.783    10965.856     4575.803     5297.402        4.687        1.042      263.442       46.744        0.031      348.418       28.096      861.979
07/24/2014  14:30:00      153.911      113.292       39.668       74.359       41.660       52.641     5529.261     1735.554     2771.120        2.406        0.502      191.112       38.683        0.041      348.009       27.389      861.975
07/24/2014  14:31:00      107.929       60.359        3.295       61.544       83.854       42.034     3787.615     7031.544     1766.839        1.394        0.629      123.660       41.758        0.114      348.159       27.650      861.952
07/24/2014  14:32:00        9.510       30.379       16.535       41.845       35.511       33.589     1750.996     1261.033     1128.215        0.271        0.207       31.833       16.486        0.268      348.624       28.457      861.900
07/24/2014  14:33:00       44.544       92.901        3.769       70.732       58.007       40.234     5003.009     3364.765     1618.741        1.031        0.499      103.028       32.009        0.097      348.338       27.960      861.878
07/24/2014  14:34:00       22.540      128.957       -6.098      117.389       81.192       51.284    13780.123     6592.072     2630.036        2.008        1.150      130.912       45.754        0.122      348.033       27.434      861.845
07/24/2014  14:35:00        3.456      217.025      -33.599       41.918       48.258       26.482     1757.080     2328.838      701.289        2.651        0.239      217.053       18.575        0.007      348.047       27.455      861.799
07/24/2014  14:36:00        5.892      226.579      -26.006       76.064       60.517       33.982     5785.780     3662.290     1154.797        3.132        0.530      226.656       42.379        0.035      348.160       27.650      861.806
07/24/2014  14:37:00       81.226       99.259      -18.091       86.055       71.184       37.645     7405.445     5067.155     1417.130        1.533        0.694      128.257       37.322        0.085      347.953       27.296      861.803
07/24/2014  14:38:00       85.457       66.629       34.224       66.120       39.801       43.985     4371.893     1584.119     1934.640        1.040        0.395      108.362       25.725        0.056      348.319       27.928      861.767
07/24/2014  14:39:00      187.399      132.092       62.598      129.579       76.861       59.124    16790.612     5907.667     3495.701        4.133        1.310      229.275       32.729        0.020      348.589       28.393      861.742
07/24/2014  14:40:00      268.679      175.466       34.375      105.117       87.815       63.073    11049.500     7711.462     3978.225        6.344        1.137      320.900       34.784        0.012      348.416       28.094      861.729
07/24/2014  14:41:00      127.898       88.385       23.315      125.943       84.445       55.622    15861.612     7130.959     3093.778        2.539        1.304      155.466       26.936        0.030      348.556       28.337      861.727
07/24/2014  14:42:00      151.240       72.051       29.693       82.592       95.072       55.968     6821.508     9038.737     3132.432        2.397        0.950      167.526       41.450        0.061      348.716       28.611      861.709
07/24/2014  14:43:00       88.199       61.114       16.712       69.732       72.388       49.133     4862.582     5239.966     2414.013        1.215        0.626      107.303       28.453        0.070      348.820       28.794      861.715
07/24/2014  14:44:00       71.687       49.739       14.684       52.446       48.637       40.325     2750.622     2365.547     1626.071        0.728        0.337       87.252       29.933        0.118      348.675       28.545      861.702
07/24/2014  14:45:00       87.908       50.328       29.917       91.341       79.129       47.935     8343.118     6261.463     2297.764        1.403        0.845      101.296       27.627        0.074      348.922       28.971      861.687
07/24/2014  14:46:00      163.644       97.691       99.170      121.184       85.895       93.123    14685.611     7377.986     8671.962        3.844        1.537      190.585       78.050        0.168      348.745       28.663      861.664
07/24/2014  14:47:00      144.617       82.870       30.345       99.799       82.088       57.647     9959.794     6738.515     3323.161        2.436        1.001      166.678       46.528        0.078      348.540       28.308      861.676
07/24/2014  14:48:00       96.289      129.937      -16.447       86.998       84.645       59.723     7568.659     7164.795     3566.865        2.236        0.915      161.725       41.529        0.066      348.404       28.073      861.661
07/24/2014  14:49:00       62.519       82.604        2.342       64.599       69.828       46.194     4173.014     4875.970     2133.897        1.096        0.559      103.596       37.809        0.133      348.236       27.783      861.647
07/24/2014  14:50:00       16.033       69.674       -1.808       69.424       42.056       39.863     4819.707     1768.666     1589.031        0.664        0.409       71.495       40.901        0.327      348.269       27.842      861.621
07/24/2014  14:51:00       96.826       56.266        9.976       92.517       90.100       48.195     8559.358     8117.979     2322.795        1.582        0.950      111.987       26.493        0.056      348.617       28.442      861.586
07/24/2014  14:52:00      164.335      146.117       12.563      112.910       77.374       64.733    12748.707     5986.786     4190.306        3.572        1.146      219.900       45.920        0.044      348.516       28.265      861.575
07/24/2014  14:53:00       -4.257      201.887      -18.617       53.540      110.027       39.230     2866.489    12106.025     1538.958        2.881        0.826      201.932       45.505        0.051      348.452       28.156      861.586
07/24/2014  14:54:00       69.057      133.099       -2.141       79.934       66.214       42.084     6389.398     4384.312     1771.058        1.751        0.627      149.947       33.742        0.051      348.356       27.990      861.600
07/24/2014  14:55:00       55.117       61.893       -2.094       42.259       37.345       37.117     1785.819     1394.647     1377.659        0.571        0.228       82.878       24.343        0.086      348.429       28.119      861.574
07/24/2014  14:56:00        2.664       54.777       -5.765       37.729       50.384       32.113     1423.494     2538.509     1031.243        0.402        0.250       54.842       19.103        0.121      348.601       28.416      861.545
07/24/2014  14:57:00       35.941       27.024       20.437       39.646       29.011       32.530     1571.785      841.645     1058.184        0.295        0.174       44.967       18.740        0.174      348.741       28.659      861.510
07/24/2014  14:58:00       68.993       71.620       16.481       60.946       52.759       41.131     3714.456     2783.534     1691.774        0.917        0.409       99.446       29.188        0.086      348.843       28.837      861.487
07/24/2014  14:59:00       72.603       74.390       -3.740       49.084       38.948       32.901     2409.271     1516.938     1082.507        0.791        0.250      103.948       17.758        0.029      348.543       28.314      861.468
07/24/2014  15:00:00       50.192       54.385      -11.126       58.795       39.836       27.634     3456.806     1586.939      763.613        0.570        0.290       74.006       23.251        0.099      348.719       28.620      861.454
07/24/2014  15:01:00      -18.310       94.064       -8.664       61.960       48.203       34.296     3839.015     2323.537     1176.208        0.830        0.367       95.829       24.604        0.066      348.722       28.626      861.440
07/24/2014  15:02:00      -87.146       76.288      -36.670       56.609       67.332       28.307     3204.607     4533.541      801.298        1.165        0.427      115.820       17.318        0.022      348.350       27.982      861.410
07/24/2014  15:03:00     -128.509      139.896      -22.346       49.336       59.909       40.529     2434.054     3589.130     1642.620        2.212        0.383      189.962       32.999        0.030      348.480       28.204      861.375
07/24/2014  15:04:00        5.417      157.943      -12.683       81.172      108.299       47.729     6588.853    11728.608     2278.037        2.286        1.030      158.036       42.929        0.074      348.467       28.183      861.369
07/24/2014  15:05:00      -22.621      246.071      -29.656       53.896       93.823       33.785     2904.812     8802.778     1141.419        3.739        0.642      247.108       34.899        0.020      348.454       28.159      861.341
07/24/2014  15:06:00      -34.343      233.826      -24.170       55.759       75.185       38.849     3109.070     5652.760     1509.220        3.335        0.514      236.335       37.929        0.026      348.507       28.251      861.324
07/24/2014  15:07:00     -142.498      117.644      -30.951       69.059       50.335       39.973     4769.078     2533.635     1597.811        2.200        0.445      184.786       26.932        0.021      348.448       28.149      861.290
07/24/2014  15:08:00      -40.806      194.363      -15.277      132.633      109.697       60.787    17591.423    12033.357     3695.051        3.649        1.666      198.601       46.338        0.054      348.711       28.603      861.279
07/24/2014  15:09:00       48.102      221.316      -13.590       69.833       85.466       67.615     4876.595     7304.385     4571.795        3.411        0.838      226.483       52.743        0.054      348.585       28.385      861.285
07/24/2014  15:10:00      -23.078      231.877      -31.126       50.505       70.720       32.415     2550.732     5001.342     1050.730        3.193        0.430      233.023       35.119        0.023      348.430       28.117      861.262
07/24/2014  15:11:00      -29.394      245.094      -28.012       38.714       62.471       26.920     1498.750     3902.617      724.702        3.392        0.306      246.851       25.727        0.011      348.449       28.148      861.237
07/24/2014  15:12:00      -83.377      177.747      -26.730       42.731       68.535       32.003     1825.937     4697.033     1024.169        2.340        0.377      196.330       31.125        0.025      348.472       28.188      861.214
07/24/2014  15:13:00     -116.652      153.804      -29.148       66.456       92.670       41.493     4416.401     8587.759     1721.672        2.642        0.736      193.037       39.969        0.043      348.508       28.255      861.204
07/24/2014  15:14:00       -4.501      -66.090      -17.293       37.285       35.832       28.368     1390.187     1283.941      804.717        0.408        0.174       66.243       22.483        0.115      348.537       28.305      861.175
07/24/2014  15:15:00      -65.892      -27.822        6.454       41.374       30.273       19.799     1711.803      916.453      391.989        0.409        0.151       71.525       20.896        0.085      348.925       28.977      861.155
07/24/2014  15:16:00       20.042       28.247       24.660       58.067       29.768       24.886     3371.741      886.152      619.306        0.334        0.244       34.635       11.395        0.108      349.207       29.465      861.143
07/24/2014  15:17:00     -106.076       45.175      -19.950      108.332       80.958       40.245    11735.800     6554.151     1619.694        1.680        0.995      115.294       29.974        0.068      348.967       29.049      861.136
07/24/2014  15:18:00       50.431      122.604       19.069       68.107       64.483       51.391     4638.607     4158.001     2641.013        1.469        0.572      132.571       43.150        0.106      349.093       29.268      861.116
07/24/2014  15:19:00       80.113       81.230       11.346       73.695       43.674       39.436     5430.962     1907.401     1555.189        1.102        0.445      114.089       18.594        0.027      349.255       29.549      861.100
07/24/2014  15:20:00       18.639      107.075       -1.809       51.989       76.224       41.101     2702.887     5810.028     1689.266        1.101        0.510      108.685       42.002        0.149      349.140       29.348      861.095
07/24/2014  15:21:00      -24.493       82.167      -13.293       61.614       69.591       34.425     3796.227     4842.866     1185.113        0.867        0.491       85.740       41.670        0.236      349.013       29.131      861.093
07/24/2014  15:22:00       28.046      292.941      -45.133       78.175       91.892       53.608     6111.393     8444.064     2873.765        5.303        0.871      294.280       51.511        0.031      348.832       28.813      861.079
07/24/2014  15:23:00        8.091      192.448      -26.539       69.688       99.340       52.588     4856.435     9868.447     2765.530        2.764        0.875      192.618       56.508        0.086      348.660       28.516      861.084
07/24/2014  15:24:00       12.339      214.019      -30.737       63.279       88.837       44.101     4004.229     7891.956     1944.926        3.037        0.692      214.375       41.317        0.037      348.618       28.443      861.081
07/24/2014  15:25:00      -72.178      114.494      -19.499       48.136       53.549       31.326     2317.060     2867.472      981.349        1.243        0.308      135.346       24.390        0.032      348.972       29.058      861.048
07/24/2014  15:26:00     -146.713      134.364      -36.329       39.244       53.584       33.550     1540.082     2871.235     1125.585        2.322        0.277      198.944       28.103        0.020      348.773       28.711      861.004
07/24/2014  15:27:00     -119.180      107.629      -22.321       50.327       56.710       32.365     2532.832     3216.059     1047.505        1.654        0.340      160.586       33.057        0.042      349.009       29.121      860.977
07/24/2014  15:28:00      -70.356       39.117       22.471       83.825       83.238       50.171     7026.648     6928.589     2517.146        1.173        0.824       80.499       47.774        0.352      349.098       29.276      860.956
07/24/2014  15:29:00      -68.655       -3.254       -0.086      112.484       57.157       58.120    12652.603     3266.971     3377.971        1.201        0.965       68.732       51.841        0.569      348.928       28.981      860.954
07/24/2014  15:30:00      299.881      215.129       34.333      200.072      111.178       92.377    40028.823    12360.554     8533.565        9.914        3.046      369.065       56.949        0.024      348.858       28.857      860.868
07/24/2014  15:31:00      293.055      245.467      116.594      140.591       95.365      127.809    19765.861     9094.460    16335.145       10.245        2.260      382.276      104.244        0.074      349.016       29.131      860.854
07/24/2014  15:32:00      168.934      155.078       99.134      105.238       96.258       71.987    11075.041     9265.619     5182.176        4.396        1.276      229.320       46.829        0.042      348.836       28.819      860.892
07/24/2014  15:33:00       87.642       60.661       97.363       89.234       75.906       61.381     7962.651     5761.763     3767.625        1.916        0.875      106.587       52.564        0.243      349.097       29.275      860.907
07/24/2014  15:34:00       75.902       70.669        3.809       65.013       37.984       40.844     4226.652     1442.818     1668.251        0.905        0.367      103.707       31.247        0.091      348.696       28.582      860.905
07/24/2014  15:35:00       94.838       47.937       10.255       84.393       79.243       58.563     7122.167     6279.405     3429.605        1.411        0.842      106.264       34.111        0.103      349.075       29.235      860.879
07/24/2014  15:36:00      -10.239       -0.626       55.100       42.495       85.891       45.823     1805.866     7377.250     2099.711        0.721        0.564       10.258       48.401       22.263      349.666       30.262      860.854
07/24/2014  15:37:00       75.784      -99.717       23.593      125.951      114.937       65.090    15863.630    13210.551     4236.761        2.477        1.666      125.246       72.362        0.334      349.393       29.788      860.840
07/24/2014  15:38:00      219.511     -270.771      -54.660       69.058       71.139       42.478     4768.942     5060.700     1804.349        6.806        0.582      348.572       35.641        0.010      348.672       28.535      860.816
07/24/2014  15:39:00       94.266      -95.710       28.515       54.676       93.259       58.712     2989.513     8697.291     3447.083        1.699        0.757      134.337       60.269        0.201      349.049       29.190      860.825
07/24/2014  15:40:00       92.406       18.758       31.351       78.307      120.483       62.414     6131.973    14516.166     3895.496        1.720        1.227       94.291       52.614        0.311      349.167       29.394      860.808
07/24/2014  15:41:00      173.089     -200.192      -30.045      114.732      151.577       65.764    13163.348    22975.624     4324.941        5.569        2.023      264.644       79.764        0.091      349.190       29.433      860.785
07/24/2014  15:42:00       58.913       -9.134       62.793       94.144      127.954       83.819     8863.014    16372.339     7025.672        1.987        1.613       59.617       89.891        2.274      349.069       29.226      860.799
07/24/2014  15:43:00       72.988     -129.577       19.709       68.833      108.258       56.396     4738.025    11719.705     3180.462        2.107        0.982      148.719       71.167        0.229      349.135       29.337      860.801
07/24/2014  15:44:00       67.313      -88.343       -4.935       74.677       85.724       48.361     5576.625     7348.541     2338.814        1.381        0.763      111.066       44.779        0.163      349.219       29.484      860.788
07/24/2014  15:45:00       29.846     -139.075      -28.305       62.125       62.703       48.372     3859.528     3931.650     2339.814        1.558        0.507      142.242       30.005        0.044      349.170       29.400      860.771
07/24/2014  15:46:00       71.557      -91.580      -16.592       63.717       60.454       42.346     4059.798     3654.663     1793.179        1.164        0.475      116.222       35.117        0.091      349.074       29.233      860.744
07/24/2014  15:47:00       76.349      -89.118       17.874       62.131       71.555       49.212     3860.283     5120.107     2421.867        1.274        0.570      117.351       46.069        0.154      349.045       29.185      860.707
07/24/2014  15:48:00      145.667       81.707       33.340       70.124       61.306       53.605     4917.436     3758.426     2873.526        2.028        0.577      167.017       48.870        0.086      348.907       28.945      860.694
07/24/2014  15:49:00      137.127       85.444       41.289       86.408       72.065       61.513     7466.325     5193.351     3783.865        2.212        0.822      161.569       55.958        0.120      348.981       29.073      860.660
07/24/2014  15:50:00       79.523       81.331       25.168       76.332       62.950       63.672     5826.540     3962.699     4054.141        1.370        0.692      113.748       37.026        0.106      349.149       29.363      860.620
07/24/2014  15:51:00       96.017      167.511       16.077      101.609       86.371       82.518    10324.436     7459.969     6809.213        3.106        1.230      193.078       62.367        0.104      349.125       29.320      860.610
07/24/2014  15:52:00       67.654      207.007       -5.779      117.764      136.867       65.104    13868.278    18732.618     4238.507        4.214        1.842      217.782       77.577        0.127      349.113       29.300      860.583
07/24/2014  15:53:00       62.125      307.448      -25.413       80.446      155.393       74.705     6471.572    24146.973     5580.851        6.761        1.810      313.662       82.048        0.068      349.047       29.187      860.573
07/24/2014  15:54:00       47.948      298.758      -24.832       73.722      147.663       63.383     5434.876    21804.349     4017.363        6.171        1.563      302.581       74.125        0.060      349.212       29.470      860.560
07/24/2014  15:55:00       -4.077      169.343       -6.426       76.571      111.241       60.470     5863.109    12374.480     3656.579        2.531        1.095      169.392       73.053        0.186      349.289       29.604      860.553
07/24/2014  15:56:00       -3.391      155.960      -12.710       58.439       79.021       53.376     3415.168     6244.354     2849.016        1.850        0.625      155.997       46.316        0.088      349.255       29.548      860.528
07/24/2014  15:57:00      -59.513      102.784        2.228       88.100       60.291       53.941     7761.622     3634.989     2909.676        1.421        0.715      118.770       42.881        0.130      349.240       29.522      860.503
07/24/2014  15:58:00      104.075      109.063        7.051      105.916       75.991       54.226    11218.104     5774.565     2940.482        2.135        0.997      150.752       31.250        0.043      349.080       29.244      860.499
07/24/2014  15:59:00      121.198      110.230       -1.174       71.783       65.525       40.196     5152.774     4293.482     1615.733        1.895        0.553      163.829       23.527        0.021      348.871       28.881      860.518
07/24/2014  16:00:00       46.647       42.615       -3.845       36.429      101.335       33.145     1327.045    10268.770     1098.559        0.835        0.635       63.182       28.023        0.197      348.919       28.966      860.502
07/24/2014  16:01:00      -25.870       99.098      -28.816       29.107       84.940       28.785      847.194     7214.749      828.584        1.010        0.445      102.419       35.183        0.118      349.002       29.108      860.478
07/24/2014  16:02:00      -23.748      150.234      -25.232       62.802       81.804       29.874     3944.089     6691.909      892.451        1.765        0.576      152.099       37.956        0.062      349.018       29.137      860.471
07/24/2014  16:03:00      -75.601      134.619      -25.939       37.872       54.775       24.285     1434.314     3000.346      589.772        1.477        0.251      154.395       16.481        0.011      348.830       28.813      860.465
07/24/2014  16:04:00      -85.582       30.375      -13.579       35.458       43.590       28.458     1257.286     1900.059      809.833        0.620        0.198       90.812       25.419        0.078      349.066       29.221      860.438
07/24/2014  16:05:00      -97.338       42.055      -23.222       99.460       46.222       29.113     9892.267     2136.446      847.594        1.233        0.644      106.035       29.243        0.076      349.026       29.151      860.416
07/24/2014  16:06:00        2.846       14.311        5.319       33.146       23.367       26.067     1098.675      546.009      679.468        0.128        0.116       14.591       13.697        0.881      349.172       29.405      860.391
07/24/2014  16:07:00      -13.668       37.513       21.483       43.955       33.623       29.654     1932.068     1130.518      879.341        0.300        0.197       39.925       24.258        0.369      349.514       29.998      860.407
07/24/2014  16:08:00      -11.237      255.257      -35.139       61.555       88.147       33.531     3788.990     7769.963     1124.319        3.960        0.634      255.504       33.580        0.017      348.893       28.918      860.411
07/24/2014  16:09:00       66.856      112.144       -3.710       45.070       79.816       45.761     2031.323     6370.531     2094.049        1.378        0.525      130.560       47.909        0.135      349.045       29.184      860.406
07/24/2014  16:10:00       45.321      139.360      -15.125       59.705      136.493       38.073     3564.742    18630.369     1449.517        2.267        1.182      146.544       57.320        0.153      348.902       28.938      860.384
07/24/2014  16:11:00      -67.445      140.033      -29.769       93.939      122.631       37.873     8824.616    15038.340     1434.355        2.517        1.265      155.429       52.781        0.115      348.865       28.872      860.370
07/24/2014  16:12:00      -90.123      -49.800       -6.569       79.406       72.148       31.677     6305.283     5205.284     1003.441        1.158        0.626      102.967       28.582        0.077      349.292       29.610      860.327
07/24/2014  16:13:00     -124.639        8.590       -0.547       73.881       53.420       31.782     5458.394     2853.712     1010.082        1.246        0.466      124.934        6.640        0.003      349.297       29.620      860.325
07/24/2014  16:14:00        7.000       87.465        1.545       28.372       63.225       25.724      804.953     3997.386      661.707        0.658        0.273       87.745       35.669        0.165      349.415       29.827      860.330
07/24/2014  16:15:00       99.356      112.950       25.692      146.435      100.703       57.739    21443.276    10141.069     3333.792        2.910        1.746      150.430       46.810        0.097      349.479       29.936      860.312
07/24/2014  16:16:00      272.241      190.016       37.368      156.380      103.142       71.589    24454.591    10638.315     5125.007        7.591        2.011      331.996       38.843        0.014      349.118       29.308      860.257
07/24/2014  16:17:00       85.843       73.596       14.330       66.661       61.740       42.443     4443.724     3811.830     1801.440        1.152        0.503      113.072       29.999        0.070      349.468       29.918      860.242
07/24/2014  16:18:00      261.247      154.548       10.783      111.926       80.727       64.482    12527.399     6516.883     4157.946        5.772        1.160      303.537       53.160        0.031      349.198       29.447      860.242
07/24/2014  16:19:00       31.836      183.808      -14.604       76.369       83.180       41.246     5832.279     6918.966     1701.209        2.473        0.723      186.545       40.911        0.048      349.130       29.328      860.232
07/24/2014  16:20:00      -27.714       83.112        4.611       48.705       78.060       40.441     2372.218     6093.427     1635.511        0.890        0.505       87.611       35.600        0.165      349.524       30.015      860.217
07/24/2014  16:21:00      177.685      141.196       17.046      131.213       75.608       65.167    17216.918     5716.585     4246.697        3.948        1.359      226.954       44.856        0.039      349.265       29.564      860.212
07/24/2014  16:22:00       99.352       89.514       15.365       84.227       72.021       51.261     7094.238     5187.020     2627.684        1.651        0.745      133.729       38.504        0.083      349.471       29.923      860.202
07/24/2014  16:23:00       60.100      108.446       -5.438       69.143       79.312       57.059     4780.744     6290.353     3255.728        1.486        0.716      123.986       48.698        0.154      349.708       30.332      860.190
07/24/2014  16:24:00      238.570      130.352       36.040      146.420       98.110       65.976    21438.834     9625.575     4352.825        5.530        1.771      271.859       14.639        0.003      349.515       29.997      860.177
07/24/2014  16:25:00      202.754      114.207       30.708      126.110       78.978       62.322    15903.850     6237.579     3883.975        4.056        1.301      232.707       40.324        0.030      349.265       29.563      860.191
07/24/2014  16:26:00       16.724       84.413      -24.135      102.947       81.828       43.625    10598.048     6695.761     1903.117        1.359        0.960       86.054       31.807        0.137      349.245       29.530      860.209
07/24/2014  16:27:00       38.499       69.053       10.191       42.283       71.440       42.730     1787.818     5103.728     1825.872        0.753        0.436       79.060       41.526        0.276      349.419       29.832      860.210
07/24/2014  16:28:00       59.262       40.346       25.941       81.002       48.485       38.413     6561.345     2350.835     1475.536        0.810        0.519       71.693       21.777        0.092      349.553       30.065      860.209
07/24/2014  16:29:00       91.139       27.664       34.530       57.531       43.108       38.391     3309.862     1858.339     1473.865        0.845        0.332       95.245       25.719        0.073      349.142       29.354      860.222
07/24/2014  16:30:00      101.466       88.585       32.328       43.424       37.553       46.053     1885.603     1410.244     2120.903        1.230        0.271      134.695       16.451        0.015      349.165       29.393      860.227
07/24/2014  16:31:00      164.470       96.671       50.624       97.999      109.929       61.444     9603.800    12084.413     3775.352        3.221        1.273      190.776       40.050        0.044      349.558       30.072      860.218
07/24/2014  16:32:00       57.858       75.352       84.208       83.300      102.832       76.860     6938.887    10574.352     5907.437        1.976        1.171       95.003       68.742        0.524      349.498       29.967      860.229
07/24/2014  16:33:00      116.885       72.420       20.933       71.400       67.974       52.493     5097.901     4620.515     2755.515        1.591        0.624      137.502       27.878        0.041      349.243       29.528      860.247
07/24/2014  16:34:00       32.013       15.555       37.789       62.302       47.929       34.561     3881.589     2297.163     1194.463        0.503        0.369       35.592       27.912        0.615      349.456       29.898      860.247
07/24/2014  16:35:00       36.874       30.153       41.666       67.211       62.143       49.854     4517.361     3861.739     2485.446        0.743        0.543       47.633       43.240        0.824      349.415       29.825      860.252
07/24/2014  16:36:00      118.282       65.604       74.591       82.763       78.166       58.341     6849.757     6109.926     3403.627        2.011        0.818      135.257       57.415        0.180      349.129       29.329      860.248
07/24/2014  16:37:00       94.505       68.683       39.043       79.284       56.681       69.094     6285.966     3212.687     4773.973        1.472        0.714      116.827       42.904        0.135      349.222       29.491      860.230
07/24/2014  16:38:00      124.773       66.000       18.591       95.950       80.310       73.367     9206.484     6449.699     5382.716        2.065        1.052      141.153       47.645        0.114      349.224       29.492      860.224
07/24/2014  16:39:00       89.856       58.611       35.842       69.313       54.169       46.458     4804.224     2934.331     2158.389        1.134        0.495      107.282       33.663        0.098      349.367       29.744      860.235
07/24/2014  16:40:00       62.926       10.938       22.673       53.785       72.357       40.299     2892.818     5235.487     1624.036        0.717        0.488       63.869       39.636        0.385      349.291       29.612      860.235
07/24/2014  16:41:00       92.553       49.736       15.649       86.574       95.014       40.438     7495.098     9027.732     1635.225        1.472        0.908      105.070       15.912        0.023      349.306       29.635      860.247
07/24/2014  16:42:00       72.536      110.183        2.630       97.410       76.507       46.021     9488.656     5853.280     2117.955        1.743        0.873      131.916       38.074        0.083      349.255       29.547      860.246
07/24/2014  16:43:00       60.089      130.017       -1.583       98.944      115.642       68.036     9789.953    13372.962     4628.874        2.415        1.390      143.231       60.795        0.180      349.291       29.608      860.228
07/24/2014  16:44:00      254.638      153.157       17.898      120.003       76.518       59.955    14400.775     5854.969     3594.568        5.623        1.193      297.149       22.297        0.006      349.181       29.418      860.218
07/24/2014  16:45:00      181.194      155.109       17.956       87.480       66.037       71.992     7652.714     4360.936     5182.795        3.720        0.860      238.516       50.192        0.044      349.107       29.288      860.220
07/24/2014  16:46:00       71.346      151.831       -9.219       81.039       91.394       66.557     6567.271     8352.904     4429.796        2.379        0.967      167.758       55.553        0.110      349.142       29.352      860.225
07/24/2014  16:47:00       47.092      239.658      -20.537       70.642      114.058       63.440     4990.269    13009.320     4024.626        4.105        1.101      244.241       71.874        0.087      349.070       29.224      860.217
07/24/2014  16:48:00      -18.186      240.261      -34.853       60.896       56.079       31.174     3708.369     3144.832      971.835        3.355        0.391      240.949       20.310        0.007      349.172       29.401      860.226
07/24/2014  16:49:00      -59.848      161.292      -29.948       46.677       68.224       27.335     2178.743     4654.494      747.205        1.904        0.379      172.038       28.811        0.028      348.996       29.098      860.218
07/24/2014  16:50:00        5.890      101.520      -10.978       64.027      116.376       48.948     4099.512    13543.357     2395.937        1.525        1.002      101.690       54.038        0.282      349.005       29.114      860.178
07/24/2014  16:51:00      -10.049      149.100       -7.707       63.720       67.252       43.278     4060.185     4522.771     1872.945        1.642        0.523      149.438       44.912        0.090      349.255       29.548      860.148
07/24/2014  16:52:00       -5.474      263.238      -47.603       63.464       87.456       32.170     4027.673     7648.550     1034.907        4.215        0.636      263.295       38.511        0.021      349.001       29.104      860.140
07/24/2014  16:53:00      -77.526      195.856      -35.766       58.964       63.523       33.842     3476.713     4035.125     1145.258        2.715        0.433      210.641       21.958        0.011      349.232       29.506      860.095
07/24/2014  16:54:00      -30.840      207.355      -13.309       76.262      125.430       48.069     5815.892    15732.639     2310.586        3.399        1.193      209.636       52.316        0.062      349.601       30.148      860.069
07/24/2014  16:55:00      185.152      143.394       23.998      134.291      107.104       87.364    18034.182    11471.242     7632.540        4.627        1.857      234.186       64.871        0.077      349.299       29.621      860.064
07/24/2014  16:56:00      172.797      121.888       13.986      100.044       71.284       66.282    10008.871     5081.364     4393.352        3.219        0.974      211.460       45.738        0.047      349.206       29.462      860.056
07/24/2014  16:57:00      147.936      106.862       12.712       88.853       71.243       52.382     7894.795     5075.544     2743.901        2.459        0.786      182.495       41.365        0.051      349.221       29.487      860.053
07/24/2014  16:58:00      103.754       79.763        2.057      103.916       70.783       53.846    10798.436     5010.298     2899.420        1.792        0.935      130.870       33.858        0.067      349.287       29.602      860.052
07/24/2014  16:59:00       -5.538      233.610      -25.186       58.055       66.217       40.164     3370.353     4384.650     1613.119        3.230        0.468      233.676       36.033        0.024      349.348       29.707      860.066
07/24/2014  17:00:00      114.797      101.733        7.939      104.052       76.942       46.213    10826.912     5920.122     2135.598        2.123        0.944      153.388       33.366        0.047      349.468       29.916      860.046
07/24/2014  17:01:00      209.230      140.949       26.951      106.002       90.821       69.840    11236.527     8248.465     4877.647        4.436        1.218      252.277       36.559        0.021      349.347       29.705      860.023
07/24/2014  17:02:00       72.775      205.977      -17.831       65.366       98.747       52.491     4272.682     9751.001     2755.353        3.241        0.839      218.455       50.579        0.054      349.252       29.540      860.015
07/24/2014  17:03:00       62.656       55.760       30.191       80.330       75.204       66.714     6452.948     5655.693     4450.756        1.225        0.828       83.874       41.754        0.248      349.493       29.961      859.965
07/24/2014  17:04:00       61.583       23.825        4.645       85.393       84.050       50.528     7291.910     7064.466     2553.129        1.064        0.845       66.031       22.310        0.114      349.623       30.187      859.931
07/24/2014  17:05:00       96.631       43.488       60.607       79.032       62.463       52.678     6246.044     3901.636     2774.966        1.391        0.646      105.966       15.789        0.022      349.508       29.987      859.876
07/24/2014  17:06:00      203.630      122.918       40.480       84.249       64.208       56.225     7097.949     4122.644     3161.258        3.629        0.719      237.853       26.421        0.012      349.485       29.944      859.855
07/24/2014  17:07:00      244.497      130.458       65.188       94.804       76.243       74.065     8987.789     5812.949     5485.664        5.066        1.014      277.125       37.739        0.019      349.363       29.732      859.820
07/24/2014  17:08:00      338.493      181.759       34.050      142.641       99.497       85.915    20346.414     9899.588     7381.461        9.319        1.881      384.205       45.936        0.014      349.428       29.845      859.828
07/24/2014  17:09:00      320.408      214.675       34.723      126.529       91.188       73.630    16009.530     8315.328     5421.314        8.984        1.487      385.677       27.121        0.005      349.244       29.528      859.845
07/24/2014  17:10:00      292.940      178.154       57.468      126.342       96.933       91.442    15962.246     9395.950     8361.633        7.728        1.686      342.859       65.030        0.036      349.266       29.563      859.831
07/24/2014  17:11:00      206.485      132.200       25.733      130.560       98.281       92.538    17045.964     9659.230     8563.272        4.801        1.763      245.179       47.178        0.037      349.226       29.496      859.843
07/24/2014  17:12:00      285.054      234.506       37.302      130.515       77.520       72.999    17034.044     6009.414     5328.785        8.300        1.419      369.119       32.454        0.008      349.117       29.305      859.846
07/24/2014  17:13:00      219.976      133.880       28.081       89.497       78.219       59.656     8009.645     6118.164     3558.881        4.239        0.884      257.513       37.695        0.021      349.173       29.404      859.829
07/24/2014  17:14:00      275.599      137.920       32.911      123.923       94.665       63.296    15356.872     8961.404     4006.443        6.219        1.416      308.183       43.982        0.020      349.241       29.520      859.815
07/24/2014  17:15:00      209.333      113.327       40.197      115.494       89.586       69.063    13338.765     8025.656     4769.647        4.220        1.307      238.040       55.035        0.053      349.372       29.748      859.806
07/24/2014  17:16:00      147.691       63.323       77.016      100.188       86.879       58.163    10037.689     7547.876     3382.955        2.636        1.048      160.694       37.667        0.055      349.268       29.568      859.788
07/24/2014  17:17:00      231.304      151.590       28.791       70.906       47.247       67.223     5027.616     2232.277     4518.880        4.454        0.589      276.552       21.050        0.006      349.249       29.534      859.788
07/24/2014  17:18:00      153.409      270.668        7.473      151.742      164.298       98.881    23025.784    26993.740     9777.365        7.831        2.990      311.120      100.370        0.104      349.222       29.489      859.765
07/24/2014  17:19:00      135.800      174.719      -11.401      114.410      136.243       73.973    13089.672    18562.261     5472.032        4.310        1.856      221.288       65.917        0.089      349.300       29.623      859.779
07/24/2014  17:20:00      159.751       79.185       37.985       91.802       71.917       46.966     8427.538     5172.113     2205.807        2.452        0.790      178.299       21.411        0.014      349.152       29.367      859.785
07/24/2014  17:21:00       62.411       66.215       13.309       94.800       72.916       52.253     8987.085     5316.744     2730.418        1.274        0.852       90.992       45.833        0.254      349.469       29.919      859.788
07/24/2014  17:22:00       81.354      177.944       -2.180       93.397      121.817       73.038     8722.985    14839.486     5334.567        3.359        1.445      195.660       74.751        0.146      349.380       29.762      859.796
07/24/2014  17:23:00       30.346      367.005      -51.685       75.681      106.520       51.658     5727.619    11346.537     2668.591        7.901        0.987      368.257       59.270        0.026      349.232       29.504      859.787
07/24/2014  17:24:00       10.051      256.783      -33.802       65.229      127.627       48.032     4254.877    16288.729     2307.060        4.501        1.143      256.980       56.135        0.048      349.239       29.518      859.801
07/24/2014  17:25:00       35.541      230.336      -18.688       70.066      129.631       59.174     4909.194    16804.311     3501.539        3.994        1.261      233.061       69.140        0.088      349.374       29.752      859.787
07/24/2014  17:26:00       83.534      144.462       -4.079       61.283       72.083       51.188     3755.610     5196.004     2620.238        1.972        0.579      166.875       43.352        0.067      349.226       29.496      859.758
07/24/2014  17:27:00       37.053      172.320       -6.169       63.770      109.564       49.275     4066.649    12004.307     2428.036        2.480        0.925      176.259       63.099        0.128      349.365       29.738      859.753
07/24/2014  17:28:00     -135.044      238.078      -40.960       70.325      102.501       50.210     4945.648    10506.530     2521.078        4.728        0.899      273.712       46.040        0.028      349.409       29.813      859.752
07/24/2014  17:29:00      -27.625      209.477      -30.520       42.539       67.862       27.171     1809.525     4605.307      738.276        2.636        0.358      211.291       21.405        0.010      349.240       29.520      859.739
07/24/2014  17:30:00      -48.384      102.553      -12.192       48.448       41.097       29.343     2347.175     1688.929      860.999        0.895        0.245      113.394       29.476        0.068      349.332       29.682      859.700
07/24/2014  17:31:00       67.440       84.834        5.397       97.463       62.099       40.852     9499.052     3856.305     1668.917        1.340        0.751      108.374       21.979        0.041      349.389       29.781      859.681
07/24/2014  17:32:00       77.729       76.232        9.984       80.853       51.070       40.396     6537.252     2608.168     1631.862        1.136        0.539      108.872       28.918        0.071      349.418       29.833      859.661
07/24/2014  17:33:00       21.404      200.464      -15.040      140.971      105.662       72.812    19872.905    11164.512     5301.585        3.860        1.817      201.604       73.039        0.131      349.523       30.009      859.650
07/24/2014  17:34:00      -32.585      180.432      -16.418       59.829       65.043       34.528     3579.483     4230.557     1192.189        2.144        0.450      183.351       26.280        0.021      349.776       30.450      859.660
07/24/2014  17:35:00       59.774      157.370       -6.873       85.276      125.318       63.401     7272.051    15704.708     4019.712        2.769        1.350      168.340       73.278        0.189      349.629       30.196      859.656
07/24/2014  17:36:00      108.840      230.346      -16.237       94.044      115.359       93.622     8844.349    13307.735     8765.061        4.804        1.546      254.765       84.730        0.111      349.287       29.599      859.646
07/24/2014  17:37:00       31.392      248.752      -31.606       64.857       69.488       46.785     4206.492     4828.522     2188.838        3.754        0.561      250.725       42.020        0.028      349.240       29.518      859.644
07/24/2014  17:38:00       83.607      140.726       -4.041       98.832       78.169       61.946     9767.839     6110.320     3837.272        2.326        0.986      163.688       54.137        0.109      349.362       29.731      859.641
07/24/2014  17:39:00       56.073      133.226       -9.166       62.945      101.776       54.025     3962.098    10358.342     2918.663        1.910        0.862      144.546       61.143        0.179      349.284       29.598      859.642
07/24/2014  17:40:00       60.153      158.557       -9.360       84.462      102.355       58.928     7133.829    10476.629     3472.562        2.496        1.054      169.584       58.017        0.117      349.334       29.683      859.641
07/24/2014  17:41:00       36.409      244.252      -35.683       73.216       87.520       41.460     5360.628     7659.750     1718.952        3.850        0.737      246.951       41.660        0.028      349.377       29.756      859.624
07/24/2014  17:42:00      -14.157      251.743      -25.768       86.989      151.929       52.734     7567.050    23082.324     2780.857        4.883        1.672      252.141       68.443        0.074      349.355       29.718      859.619
07/24/2014  17:43:00      -36.301      303.444      -40.512       58.106      120.624       42.160     3376.253    14550.269     1777.439        5.737        0.985      305.608       53.673        0.031      349.119       29.308      859.627
07/24/2014  17:44:00       36.379      156.777      -14.199       62.061       76.911       53.608     3851.605     5915.320     2873.860        1.937        0.632      160.943       48.559        0.091      349.329       29.674      859.620
07/24/2014  17:45:00      -43.515      160.669      -23.050       57.860      101.682       35.969     3347.733    10339.275     1293.757        2.161        0.749      166.458       40.990        0.061      349.545       30.050      859.622
07/24/2014  17:46:00     -127.379      225.937      -36.281       65.269       80.403       44.957     4259.993     6464.655     2021.100        4.067        0.637      259.371       32.051        0.015      349.380       29.761      859.628
07/24/2014  17:47:00     -116.975      175.592      -19.784       94.519       69.819       51.175     8933.785     4874.702     2618.926        3.066        0.821      210.988       40.175        0.036      349.413       29.819      859.608
07/24/2014  17:48:00       -3.908      196.603       -7.815       87.763       94.759       51.229     7702.395     8979.247     2624.411        2.901        0.965      196.642       40.630        0.043      349.531       30.023      859.600
07/24/2014  17:49:00      103.202      224.736      -13.120       92.139      129.020       66.448     8489.624    16646.226     4415.397        4.543        1.478      247.299       70.213        0.081      349.391       29.781      859.614
07/24/2014  17:50:00       76.290      230.997      -29.990      108.595       94.325       54.524    11792.932     8897.120     2972.872        4.187        1.183      243.269       61.383        0.064      349.295       29.615      859.623
07/24/2014  17:51:00       26.007      185.692      -40.172       45.933       42.977       24.383     2109.810     1846.997      594.528        2.066        0.228      187.504       19.235        0.011      349.410       29.816      859.620
07/24/2014  17:52:00       72.131      111.279        0.789       54.750       74.909       58.468     2997.583     5611.311     3418.539        1.480        0.601      132.612       47.823        0.130      349.450       29.887      859.603
07/24/2014  17:53:00      101.594      107.819       15.734       96.141       78.028       55.024     9243.094     6088.403     3027.625        2.027        0.918      148.143       47.292        0.102      349.350       29.713      859.589
07/24/2014  17:54:00       80.914      103.610       -4.643       57.081       73.746       48.885     3258.243     5438.492     2389.716        1.419        0.554      131.462       40.332        0.094      349.350       29.713      859.570
07/24/2014  17:55:00      116.681      181.821        2.010      115.910       91.873       69.832    13435.057     8440.653     4876.484        3.671        1.338      216.040       49.401        0.052      349.346       29.703      859.565
07/24/2014  17:56:00      180.664      196.160       10.430      117.497      122.525       80.257    13805.623    15012.279     6441.261        5.324        1.763      266.680       68.730        0.066      349.230       29.502      859.548
07/24/2014  17:57:00       71.282      217.010      -25.542       76.383      136.477       57.029     5834.371    18626.015     3252.306        4.026        1.386      228.418       61.794        0.073      349.297       29.618      859.557
07/24/2014  17:58:00       58.452      179.554      -10.175       67.857      114.269       64.677     4604.516    13057.508     4183.125        2.880        1.092      188.829       68.841        0.133      349.360       29.727      859.567
07/24/2014  17:59:00       82.694      150.846       -4.778      101.246      103.169       60.854    10250.821    10643.934     3703.159        2.710        1.230      172.026       57.347        0.111      349.408       29.810      859.570
07/24/2014  18:00:00      156.258      136.147       -2.230      100.652       55.577       45.953    10130.761     3088.820     2111.664        2.914        0.767      207.250       18.290        0.008      349.225       29.494      859.571
07/24/2014  18:01:00       67.996      234.650      -29.481       65.735      120.385       64.123     4321.105    14492.662     4111.804        4.173        1.146      244.304       70.540        0.083      349.208       29.464      859.588
07/24/2014  18:02:00       77.440       64.424       12.065       73.559       48.054       37.211     5410.912     2309.211     1384.683        0.970        0.455      100.734       34.753        0.119      349.306       29.639      859.584
07/24/2014  18:03:00       49.103       99.694      -13.398       53.244       61.972       31.865     2834.887     3840.589     1015.350        1.011        0.385      111.131       32.554        0.086      349.255       29.547      859.574
07/24/2014  18:04:00      110.576      104.483       15.287       96.814       53.378       53.672     9372.921     2849.163     2880.669        1.924        0.755      152.131       32.102        0.045      349.201       29.454      859.568
07/24/2014  18:05:00       79.366      223.361       -6.562       94.753      127.869       76.221     8978.155    16350.386     5809.708        4.368        1.557      237.043       70.959        0.090      349.255       29.545      859.567
07/24/2014  18:06:00       59.532      196.454      -14.035       75.023      127.394       75.272     5628.525    16229.251     5665.915        3.492        1.376      205.276       83.349        0.165      349.292       29.610      859.578
07/24/2014  18:07:00      -11.033      269.278      -23.147       86.606      137.734       66.165     7500.632    18970.597     4377.804        5.200        1.542      269.504       72.233        0.072      349.369       29.743      859.580
07/24/2014  18:08:00       53.120      200.116       -6.941       81.900      112.763       65.481     6707.686    12715.479     4287.696        3.331        1.186      207.046       64.535        0.097      349.316       29.652      859.595
07/24/2014  18:09:00       51.526      155.140      -19.878       82.721       75.738       60.095     6842.789     5736.273     3611.425        2.165        0.810      163.472       55.430        0.115      349.333       29.682      859.577
07/24/2014  18:10:00      -93.160      267.322      -49.182      106.490       94.607       39.795    11340.148     8950.473     1583.614        5.221        1.094      283.090       36.484        0.017      349.267       29.565      859.571
07/24/2014  18:11:00     -190.615      165.593      -46.907       73.615       82.276       45.437     5419.162     6769.264     2064.534        4.010        0.713      252.498       51.370        0.041      349.360       29.727      859.547
07/24/2014  18:12:00      -26.012      144.828       -3.242       53.276       78.189       40.407     2838.350     6113.466     1632.727        1.612        0.529      147.146       41.070        0.078      349.334       29.684      859.570
07/24/2014  18:13:00       39.601       75.169        7.302       76.145       46.184       38.266     5798.072     2133.008     1464.322        0.833        0.470       84.962       35.012        0.170      349.437       29.864      859.571
07/24/2014  18:14:00      116.256      228.898       -8.371      102.825      113.677       83.222    10572.986    12922.459     6925.830        4.819        1.521      256.729       74.211        0.084      349.308       29.636      859.571
07/24/2014  18:15:00       94.281      208.314        0.087       93.818      128.932       85.208     8801.867    16623.446     7260.405        4.248        1.634      228.656       81.272        0.126      349.208       29.465      859.577
07/24/2014  18:16:00       61.282      231.113      -12.599      103.785      147.659       82.016    10771.368    21803.053     6726.621        4.831        1.965      239.100       81.716        0.117      349.222       29.488      859.573
07/24/2014  18:17:00       61.740      232.418      -28.323       63.518      115.166       50.874     4034.534    13263.216     2588.204        3.926        0.994      240.478       56.950        0.056      349.278       29.586      859.554
07/24/2014  18:18:00      157.602      110.007       15.109       87.415       69.647       43.910     7641.465     4850.761     1928.046        2.579        0.721      192.198       26.128        0.018      349.305       29.632      859.547
07/24/2014  18:19:00      267.165      147.332       16.153      107.827       71.147       61.895    11626.618     5061.884     3831.002        5.693        1.026      305.096       20.792        0.005      349.222       29.487      859.527
07/24/2014  18:20:00      173.504      111.385       34.622       93.093       74.723       64.012     8666.291     5583.502     4097.527        3.102        0.917      206.180       49.134        0.057      349.217       29.479      859.522
07/24/2014  18:21:00      118.837       93.801       11.520      103.888       58.885       61.193    10792.790     3467.473     3744.575        2.053        0.900      151.397       17.738        0.014      349.302       29.628      859.535
07/24/2014  18:22:00       18.459      181.837      -14.552       72.257      123.241       47.419     5221.027    15188.242     2248.527        2.813        1.133      182.772       57.288        0.098      349.316       29.653      859.555
07/24/2014  18:23:00       97.701      181.739       -5.747       69.554      107.316       64.594     4837.771    11516.830     4172.417        3.156        1.026      206.336       62.120        0.091      349.298       29.621      859.562
07/24/2014  18:24:00       74.305      215.526      -14.160       74.347      117.625       69.683     5527.500    13835.743     4855.729        3.819        1.211      227.975       74.019        0.105      349.276       29.583      859.574
07/24/2014  18:25:00       48.671      119.421       -0.681       84.661      103.952       75.493     7167.430    10805.972     5699.179        2.015        1.184      128.959       67.841        0.277      349.371       29.748      859.569
07/24/2014  18:26:00      -20.635      249.846      -29.169       82.171       87.301       48.104     6752.016     7621.471     2314.001        4.019        0.834      250.697       44.443        0.031      349.396       29.789      859.585
07/24/2014  18:27:00      -57.059      361.445      -49.247       60.956       95.796       41.677     3715.585     9176.880     1736.968        7.547        0.731      365.921       49.856        0.019      349.215       29.477      859.596
07/24/2014  18:28:00       -9.610      261.770      -32.567       52.049       54.603       29.496     2709.089     2981.481      870.041        3.812        0.328      261.946       27.327        0.011      349.343       29.696      859.580
07/24/2014  18:29:00      -35.946      260.266      -42.260       81.820       91.665       35.460     6694.552     8402.531     1257.428        4.358        0.818      262.737       40.268        0.023      349.182       29.417      859.579
07/24/2014  18:30:00      -26.101      153.891      -24.059       60.922       44.891       32.639     3711.523     2015.166     1065.322        1.587        0.340      156.089       30.912        0.039      349.107       29.292      859.560
07/24/2014  18:31:00      -20.310      171.284      -18.346       50.995       57.949       37.744     2600.485     3358.075     1424.608        1.873        0.369      172.484       36.151        0.044      349.186       29.429      859.547
07/24/2014  18:32:00       58.800      148.815      -17.760      100.440       67.444       34.184    10088.211     4548.749     1168.548        2.086        0.790      160.010       28.865        0.033      349.227       29.498      859.549
07/24/2014  18:33:00      119.550      123.650       -6.509       92.687       74.211       56.311     8590.965     5507.268     3170.942        2.344        0.863      171.992       45.993        0.072      349.228       29.499      859.549
07/24/2014  18:34:00       85.003      102.892        0.266       64.580       63.676       47.395     4170.534     4054.587     2246.240        1.414        0.524      133.463       38.895        0.085      349.229       29.502      859.559
07/24/2014  18:35:00      159.635      154.118       30.188      139.853       76.558       65.561    19558.903     5861.162     4298.199        3.993        1.486      221.891       54.768        0.061      349.105       29.285      859.562
07/24/2014  18:36:00      275.061      206.920        5.852      150.834      138.888       90.882    22750.773    19289.761     8259.545        8.439        2.515      344.201       75.940        0.049      349.030       29.155      859.561
07/24/2014  18:37:00      164.359      130.509       19.832      139.152       93.242       71.198    19363.142     8694.151     5069.121        3.878        1.656      209.873       51.374        0.060      349.035       29.165      859.573
07/24/2014  18:38:00      355.395      234.171       51.012      165.271      156.029      102.676    27314.364    24345.078    10542.347       12.296        3.110      425.608       55.284        0.017      348.982       29.072      859.536
07/24/2014  18:39:00      352.997      217.324       57.367      146.691      128.486       89.281    21518.221    16508.769     7971.152       11.055        2.300      414.532       66.095        0.025      349.011       29.122      859.530
07/24/2014  18:40:00      206.721      144.409       11.387      132.432       87.352       58.705    17538.252     7630.323     3446.256        4.616        1.431      252.166       33.445        0.018      349.096       29.272      859.586
07/24/2014  18:41:00       96.344       80.102       16.197       93.226       66.469       56.718     8691.095     4418.144     3216.902        1.614        0.816      125.293       36.337        0.084      349.146       29.359      859.603
07/24/2014  18:42:00      127.051      167.679        1.122      101.013      112.556       71.334    10203.577    12668.945     5088.503        3.610        1.398      210.376       64.789        0.095      349.056       29.202      859.623
07/24/2014  18:43:00       65.169      199.009      -25.653       85.797      138.498       54.676     7361.187    19181.708     2989.416        3.702        1.477      209.407       68.153        0.106      349.068       29.222      859.651
07/24/2014  18:44:00      206.114      172.100       27.103      159.159      110.722       69.383    25331.582    12259.442     4814.045        5.761        2.120      268.517       43.059        0.026      349.068       29.220      859.657
07/24/2014  18:45:00      211.938      156.382       18.616      134.989       93.871       80.289    18222.085     8811.673     6446.402        5.159        1.674      263.387       53.996        0.042      349.019       29.138      859.678
07/24/2014  18:46:00      163.678      170.541       11.167      112.764       83.377       74.840    12715.644     6951.723     5601.027        4.063        1.263      236.379       46.544        0.039      348.988       29.084      859.685
07/24/2014  18:47:00       72.746      200.728      -25.136       80.177      127.816       73.632     6428.296    16336.990     5421.625        3.720        1.409      213.504       78.933        0.137      348.960       29.035      859.694
07/24/2014  18:48:00      118.461      126.365       20.728      100.996       78.130       66.053    10200.149     6104.310     4363.042        2.555        1.033      173.209       46.958        0.073      349.040       29.173      859.684
07/24/2014  18:49:00      152.512      172.831        9.050      103.007       93.849       72.880    10610.469     8807.595     5311.519        3.897        1.236      230.500       52.617        0.052      349.035       29.163      859.665
07/24/2014  18:50:00       87.024      162.410        0.182      164.695       99.613       69.353    27124.449     9922.809     4809.888        3.790        2.093      184.256       57.704        0.098      349.018       29.136      859.668
07/24/2014  18:51:00      100.984       91.689       16.401       80.811       66.616       54.452     6530.415     4437.661     2964.984        1.640        0.697      136.399       48.950        0.129      349.086       29.254      859.672
07/24/2014  18:52:00       75.790      147.320       -2.844       83.840       70.258       47.433     7029.182     4936.188     2249.904        2.083        0.711      165.672       29.253        0.031      349.065       29.218      859.669
07/24/2014  18:53:00       76.591      156.474      -11.904       73.168      114.841       65.602     5353.518    13188.565     4303.598        2.666        1.142      174.214       61.289        0.124      348.999       29.105      859.684
07/24/2014  18:54:00       77.583      125.594       -6.769       82.218       81.159       60.552     6759.780     6586.852     3666.531        1.942        0.851      147.624       51.767        0.123      349.008       29.120      859.678
07/24/2014  18:55:00      103.326      115.336        3.575      100.868       88.229       73.720    10174.294     7784.343     5434.590        2.369        1.170      154.851       46.846        0.092      348.934       28.991      859.683
07/24/2014  18:56:00       64.908      101.984       -4.651       59.565       74.432       39.937     3548.013     5540.050     1594.958        1.266        0.534      120.887       40.369        0.112      348.963       29.041      859.680
07/24/2014  18:57:00       56.974      193.224      -24.757       85.880       91.980       49.810     7375.455     8460.394     2481.081        2.975        0.916      201.448       42.752        0.045      348.966       29.046      859.678
07/24/2014  18:58:00       67.379      224.750      -21.354       98.891      117.216       74.206     9779.340    13739.536     5506.476        4.226        1.451      234.633       74.553        0.101      348.889       28.910      859.671
07/24/2014  18:59:00      125.228      129.899       14.266       87.894       93.553       70.403     7725.270     8752.240     4956.567        2.709        1.072      180.432       55.892        0.096      348.889       28.912      859.676
07/24/2014  19:00:00       90.021      176.151      -21.877       68.600      122.801       55.378     4706.007    15080.130     3066.672        3.123        1.143      197.820       62.652        0.100      348.930       28.982      859.679
07/24/2014  19:01:00       76.023      111.425        0.438       81.686       90.795       52.791     6672.597     8243.701     2786.886        1.795        0.885      134.889       50.011        0.137      348.908       28.945      859.666
07/24/2014  19:02:00      100.542       88.983        9.309       83.856       56.153       38.814     7031.802     3153.170     1506.556        1.490        0.585      134.263       30.392        0.051      348.903       28.939      859.663
07/24/2014  19:03:00      145.275      118.780       10.466      147.665       68.310       53.554    21804.994     4666.242     2868.064        3.233        1.467      187.652       39.246        0.044      348.821       28.797      859.655
07/24/2014  19:04:00      190.523      162.706       30.704      137.257       91.199       75.894    18839.562     8317.314     5759.925        4.831        1.646      250.544       42.944        0.029      348.800       28.757      859.650
07/24/2014  19:05:00       95.508      111.998        7.210       84.044      100.252       66.301     7063.425    10050.509     4395.846        2.161        1.075      147.191       59.227        0.162      348.814       28.784      859.667
07/24/2014  19:06:00      214.944      129.580       15.722      128.535       84.406       57.750    16521.374     7124.411     3335.063        4.510        1.349      250.982       32.222        0.016      348.779       28.722      859.672
07/24/2014  19:07:00      197.469      186.565       -0.438      146.558      122.101       99.695    21479.235    14908.568     9939.183        6.005        2.316      271.662       79.663        0.086      348.643       28.486      859.650
07/24/2014  19:08:00      175.463      203.522       -3.240      116.155       99.547       73.667    13492.068     9909.508     5426.858        5.052        1.441      268.717       67.460        0.063      348.655       28.506      859.671
07/24/2014  19:09:00      175.379      209.049       -5.049      112.286      122.167       85.138    12608.254    14924.685     7248.482        5.463        1.739      272.872       82.521        0.091      348.652       28.500      859.673
07/24/2014  19:10:00      212.694      129.729       12.476       96.954       67.681       59.715     9400.109     4580.768     3565.902        3.988        0.877      249.135       37.198        0.022      348.660       28.514      859.691
07/24/2014  19:11:00      148.861      149.586       20.514      122.841       90.706       68.762    15089.831     8227.503     4728.159        3.650        1.402      211.034       48.728        0.053      348.646       28.490      859.711
07/24/2014  19:12:00       69.384      216.864       -5.982      103.244      200.577       67.909    10659.251    40230.989     4611.617        5.368        2.775      227.692       92.559        0.165      348.589       28.391      859.734
07/24/2014  19:13:00      246.897      198.542       23.487      195.066      133.659       80.704    38050.584    17864.627     6513.145        8.167        3.121      316.824       42.524        0.018      348.551       28.326      859.730
07/24/2014  19:14:00      234.422      193.041       28.584      161.263      123.122      100.427    26005.695    15159.002    10085.657        7.213        2.563      303.675       80.168        0.070      348.477       28.197      859.751
07/24/2014  19:15:00      171.668      121.359       13.307      158.237       95.227       66.882    25038.797     9068.213     4473.152        4.147        1.929      210.233       52.257        0.062      348.481       28.207      859.756
07/24/2014  19:16:00      221.309      164.629       49.761      127.759       98.799       75.114    16322.334     9761.279     5642.083        5.513        1.586      275.826       48.913        0.031      348.496       28.232      859.762
07/24/2014  19:17:00      307.640      249.558       38.083      179.334      129.127       96.668    32160.633    16673.848     9344.641       10.826        2.909      396.133       67.466        0.029      348.464       28.176      859.757
07/24/2014  19:18:00      146.784      203.935       15.193      143.878      125.936       99.800    20700.749    15859.840     9959.947        5.493        2.326      251.267       68.224        0.074      348.452       28.157      859.771
07/24/2014  19:19:00      119.589      125.388        7.273      105.020       90.742       56.094    11029.207     8234.039     3146.489        2.624        1.120      173.273       50.833        0.086      348.486       28.215      859.792
07/24/2014  19:20:00       96.567      181.182      -19.394       82.882      118.151       67.866     6869.447    13959.657     4605.836        3.398        1.272      205.310       61.344        0.089      348.455       28.161      859.791
07/24/2014  19:21:00      142.185      133.714        6.404      106.609      126.765       71.910    11365.583    16069.319     5171.024        3.536        1.630      195.182       67.609        0.120      348.403       28.070      859.774
07/24/2014  19:22:00      170.043      245.302        8.903      145.491      141.021       91.415    21167.511    19886.793     8356.790        6.928        2.471      298.476       84.532        0.080      348.355       27.987      859.778
07/24/2014  19:23:00      142.708      187.371      -13.997      115.575       99.974       71.033    13357.529     9994.802     5045.742        4.203        1.420      235.528       57.517        0.060      348.328       27.941      859.796
07/24/2014  19:24:00      159.433      189.082        7.068      125.353       96.435       94.980    15713.289     9299.756     9021.193        4.762        1.702      247.328       70.709        0.082      348.287       27.869      859.789
07/24/2014  19:25:00      192.316      197.651       28.635      161.358      116.322       99.403    26036.323    13530.773     9881.012        6.315        2.472      275.774       83.653        0.092      348.320       27.926      859.786
07/24/2014  19:26:00      142.902      158.388        4.998      135.500       90.747       80.075    18360.382     8234.978     6411.934        3.926        1.650      213.325       60.095        0.079      348.312       27.912      859.787
07/24/2014  19:27:00      125.271      127.416       21.030      137.748      127.485       76.302    18974.379    16252.423     5822.071        3.670        2.052      178.683       57.484        0.103      348.291       27.876      859.790
07/24/2014  19:28:00      282.656      196.969       17.257      145.773      111.920       80.168    21249.694    12526.032     6426.842        7.959        2.010      344.516       45.482        0.017      348.260       27.823      859.806
07/24/2014  19:29:00      178.849      158.639       20.871      145.653      103.341       65.527    21214.666    10679.311     4293.725        4.688        1.809      239.067       55.201        0.053      348.248       27.803      859.822
07/24/2014  19:30:00      150.817      180.612       12.135      111.235      124.141       94.025    12373.125    15410.988     8840.689        4.606        1.831      235.301       84.390        0.129      348.274       27.846      859.836
07/24/2014  19:31:00      187.731      140.364       14.841      102.978       78.676       60.503    10604.536     6189.917     3660.614        3.781        1.023      234.404       41.490        0.031      348.235       27.780      859.851
07/24/2014  19:32:00      135.309       83.208       24.023       96.546       71.525       59.186     9321.112     5115.821     3502.996        2.187        0.897      158.846       32.966        0.043      348.244       27.797      859.867
07/24/2014  19:33:00      183.492      205.523       17.523      148.977      117.880       92.236    22194.288    13895.613     8507.542        6.040        2.230      275.516       82.840        0.090      348.253       27.810      859.883
07/24/2014  19:34:00       25.286      332.202      -38.184       93.953      117.071       57.166     8827.213    13705.732     3267.916        6.912        1.290      333.163       60.538        0.033      348.238       27.784      859.916
07/24/2014  19:35:00       80.012      338.653      -36.253       97.235      187.747       82.771     9454.617    35248.786     6850.981        8.697        2.578      347.976       93.236        0.072      348.206       27.729      859.944
07/24/2014  19:36:00       32.571      313.847      -21.765      121.420      220.495       84.204    14742.720    48618.015     7090.354        8.523        3.523      315.532      113.764        0.130      348.198       27.715      859.967
07/24/2014  19:37:00       16.435      413.682      -50.394       90.816      195.778       63.240     8247.530    38329.109     3999.301       11.225        2.529      414.009       87.078        0.044      348.203       27.725      859.988
07/24/2014  19:38:00       22.951      370.716      -55.636       86.041      143.669       57.661     7403.043    20640.869     3324.790        8.620        1.568      371.426       71.964        0.038      348.205       27.728      860.002
07/24/2014  19:39:00       30.503      435.606      -54.117       99.845      165.288       60.117     9968.998    27320.248     3614.064       11.725        2.045      436.672       80.843        0.034      348.194       27.710      860.014
07/24/2014  19:40:00       47.644      200.982      -15.033       79.123      100.584       69.536     6260.409    10117.128     4835.302        3.205        1.061      206.552       68.067        0.109      348.190       27.702      860.006
07/24/2014  19:41:00      -76.069      338.642      -39.375       67.840       93.017       51.035     4602.297     8652.161     2604.542        6.893        0.793      347.080       47.981        0.019      348.194       27.709      860.008
07/24/2014  19:42:00      -22.402      336.397      -45.683      108.865      142.706       56.537    11851.483    20364.962     3196.407        7.558        1.771      337.142       63.333        0.035      348.175       27.674      860.013
07/24/2014  19:43:00      -42.886      417.841      -59.397       72.989       86.440       40.939     5327.379     7471.834     1675.972        9.721        0.724      420.036       37.195        0.008      348.209       27.735      860.015
07/24/2014  19:44:00      -94.046      281.588      -28.918       95.695      132.460       61.591     9157.527    17545.777     3793.450        5.973        1.525      296.878       65.151        0.048      348.172       27.671      860.017
07/24/2014  19:45:00      -14.537      254.176      -34.650       77.205      137.115       47.076     5960.545    18800.413     2216.169        4.649        1.349      254.591       61.946        0.059      348.192       27.706      860.017
07/24/2014  19:46:00      -45.090      283.093      -35.392       58.375       87.500       43.758     3407.658     7656.187     1914.753        4.820        0.649      286.661       48.080        0.028      348.175       27.675      860.015
07/24/2014  19:47:00       -8.611      390.109      -54.651       86.641      120.024       63.464     7506.657    14405.652     4027.683        9.059        1.297      390.204       71.376        0.033      348.170       27.667      859.992
07/24/2014  19:48:00      -13.282      262.120      -40.296       75.605      124.484       53.534     5716.159    15496.187     2865.934        4.729        1.204      262.456       67.411        0.066      348.151       27.634      859.991
07/24/2014  19:49:00      -39.884      274.434      -40.717       55.836       92.757       49.914     3117.639     8603.936     2491.361        4.638        0.711      277.317       46.430        0.028      348.118       27.575      860.007
07/24/2014  19:50:00      -29.523      364.279      -42.250      104.775       92.491       57.606    10977.720     8554.569     3318.470        7.910        1.143      365.474       58.419        0.026      348.140       27.615      859.998
07/24/2014  19:51:00      -21.438      371.527      -54.000       66.392       79.770       35.210     4407.902     6363.178     1239.726        7.671        0.601      372.145       29.823        0.006      348.145       27.623      860.012
07/24/2014  19:52:00       29.682       98.248        7.876       53.603       99.672       45.336     2873.328     9934.513     2055.328        1.273        0.743      102.633       51.206        0.249      348.066       27.489      860.024
07/24/2014  19:53:00       37.870      199.885      -25.311       52.833       94.686       52.726     2791.292     8965.522     2779.998        2.828        0.727      203.441       52.470        0.067      348.067       27.490      860.031
07/24/2014  19:54:00       -7.423      225.169      -31.364       85.322      108.517       53.121     7279.881    11776.011     2821.819        3.680        1.094      225.292       61.398        0.074      348.062       27.479      860.036
07/24/2014  19:55:00       54.386      240.198      -27.506       68.887      130.654       61.325     4745.400    17070.423     3760.817        4.349        1.279      246.278       70.085        0.081      348.051       27.462      860.053
07/24/2014  19:56:00       25.026      194.715       -2.802       67.477       83.504       55.739     4553.164     6972.851     3106.841        2.659        0.732      196.316       55.442        0.080      348.000       27.375      860.056
07/24/2014  19:57:00       34.661      166.301      -14.959       66.031       74.315       46.180     4360.085     5522.758     2132.626        2.055        0.601      169.875       37.466        0.049      347.986       27.352      860.062
07/24/2014  19:58:00       15.261      161.988      -19.146       53.643       92.230       41.859     2877.608     8506.343     1752.204        1.999        0.657      162.705       48.887        0.090      347.973       27.327      860.074
07/24/2014  19:59:00        5.996      130.665      -21.431       59.546      101.998       33.650     3545.760    10403.586     1132.320        1.632        0.754      130.803       37.688        0.083      347.945       27.281      860.069
07/24/2014  20:00:00       51.873      203.590      -18.793       57.054       95.622       49.621     3255.186     9143.596     2462.287        2.967        0.743      210.095       53.114        0.064      347.960       27.305      860.067
07/24/2014  20:01:00       62.631      159.145      -12.811       82.296      102.254       56.687     6772.558    10455.913     3213.422        2.492        1.022      171.025       56.524        0.109      347.965       27.314      860.071
07/24/2014  20:02:00       16.518      271.615      -33.414       55.456       88.228       52.315     3075.340     7784.200     2736.876        4.438        0.680      272.117       52.400        0.037      347.968       27.318      860.057
07/24/2014  20:03:00       25.969      258.258      -22.597       71.664      146.718       64.809     5135.725    21526.219     4200.169        4.937        1.543      259.561       81.180        0.098      347.952       27.291      860.061
07/24/2014  20:04:00       43.303      189.612      -17.747       71.723      107.898       50.250     5144.242    11641.992     2525.107        2.872        0.966      194.494       58.102        0.089      347.957       27.298      860.051
07/24/2014  20:05:00       34.015      193.741      -23.508       55.063      112.402       50.165     3031.930    12634.121     2516.528        2.871        0.909      196.704       63.031        0.103      347.953       27.292      860.053
07/24/2014  20:06:00       -8.236      182.149      -29.162       46.298       41.170       23.706     2143.546     1694.994      561.969        1.925        0.220      182.335       18.537        0.010      347.937       27.266      860.058
07/24/2014  20:07:00      -29.802      164.463      -26.949       47.070       53.160       31.880     2215.603     2826.030     1016.336        1.736        0.303      167.141       24.353        0.021      347.939       27.271      860.059
07/24/2014  20:08:00        6.684      206.158      -30.598       54.125       65.400       32.857     2929.561     4277.185     1079.565        2.588        0.414      206.266       30.902        0.022      347.953       27.292      860.069
07/24/2014  20:09:00       21.288      247.959      -28.171       78.142       91.728       46.873     6106.205     8413.976     2197.083        3.972        0.836      248.871       46.254        0.035      347.964       27.312      860.058
07/24/2014  20:10:00       -4.586      204.134      -29.619       38.448       70.922       23.703     1478.231     5029.935      561.842        2.482        0.354      204.185       31.163        0.023      347.953       27.292      860.072
07/24/2014  20:11:00        7.580      110.255      -13.731       47.964       54.856       30.844     2300.539     3009.221      951.323        0.933        0.313      110.516       31.349        0.080      347.859       27.133      860.076
07/24/2014  20:12:00       26.447      152.226        2.769       55.770       96.955       62.205     3110.241     9400.330     3869.512        2.013        0.819      154.506       61.696        0.159      347.931       27.256      860.083
07/24/2014  20:13:00       12.289      109.045       -7.806       47.429       66.571       41.971     2249.494     4431.671     1761.580        1.027        0.422      109.735       40.869        0.139      347.898       27.201      860.090
07/24/2014  20:14:00       36.518      177.544      -25.055       38.813       51.040       26.950     1506.466     2605.035      726.297        1.916        0.242      181.261       26.789        0.022      347.966       27.316      860.107
07/24/2014  20:15:00       28.027       98.673       -8.549       43.226       62.758       32.724     1868.504     3938.558     1070.892        0.874        0.344      102.576       32.194        0.099      347.901       27.205      860.117
07/24/2014  20:16:00       70.664      153.911      -16.681       68.262       69.162       53.265     4659.697     4783.348     2837.156        2.062        0.614      169.358       40.054        0.056      347.941       27.273      860.112
07/24/2014  20:17:00       80.973       89.354        2.978       58.413       54.448       44.019     3412.093     2964.591     1937.634        1.143        0.416      120.585       34.461        0.082      347.831       27.084      860.114
07/24/2014  20:18:00       23.501      121.375      -24.596       58.001       68.801       38.171     3364.082     4733.629     1457.061        1.272        0.478      123.630       37.229        0.091      347.804       27.038      860.115
07/24/2014  20:19:00       54.945      101.251      -21.051       35.318       46.907       24.234     1247.347     2200.265      587.298        0.887        0.202      115.199       25.264        0.048      347.793       27.019      860.133
07/24/2014  20:20:00       64.432       77.766        1.036       36.525       47.941       35.797     1334.068     2298.346     1281.444        0.756        0.246      100.990       32.294        0.102      347.793       27.019      860.126
07/24/2014  20:21:00       61.559       41.534       20.083       53.736       36.350       27.002     2887.578     1321.310      729.118        0.543        0.247       74.260       20.034        0.073      347.692       26.846      860.143
07/24/2014  20:22:00       96.485       58.886        6.987       42.380       31.589       23.936     1796.062      997.896      572.930        0.810        0.168      113.035       10.598        0.009      347.713       26.882      860.147
07/24/2014  20:23:00       48.867       63.925        5.807       44.608       29.166       24.211     1989.872      850.669      586.165        0.497        0.171       80.463       22.838        0.081      347.681       26.827      860.166
07/24/2014  20:24:00       54.304       41.910       13.445       58.085       24.217       21.199     3373.845      586.445      449.385        0.465        0.220       68.596       26.725        0.152      347.700       26.861      860.168
07/24/2014  20:25:00       13.308       58.677        3.829       42.995       46.197       25.097     1848.600     2134.175      629.837        0.412        0.231       60.167       25.405        0.178      347.621       26.723      860.182
07/24/2014  20:26:00      -21.410       26.021       -8.834       28.345       24.602        8.083      803.455      605.246       65.328        0.134        0.074       33.697        7.159        0.045      347.720       26.892      860.180
07/24/2014  20:27:00      -38.897       54.351      -10.088       18.551       32.574       16.230      344.151     1061.080      263.415        0.312        0.083       66.836       15.990        0.057      347.653       26.779      860.190
07/24/2014  20:28:00      -64.068       70.120      -20.676       31.352       23.861       13.224      982.977      569.348      174.880        0.559        0.086       94.982       11.466        0.015      347.766       26.975      860.192
07/24/2014  20:29:00        1.795       84.195      -14.890       24.308       22.121       12.211      590.903      489.349      149.114        0.427        0.061       84.214       10.412        0.015      347.825       27.077      860.207
07/24/2014  20:30:00       20.064       54.876        0.537       27.974       46.794       24.510      782.537     2189.638      600.732        0.349        0.179       58.429       25.594        0.192      347.706       26.870      860.206
07/24/2014  20:31:00      -23.665      139.166      -21.402       61.469       90.736       32.873     3778.478     8233.002     1080.624        1.674        0.655      141.163       43.378        0.094      347.778       26.992      860.227
07/24/2014  20:32:00      -85.851      133.137      -15.375       41.334       66.513       30.862     1708.505     4423.966      952.476        1.621        0.354      158.417       27.730        0.031      347.748       26.941      860.234
07/24/2014  20:33:00      -69.383       86.616      -16.241       37.391       38.705       25.067     1398.067     1498.063      628.345        0.805        0.176      110.979       20.844        0.035      347.689       26.841      860.264
07/24/2014  20:34:00     -117.558       52.350      -15.284       76.458       45.536       23.519     5845.774     2073.503      553.132        1.263        0.424      128.687       17.878        0.019      347.740       26.927      860.272
07/24/2014  20:35:00      -97.409       78.571       -8.487       63.054       42.010       35.469     3975.784     1764.860     1258.027        1.136        0.350      125.147       33.982        0.074      347.661       26.791      860.287
07/24/2014  20:36:00      -68.089       68.866      -10.932       39.080       40.064       23.635     1527.245     1605.146      558.598        0.659        0.185       96.843       15.830        0.027      347.620       26.722      860.299
07/24/2014  20:37:00      -91.399      121.071      -27.391       55.646       54.948       26.536     3096.433     3019.235      704.167        1.529        0.341      151.697       25.433        0.028      347.688       26.837      860.325
07/24/2014  20:38:00      -70.317       92.752       -5.139       47.107       36.527       36.287     2219.075     1334.196     1316.730        0.922        0.244      116.394       34.419        0.087      347.621       26.724      860.335
07/24/2014  20:39:00     -138.852      153.132      -38.139       61.978       51.341       34.592     3841.313     2635.897     1196.624        2.593        0.384      206.711       29.118        0.020      347.669       26.803      860.351
07/24/2014  20:40:00     -115.122       55.870      -20.691       38.113       49.525       22.057     1452.575     2452.758      486.502        1.060        0.220      127.963       17.281        0.018      347.617       26.715      860.363
07/24/2014  20:41:00      -57.293       24.453       -2.020       28.519       26.541       22.870      813.327      704.440      523.048        0.296        0.102       62.293       13.263        0.045      347.566       26.630      860.366
07/24/2014  20:42:00     -107.671      116.219      -18.617       42.489       70.466       35.064     1805.341     4965.413     1229.519        1.672        0.400      158.430       23.269        0.022      347.535       26.573      860.384
07/24/2014  20:43:00      -46.063       48.920      -14.594       36.992       37.684       22.829     1368.417     1420.058      521.175        0.402        0.165       67.193       17.794        0.070      347.506       26.524      860.382
07/24/2014  20:44:00     -118.516       73.152      -20.407       40.452       54.333       28.259     1636.340     2952.095      798.559        1.260        0.269      139.274       26.991        0.038      347.476       26.473      860.399
07/24/2014  20:45:00     -138.913       94.716      -11.444       71.339      109.144       45.852     5089.321    11912.363     2102.369        2.375        0.955      168.130       45.811        0.074      347.441       26.411      860.401
07/24/2014  20:46:00     -176.006      143.383      -35.778       54.789       50.753       40.109     3001.882     2575.893     1608.769        3.000        0.359      227.017       38.790        0.029      347.510       26.528      860.410
07/24/2014  20:47:00     -134.251      119.351      -26.926       67.142       53.888       40.209     4508.059     2903.921     1616.747        2.101        0.451      179.633       39.933        0.049      347.438       26.405      860.404
07/24/2014  20:48:00     -128.728      115.612      -32.350       49.446       69.155       34.704     2444.900     4782.357     1204.379        1.971        0.422      173.023       26.228        0.023      347.467       26.456      860.410
07/24/2014  20:49:00      -66.531        7.596      -10.256       47.007       30.257       18.883     2209.692      915.508      356.557        0.403        0.174       66.964       21.908        0.107      347.450       26.427      860.405
07/24/2014  20:50:00      -73.290       37.278       -5.787       31.166       54.050       33.200      971.309     2921.437     1102.246        0.589        0.250       82.226       31.246        0.144      347.384       26.315      860.423
07/24/2014  20:51:00     -176.198       26.883      -19.114      106.592       51.590       35.070    11361.926     2661.540     1229.878        2.369        0.763      178.237       29.238        0.027      347.319       26.200      860.430
07/24/2014  20:52:00      -92.523       14.667        9.726       91.679       60.771       37.836     8405.110     3693.099     1431.594        1.120        0.676       93.679       42.368        0.205      347.212       26.018      860.434
07/24/2014  20:53:00     -132.938       60.123      -24.780       47.491       85.859       29.726     2255.415     7371.739      883.638        1.620        0.526      145.902       17.417        0.014      347.259       26.097      860.451
07/24/2014  20:54:00     -109.466       77.144      -15.289       48.712       63.949       39.546     2372.884     4089.430     1563.925        1.310        0.401      133.918       35.495        0.070      347.262       26.104      860.468
07/24/2014  20:55:00     -147.438      110.433      -37.392       94.395       92.663       46.521     8910.501     8586.358     2164.220        2.749        0.983      184.210       58.332        0.100      347.321       26.204      860.488
07/24/2014  20:56:00     -125.913      113.179       -4.681      103.113       69.140       51.682    10632.275     4780.382     2671.043        2.338        0.904      169.303       51.523        0.093      347.249       26.080      860.490
07/24/2014  20:57:00     -134.307      107.765      -12.458       90.737      116.571       52.091     8233.171    13588.852     2713.457        2.717        1.227      172.197       50.506        0.086      347.233       26.051      860.490
07/24/2014  20:58:00     -172.100      105.382      -31.364       44.339       61.609       37.419     1965.975     3795.718     1400.181        2.443        0.358      201.802       30.032        0.022      347.277       26.128      860.507
07/24/2014  20:59:00      -89.060       76.411       -5.028       42.352       77.954       41.479     1793.674     6076.796     1720.495        1.169        0.480      117.347       41.629        0.126      347.194       25.986      860.522
07/24/2014  21:00:00     -161.961      109.095      -29.916       84.050       55.523       40.228     7064.338     3082.793     1618.301        2.539        0.588      195.277       46.556        0.057      347.231       26.050      860.542
07/24/2014  21:01:00     -134.542      104.353      -18.515       69.616       65.659       41.078     4846.390     4311.156     1687.425        2.009        0.542      170.268       44.960        0.070      347.192       25.981      860.550
07/24/2014  21:02:00     -105.350       76.873      -20.573       64.169       39.843       34.886     4117.597     1587.442     1217.020        1.218        0.346      130.415       39.484        0.092      347.182       25.967      860.554
07/24/2014  21:03:00     -105.457       94.330      -11.312       76.151       63.368       53.004     5798.912     4015.499     2809.457        1.638        0.631      141.490       48.043        0.115      347.116       25.851      860.569
07/24/2014  21:04:00     -133.805      122.184      -24.676       54.977       74.371       32.495     3022.500     5531.087     1055.906        2.152        0.480      181.198       27.217        0.023      347.131       25.876      860.579
07/24/2014  21:05:00      -86.581       67.160      -16.419       49.611       55.700       32.834     2461.255     3102.499     1078.061        0.946        0.332      109.576       15.700        0.021      347.164       25.933      860.595
07/24/2014  21:06:00     -112.291       56.364      -22.244       43.744       46.116       31.316     1913.571     2126.640      980.701        1.065        0.251      125.643       18.250        0.021      347.164       25.934      860.604
07/24/2014  21:07:00     -156.062       21.582      -20.066       76.286       67.902       30.969     5819.562     4610.706      959.103        1.830        0.569      157.547       38.481        0.060      347.132       25.878      860.617
07/24/2014  21:08:00     -109.745       27.838      -27.718       56.816       50.239       39.066     3228.103     2523.952     1526.186        1.043        0.364      113.221       35.734        0.100      347.085       25.798      860.637
07/24/2014  21:09:00     -111.136      107.699      -20.524       39.311       59.053       30.992     1545.333     3487.307      960.499        1.518        0.300      154.759       19.547        0.016      347.046       25.732      860.644
07/24/2014  21:10:00      -85.184       48.948      -10.993       45.229       65.269       33.870     2045.659     4260.030     1147.162        0.861        0.373       98.246       32.913        0.112      346.951       25.569      860.664
07/24/2014  21:11:00     -120.300       -5.118      -13.671       53.497       52.443       27.501     2861.978     2750.221      756.293        1.053        0.318      120.409       22.907        0.036      346.992       25.639      860.674
07/24/2014  21:12:00     -132.559       56.927      -16.983       67.756       53.814       38.556     4590.849     2895.984     1486.563        1.504        0.449      144.266       38.216        0.070      346.907       25.490      860.697
07/24/2014  21:13:00     -108.200       14.117      -10.000       65.234       47.609       38.629     4255.479     2266.582     1492.224        1.001        0.401      109.117       36.293        0.111      346.923       25.519      860.707
07/24/2014  21:14:00     -130.437       64.209      -21.762       78.422       67.241       34.671     6150.070     4521.353     1202.090        1.674        0.594      145.384       41.299        0.081      346.938       25.543      860.730
07/24/2014  21:15:00     -177.220       58.355      -35.916       71.482       71.609       36.428     5109.679     5127.919     1326.991        2.383        0.578      186.580       25.820        0.019      346.957       25.576      860.745
07/24/2014  21:16:00      -98.546       16.463      -14.679       69.293       53.039       34.612     4801.470     2813.178     1198.004        0.950        0.441       99.911       39.251        0.154      346.870       25.427      860.769
07/24/2014  21:17:00     -123.520       68.246      -12.898       73.949       73.278       35.977     5468.499     5369.687     1294.321        1.610        0.607      141.119       32.081        0.052      346.862       25.413      860.779
07/24/2014  21:18:00     -162.320       66.705      -23.723       52.986       52.806       35.595     2807.464     2788.440     1266.986        1.911        0.343      175.491       23.272        0.018      346.890       25.461      860.808
07/24/2014  21:19:00     -103.274       85.142       -1.773       54.899       68.135       39.531     3013.898     4642.403     1562.738        1.357        0.461      133.846       28.489        0.045      346.839       25.373      860.808
07/24/2014  21:20:00     -111.115       59.667      -19.966       35.256       42.031       31.166     1242.965     1766.629      971.336        1.014        0.199      126.122       18.270        0.021      346.911       25.499      860.810
07/24/2014  21:21:00     -155.513       99.073      -33.555       52.470       70.403       38.719     2753.108     4956.543     1499.180        2.217        0.460      184.391       42.989        0.054      346.949       25.561      860.807
07/24/2014  21:22:00     -117.182      111.754      -25.183       55.545       60.765       30.219     3085.192     3692.356      913.187        1.727        0.385      161.928       30.606        0.036      346.870       25.426      860.808
07/24/2014  21:23:00     -100.586      148.903      -26.800       60.492       50.518       36.356     3659.263     2552.092     1321.728        2.027        0.377      179.693       29.011        0.026      346.896       25.471      860.805
07/24/2014  21:24:00     -154.224      120.154      -37.401       41.700       63.834       34.414     1738.879     4074.827     1184.334        2.331        0.350      195.504       34.100        0.030      346.952       25.568      860.798
07/24/2014  21:25:00     -105.279       44.022       -3.954       52.753       35.165       27.205     2782.923     1236.549      740.134        0.890        0.238      114.112       24.783        0.047      346.903       25.486      860.798
07/24/2014  21:26:00     -125.935       87.232      -11.144       58.953       85.978       40.632     3475.474     7392.183     1650.986        1.805        0.626      153.196       35.559        0.054      346.884       25.453      860.787
07/24/2014  21:27:00     -114.856       67.615      -16.785       57.719       59.589       35.190     3331.515     3550.807     1238.316        1.308        0.406      133.281       36.728        0.076      346.921       25.516      860.791
07/24/2014  21:28:00     -116.897       62.962       -8.563       37.812       54.649       35.534     1429.763     2986.520     1262.652        1.169        0.284      132.775       18.370        0.019      346.926       25.525      860.777
07/24/2014  21:29:00      -62.982       59.516       -4.237       29.454       35.219       21.672      867.519     1240.403      469.685        0.505        0.129       86.654       21.648        0.062      346.819       25.341      860.772
07/24/2014  21:30:00      -74.159      -10.668       -8.855       43.673       52.855       25.829     1907.356     2793.687      667.119        0.553        0.268       74.922       28.137        0.141      346.857       25.406      860.769
07/24/2014  21:31:00     -126.743      138.023      -21.682       65.399       73.650       33.887     4277.015     5424.340     1148.339        2.321        0.542      187.388       27.541        0.022      346.877       25.437      860.768
07/24/2014  21:32:00     -159.198      121.695      -27.028       68.322       58.150       49.420     4667.940     3381.389     2442.292        2.569        0.525      200.384       40.990        0.042      346.872       25.431      860.756
07/24/2014  21:33:00     -100.635      105.051      -21.603       38.745       43.356       29.813     1501.202     1879.743      888.844        1.295        0.213      145.475       20.010        0.019      346.795       25.299      860.767
07/24/2014  21:34:00     -149.167       49.633      -20.376      103.006       56.925       46.028    10610.338     3240.502     2118.547        2.055        0.798      157.207       40.830        0.067      346.913       25.501      860.786
07/24/2014  21:35:00     -166.664      111.548      -27.920       63.329       70.066       38.056     4010.516     4909.314     1448.228        2.568        0.518      200.549       26.152        0.017      346.899       25.476      860.786
07/24/2014  21:36:00     -171.382       98.397      -17.366       87.558       57.618       40.486     7666.362     3319.825     1639.153        2.599        0.631      197.620       32.163        0.026      346.899       25.475      860.804
07/24/2014  21:37:00     -174.011      125.933      -28.265      105.120       77.100       46.173    11050.179     5944.479     2131.985        3.303        0.956      214.800       37.562        0.031      346.941       25.548      860.797
07/24/2014  21:38:00     -116.356      121.007      -13.064       67.486       86.029       52.124     4554.424     7401.036     2716.869        2.151        0.734      167.873       50.021        0.089      346.871       25.429      860.807
07/24/2014  21:39:00      -93.575       57.913       -9.721       63.493       69.866       34.886     4031.312     4881.206     1217.001        1.117        0.506      110.046       36.109        0.108      346.871       25.429      860.809
07/24/2014  21:40:00     -122.357      136.259      -29.453       66.730       75.871       45.325     4452.886     5756.347     2054.359        2.333        0.613      183.133       40.853        0.050      346.890       25.460      860.815
07/24/2014  21:41:00     -105.608       71.865       -2.625       64.577       97.809       44.320     4170.153     9566.592     1964.293        1.601        0.785      127.741       47.276        0.137      346.827       25.352      860.819
07/24/2014  21:42:00     -137.925      101.734      -22.079       59.339       58.784       32.935     3521.154     3455.574     1084.735        1.896        0.403      171.386       28.525        0.028      346.907       25.492      860.818
07/24/2014  21:43:00     -119.860       85.817      -10.052       80.329       50.795       38.529     6452.705     2580.154     1484.498        1.617        0.526      147.414       39.967        0.074      346.850       25.392      860.825
07/24/2014  21:44:00     -166.458      147.768      -40.501       59.443       52.349       38.288     3533.521     2740.379     1465.950        2.946        0.387      222.584       34.484        0.024      346.909       25.492      860.821
07/24/2014  21:45:00     -164.812      153.763      -35.853       52.348       75.136       35.180     2740.323     5645.344     1237.661        3.086        0.481      225.402       30.263        0.018      346.942       25.550      860.824
07/24/2014  21:46:00     -119.852      134.088      -22.240       44.516       80.317       39.307     1981.640     6450.766     1545.010        2.141        0.499      179.844       36.969        0.042      346.888       25.458      860.830
07/24/2014  21:47:00     -196.221      152.026      -48.747       72.454       71.396       40.238     5249.593     5097.330     1619.083        3.798        0.598      248.223       47.144        0.036      346.969       25.597      860.829
07/24/2014  21:48:00     -135.112      178.647      -29.219       56.121       78.419       33.320     3149.594     6149.605     1110.219        3.071        0.520      223.987       25.916        0.013      346.958       25.576      860.833
07/24/2014  21:49:00     -157.680      119.775      -31.223       66.399       78.658       40.031     4408.785     6187.050     1602.467        2.619        0.610      198.013       39.114        0.039      347.004       25.656      860.840
07/24/2014  21:50:00     -168.901      136.106      -29.029       69.296       57.017       44.264     4801.878     3250.927     1959.288        2.895        0.501      216.916       44.181        0.041      346.957       25.576      860.835
07/24/2014  21:51:00     -150.694      142.334      -19.389       66.155       76.479       45.576     4376.472     5849.020     2077.198        2.782        0.615      207.287       37.678        0.033      346.954       25.570      860.841
07/24/2014  21:52:00     -163.563      180.154      -42.935       55.045       84.948       39.754     3029.922     7216.126     1580.415        3.644        0.591      243.327       33.512        0.019      346.961       25.581      860.833
07/24/2014  21:53:00     -119.403       97.367      -19.724       57.985       48.398       29.604     3362.220     2342.327      876.394        1.535        0.329      154.070       25.225        0.027      346.882       25.448      860.834
07/24/2014  21:54:00     -124.284      115.004      -25.686       54.647       36.791       31.566     2986.240     1353.542      996.396        1.733        0.267      169.329       28.234        0.028      346.834       25.365      860.843
07/24/2014  21:55:00     -150.053      121.759      -25.201       50.937       58.595       28.062     2594.564     3433.327      787.483        2.239        0.341      193.238       20.322        0.011      346.942       25.550      860.840
07/24/2014  21:56:00     -144.392      160.038      -29.061       52.122       57.922       36.506     2716.661     3355.006     1332.672        2.735        0.370      215.548       34.008        0.025      346.895       25.470      860.834
07/24/2014  21:57:00     -133.819      151.708      -34.398       45.183       43.031       26.779     2041.508     1851.665      717.102        2.336        0.231      202.294       22.273        0.012      346.902       25.482      860.836
07/24/2014  21:58:00     -103.859      134.144      -18.197       44.354       52.877       33.830     1967.239     2795.959     1144.472        1.751        0.295      169.651       31.492        0.034      346.801       25.309      860.825
07/24/2014  21:59:00     -122.448      122.195      -31.010       62.013       52.308       32.951     3845.662     2736.137     1085.748        1.928        0.383      172.989       22.459        0.017      346.816       25.334      860.822
07/24/2014  22:00:00     -117.687      184.702      -29.282       51.283       60.996       37.446     2629.984     3720.536     1402.198        2.829        0.388      219.009       31.095        0.020      346.805       25.312      860.843
07/24/2014  22:01:00     -148.844      114.952      -27.539       76.541       57.128       39.508     5858.565     3263.580     1560.850        2.340        0.534      188.065       31.657        0.028      346.812       25.327      860.844
07/24/2014  22:02:00     -150.981      119.402      -36.188       59.928       50.395       32.322     3591.348     2539.695     1044.729        2.277        0.359      192.490       28.654        0.022      346.795       25.297      860.852
07/24/2014  22:03:00     -169.921      105.073      -34.613       59.529       50.861       40.258     3543.739     2586.872     1620.676        2.443        0.388      199.783       41.105        0.042      346.794       25.296      860.858
07/24/2014  22:04:00     -121.584       83.345      -21.264       53.558       49.735       33.275     2868.450     2473.524     1107.230        1.431        0.322      147.408       28.481        0.037      346.741       25.205      860.858
07/24/2014  22:05:00     -148.304       82.298      -23.837       36.280       63.187       32.614     1316.251     3992.596     1063.679        1.785        0.319      169.608       29.076        0.029      346.765       25.247      860.874
07/24/2014  22:06:00     -154.234       62.374      -21.024       61.529       49.902       38.085     3785.794     2490.204     1450.477        1.792        0.386      166.369       31.368        0.036      346.816       25.334      860.885
07/24/2014  22:07:00     -100.925      -14.721      -12.319       39.062       53.811       24.771     1525.841     2895.573      613.587        0.779        0.252      101.993       15.697        0.024      346.732       25.191      860.893
07/24/2014  22:08:00      -96.666      -11.511      -11.931       39.355       40.660       28.586     1548.843     1653.218      817.168        0.682        0.201       97.349       19.526        0.040      346.701       25.138      860.909
07/24/2014  22:09:00      -82.747      -24.663       -2.959       42.458       34.475       27.266     1802.663     1188.546      743.447        0.560        0.187       86.345       24.931        0.083      346.669       25.084      860.932
07/24/2014  22:10:00     -102.970       15.043      -16.065       28.953       63.235       20.703      838.304     3998.710      428.605        0.818        0.263      104.063       12.608        0.015      346.712       25.157      860.944
07/24/2014  22:11:00      -75.924      -58.348        1.175       38.114       29.094       24.041     1452.641      846.440      577.952        0.602        0.144       95.755       21.241        0.049      346.648       25.047      860.947
07/24/2014  22:12:00      -12.555      -33.682        9.891       45.313       26.173       22.172     2053.294      685.047      491.593        0.231        0.161       35.945       20.885        0.338      346.595       24.955      860.963
07/24/2014  22:13:00      -22.893      -53.798        7.312       42.995       37.065       21.704     1848.581     1373.843      471.066        0.358        0.185       58.466       23.564        0.162      346.544       24.869      860.966
07/24/2014  22:14:00      -18.643      -33.895       12.564       32.818       24.503       18.927     1077.048      600.391      358.244        0.184        0.102       38.684       14.584        0.142      346.483       24.765      860.965
07/24/2014  22:15:00      -15.344      -35.147       16.389       43.531       41.031       20.438     1894.926     1683.553      417.723        0.287        0.200       38.351       26.780        0.488      346.382       24.591      860.985
07/24/2014  22:16:00      -35.288      -45.992       11.519       39.298       22.764       19.086     1544.362      518.220      364.290        0.296        0.121       57.970       17.306        0.089      346.454       24.712      860.984
07/24/2014  22:17:00      -16.654      -45.572        1.742       32.344       25.184       16.565     1046.113      634.246      274.403        0.216        0.098       48.520       17.549        0.131      346.463       24.730      860.991
07/24/2014  22:18:00        9.581      -51.652       13.381       24.240       24.636       18.073      587.599      606.938      326.650        0.223        0.076       52.533       14.381        0.075      346.431       24.674      861.008
07/24/2014  22:19:00       19.796      -58.174      -16.418       19.998       21.005       18.074      399.937      441.203      326.686        0.261        0.058       61.450        8.029        0.017      346.471       24.740      861.006
07/24/2014  22:20:00       -3.957      -51.923       -9.177       22.573       15.613       20.639      509.532      243.759      425.964        0.199        0.059       52.073       11.014        0.045      346.438       24.685      861.014
07/24/2014  22:21:00        2.398      -69.050       -1.488       38.805       23.397       14.826     1505.790      547.401      219.809        0.352        0.114       69.092       14.381        0.043      346.303       24.454      861.017
07/24/2014  22:22:00      -24.315      -98.650       -1.951       37.087       27.509       20.992     1375.411      756.764      440.665        0.645        0.129      101.602       14.628        0.021      346.358       24.549      861.008
07/24/2014  22:23:00      -56.382     -121.967       -2.665       22.734       25.606       18.300      516.840      655.665      334.892        0.978        0.075      134.368       13.695        0.010      346.459       24.722      861.012
07/24/2014  22:24:00      -31.290      -50.244        7.555       35.548       31.452       20.466     1263.658      989.244      418.857        0.312        0.134       59.191       19.773        0.112      346.265       24.388      861.005
07/24/2014  22:25:00      -52.038      -43.350       -1.775       34.483       20.180       17.101     1189.091      407.240      292.449        0.324        0.094       67.729       12.445        0.034      346.313       24.471      861.001
07/24/2014  22:26:00      -37.322      -36.695       11.617       40.846       25.640       19.887     1668.390      657.394      395.492        0.280        0.136       52.340       20.976        0.161      346.220       24.310      861.002
07/24/2014  22:27:00      -34.695      -54.325        4.017       24.016       26.571       15.626      576.745      706.040      244.160        0.285        0.076       64.459       18.877        0.086      346.406       24.632      860.996
07/24/2014  22:28:00      -67.991      -63.806       -6.593       26.643       25.297       15.465      709.834      639.939      239.177        0.516        0.079       93.241       13.286        0.020      346.716       25.164      860.984
07/24/2014  22:29:00      -39.818       -1.111        3.835       41.495       13.918       11.076     1721.806      193.711      122.679        0.182        0.102       39.834       13.619        0.117      346.462       24.727      860.992
07/24/2014  22:30:00      -28.107      -12.116       -1.652       25.534       13.727        7.332      652.003      188.435       53.758        0.092        0.045       30.607        4.885        0.025      346.249       24.360      860.980
07/24/2014  22:31:00      -61.337       -8.099       -8.367       11.519       10.337        6.582      132.681      106.863       43.327        0.209        0.014       61.870        5.714        0.009      346.202       24.279      860.973
07/24/2014  22:32:00      -65.992       -3.440       -6.595        7.985       11.345        5.131       63.757      128.700       26.329        0.231        0.011       66.082        3.278        0.002      346.296       24.442      860.973
07/24/2014  22:33:00      -69.955      -47.971       -1.236       13.025       22.679        8.254      169.648      514.330       68.125        0.397        0.038       84.823        7.642        0.008      346.226       24.321      860.974
07/24/2014  22:34:00      -53.659      -48.618        1.408       39.051       25.903       17.581     1524.943      670.968      309.095        0.387        0.125       72.408       18.618        0.066      346.276       24.407      860.970
07/24/2014  22:35:00      -22.763      -64.586       -4.822       23.537       23.270       12.127      554.002      541.486      147.074        0.298        0.062       68.480       11.602        0.029      346.297       24.443      860.974
07/24/2014  22:36:00      -83.481      -52.892       -7.425       38.646       27.057       18.323     1493.486      732.086      335.734        0.619        0.128       98.826       13.812        0.020      346.211       24.294      860.989
07/24/2014  22:37:00      -51.453      -45.815        5.276       33.743       31.137       20.388     1138.601      969.503      415.653        0.365        0.126       68.894       17.610        0.065      346.122       24.143      861.000
07/24/2014  22:38:00      -48.258      -50.149       -2.648       17.206       20.127       13.570      296.033      405.099      184.144        0.287        0.044       69.597        8.609        0.015      346.099       24.101      861.008
07/24/2014  22:39:00      -72.966      -39.540        2.583       21.160       20.847       17.043      447.756      434.606      290.448        0.403        0.059       82.990       12.549        0.023      346.068       24.050      861.021
07/24/2014  22:40:00      -79.061      -44.277        0.562       37.042       28.864       16.160     1372.130      833.133      261.154        0.534        0.123       90.615       18.243        0.041      346.068       24.050      861.035
07/24/2014  22:41:00      -66.304       -2.128        0.350       33.972       21.747       14.887     1154.083      472.942      221.620        0.312        0.092       66.338       15.910        0.058      345.831       23.644      861.037
07/24/2014  22:42:00      -55.125      -15.814        2.860       27.064       16.557       11.314      732.465      274.142      128.010        0.222        0.057       57.349       12.552        0.048      345.794       23.580      861.041
07/24/2014  22:43:00      -53.542        3.059        3.971       29.007       18.535       12.433      841.423      343.548      154.580        0.212        0.067       53.630       13.222        0.061      345.828       23.638      861.033
07/24/2014  22:44:00      -78.817        1.913       -2.165       26.444       17.319       11.604      699.266      299.960      134.657        0.368        0.057       78.841       14.207        0.032      345.844       23.666      861.018
07/24/2014  22:45:00      -68.444        8.530        4.055       35.131       21.018       19.252     1234.164      441.741      370.653        0.341        0.102       68.974       20.767        0.091      345.771       23.539      861.005
07/24/2014  22:46:00      -27.223      -28.295        7.812       22.872       19.884       12.678      523.150      395.390      160.738        0.134        0.054       39.264        6.039        0.024      345.707       23.430      861.008
07/24/2014  22:47:00       -8.978      -38.806       -1.795       12.470       17.459       10.130      155.511      304.829      102.621        0.108        0.028       39.831        9.167        0.053      345.951       23.848      860.996
07/24/2014  22:48:00      -38.208       16.042       -2.443       27.961       23.245       11.512      781.811      540.353      132.521        0.159        0.073       41.439       14.240        0.118      345.842       23.662      860.997
07/24/2014  22:49:00      -65.301       39.997       -9.853       10.952       19.335       10.622      119.947      373.855      112.832        0.328        0.030       76.577        3.909        0.003      345.823       23.628      861.007
07/24/2014  22:50:00      -57.856       27.400       -8.394       18.114       19.328       12.449      328.103      373.575      154.966        0.251        0.043       64.016       11.664        0.033      345.809       23.605      861.014
07/24/2014  22:51:00     -109.269       -4.509       -8.605       22.555       23.280       13.182      508.743      541.958      173.767        0.663        0.061      109.362       12.278        0.013      345.863       23.699      861.010
07/24/2014  22:52:00      -85.490      -12.628       -1.908       41.750       25.451       19.242     1743.038      647.736      370.236        0.512        0.138       86.417       22.324        0.067      345.805       23.599      861.013
07/24/2014  22:53:00      -24.961      -28.786        4.805       35.791       20.315       13.687     1280.995      412.708      187.332        0.168        0.094       38.101       14.468        0.144      345.782       23.558      861.018
07/24/2014  22:54:00      -49.626      -22.688       -3.562       29.640       21.560       12.743      878.542      464.820      162.395        0.225        0.075       54.566       13.091        0.058      345.912       23.783      861.006
07/24/2014  22:55:00      -71.502       19.855       -7.016       15.379       12.008       10.098      236.498      144.190      101.964        0.302        0.024       74.208        5.264        0.005      345.780       23.555      861.000
07/24/2014  22:56:00      -89.965      -23.378       -2.706       22.449       18.813       13.912      503.974      353.915      193.534        0.485        0.053       92.953       13.744        0.022      345.865       23.702      861.008
07/24/2014  22:57:00      -64.770      -48.828       -1.425       25.752       19.509        9.281      663.179      380.589       86.129        0.386        0.056       81.113        8.731        0.012      345.931       23.813      861.004
07/24/2014  22:58:00      -30.272      -43.954       -3.827       20.321       16.292       13.040      412.938      265.435      170.030        0.186        0.042       53.370       12.235        0.053      345.922       23.800      861.010
07/24/2014  22:59:00      -49.770      -18.381        3.279       30.084       11.075        9.607      905.019      122.653       92.301        0.197        0.056       53.056       12.814        0.058      345.836       23.652      861.026
07/24/2014  23:00:00      -14.637      -35.112        4.385       14.484       12.826        9.601      209.787      164.500       92.185        0.097        0.023       38.041        3.936        0.011      345.771       23.538      861.043
07/24/2014  23:01:00        4.480      -36.261       13.091       23.869       16.393       15.060      569.707      268.725      226.790        0.129        0.053       36.536       11.638        0.101      345.792       23.576      861.051
07/24/2014  23:02:00      -21.480      -29.137       12.983       46.500       19.338       19.089     2162.296      373.955      364.396        0.219        0.145       36.199       23.991        0.439      345.692       23.404      861.060
07/24/2014  23:03:00      -47.644      -38.422        3.165       28.627       24.338       13.626      819.491      592.351      185.674        0.268        0.080       61.206       13.459        0.048      345.750       23.504      861.072
07/24/2014  23:04:00      -71.574        4.064      -11.832       29.365       20.870       12.924      862.277      435.574      167.041        0.337        0.073       71.689       13.731        0.037      345.761       23.522      861.091
07/24/2014  23:05:00      -73.734        1.498       -9.256       15.847       24.063        8.051      251.114      579.050       64.818        0.321        0.045       73.749        7.166        0.009      345.531       23.128      861.090
07/24/2014  23:06:00      -28.556      -28.735        0.120       28.621       16.863       10.394      819.148      284.371      108.043        0.143        0.061       40.511       12.671        0.098      345.512       23.095      861.098
07/24/2014  23:07:00      -33.725      -32.698        2.827       29.156       17.355       11.264      850.082      301.185      126.879        0.175        0.064       46.974        4.007        0.007      345.470       23.022      861.103
07/24/2014  23:08:00      -73.170      -20.186       -2.294       24.231       20.272       17.265      587.151      410.935      298.078        0.353        0.065       75.904       17.505        0.053      345.422       22.941      861.095
07/24/2014  23:09:00      -78.498       -4.749       -1.748       31.741       20.459       14.584     1007.478      418.573      212.690        0.391        0.082       78.642       14.663        0.035      345.224       22.602      861.091
07/24/2014  23:10:00      -82.781      -12.862       -7.742       21.391       16.654       10.461      457.592      277.367      109.424        0.396        0.042       83.775        5.993        0.005      345.116       22.418      861.093
07/24/2014  23:11:00      -22.225       -9.533        1.820       21.923       12.584       11.213      480.605      158.364      125.723        0.068        0.038       24.184        9.762        0.163      345.115       22.416      861.097
07/24/2014  23:12:00      -49.738      -20.355       -5.320       20.731       16.742        6.773      429.761      280.282       45.876        0.184        0.038       53.742        6.131        0.013      345.285       22.706      861.095
07/24/2014  23:13:00      -29.474      -31.092        2.118       15.970       23.817       10.010      255.042      567.257      100.206        0.138        0.046       42.842       12.353        0.083      345.352       22.821      861.105
07/24/2014  23:14:00      -24.757       -4.931       -0.431       13.256        8.939       10.532      175.730       79.906      110.930        0.050        0.018       25.244        9.774        0.150      345.320       22.767      861.121
07/24/2014  23:15:00       -0.716      -11.871       -1.060        4.738        5.845        3.523       22.453       34.164       12.411        0.011        0.003       11.892        2.533        0.045      345.282       22.701      861.126
07/24/2014  23:16:00       13.383       -8.649        0.149       10.876        5.952        3.361      118.288       35.424       11.295        0.021        0.008       15.935        2.197        0.019      345.289       22.714      861.123
07/24/2014  23:17:00       21.750       -7.978       -4.462        8.563        6.416        4.799       73.324       41.171       23.035        0.035        0.007       23.167        3.039        0.017      345.411       22.922      861.129
07/24/2014  23:18:00        9.281        1.445       -2.330        4.714        6.227        6.059       22.221       38.775       36.707        0.010        0.005        9.393        4.423        0.222      345.394       22.892      861.131
07/24/2014  23:19:00      -12.716      -22.315       -3.148       14.684       18.200        6.959      215.620      331.223       48.425        0.063        0.030       25.684        8.414        0.107      345.413       22.926      861.138
07/24/2014  23:20:00      -55.103      -24.685       -7.983       14.111       11.200       10.566      199.114      125.450      111.643        0.207        0.022       60.380        5.237        0.008      345.273       22.685      861.147
07/24/2014  23:21:00      -44.597      -11.345       -2.664       18.668       18.141       11.218      348.489      329.089      125.839        0.146        0.040       46.017       10.805        0.055      345.074       22.346      861.162
07/24/2014  23:22:00      -76.915      -28.113       -3.992       27.641       28.075       16.978      764.045      788.201      288.258        0.428        0.092       81.892       12.229        0.022      344.923       22.087      861.175
07/24/2014  23:23:00     -106.113       -0.418       -5.984       33.348       23.028       21.419     1112.078      530.295      458.777        0.670        0.105      106.114       22.772        0.046      344.821       21.912      861.177
07/24/2014  23:24:00      -97.208       11.571       -7.095       27.852       13.966       13.208      775.711      195.047      174.459        0.539        0.057       97.895       12.048        0.015      344.782       21.845      861.170
07/24/2014  23:25:00      -76.666       10.153       -3.546       14.484       15.657        8.433      209.781      245.129       71.114        0.326        0.026       77.336        5.263        0.005      344.927       22.093      861.184
07/24/2014  23:26:00      -44.306      -27.307        0.920       17.229       12.889        8.883      296.848      166.138       78.913        0.163        0.027       52.045        5.567        0.011      344.858       21.974      861.183
07/24/2014  23:27:00      -55.935       -9.955       -6.622       10.286       12.147        8.829      105.796      147.556       77.943        0.180        0.017       56.814        6.571        0.013      344.824       21.917      861.181
07/24/2014  23:28:00      -38.373        7.977        1.132       14.596       11.085        9.966      213.037      122.874       99.315        0.099        0.022       39.193        8.203        0.044      344.850       21.962      861.194
07/24/2014  23:29:00      -37.567        0.811       -6.343       16.215       11.260        8.873      262.925      126.799       78.738        0.096        0.023       37.575        9.655        0.066      344.927       22.093      861.206
07/24/2014  23:30:00      -49.260      -20.951       -9.871       13.682       17.404        5.593      187.211      302.914       31.279        0.174        0.026       53.530        4.978        0.009      344.910       22.065      861.206
07/24/2014  23:31:00      -53.613      -51.647       -1.321       32.877       22.677       21.298     1080.918      514.225      453.584        0.380        0.102       74.443       21.112        0.080      344.747       21.785      861.201
07/24/2014  23:32:00     -106.535      -64.744       -7.557       17.863       15.818       15.325      319.102      250.220      234.852        0.820        0.040      124.666       10.741        0.007      344.812       21.898      861.199
07/24/2014  23:33:00     -111.497      -54.735      -10.024       13.092       14.105       12.097      171.413      198.942      146.334        0.802        0.026      124.207        6.371        0.003      344.791       21.860      861.179
07/24/2014  23:34:00     -106.750      -53.218       -4.294       21.223       11.703        6.073      450.401      136.966       36.882        0.744        0.031      119.280        6.602        0.003      344.893       22.036      861.182
07/24/2014  23:35:00      -77.531      -48.142       -7.116       18.205       12.433       11.192      331.417      154.573      125.264        0.450        0.031       91.262        7.603        0.007      344.810       21.892      861.189
07/24/2014  23:36:00      -53.460      -44.866        4.687       31.335       23.543       18.032      981.855      554.290      325.145        0.338        0.093       69.792       19.072        0.075      344.758       21.804      861.193
07/24/2014  23:37:00      -52.598      -40.613        0.844       24.342       24.280       14.436      592.533      589.521      208.398        0.290        0.070       66.453       11.409        0.029      344.833       21.932      861.193
07/24/2014  23:38:00      -67.882      -45.638       -2.595       22.298       15.235       12.466      497.199      232.091      155.399        0.379        0.044       81.798        7.788        0.009      344.827       21.922      861.212
07/24/2014  23:39:00      -68.076      -43.577        3.165       31.951       24.985       17.184     1020.868      624.248      295.294        0.424        0.097       80.829       15.992        0.039      344.736       21.767      861.216
07/24/2014  23:40:00      -44.696      -19.109        2.486       31.182       24.878       19.198      972.327      618.911      368.557        0.216        0.098       48.610       15.261        0.099      344.590       21.516      861.215
07/24/2014  23:41:00      -67.069      -12.938       -2.689       26.427       18.624       14.709      698.395      346.859      216.351        0.297        0.063       68.305       13.179        0.037      344.481       21.330      861.220
07/24/2014  23:42:00      -75.691      -13.007       -1.300       33.583       19.869       14.789     1127.823      394.762      218.711        0.382        0.087       76.801       13.476        0.031      344.435       21.252      861.208
07/24/2014  23:43:00      -85.316      -10.053       -5.770       30.574       22.136       19.066      934.777      490.006      363.522        0.460        0.089       85.907       19.432        0.051      344.407       21.204      861.201
07/24/2014  23:44:00      -90.258       -8.516       -3.197       30.175       20.105       18.756      910.517      404.206      351.803        0.495        0.083       90.659       19.907        0.048      344.423       21.231      861.202
07/24/2014  23:45:00      -83.551      -44.543       -6.454       25.457       22.079       12.666      648.083      487.480      160.432        0.515        0.065       94.683        9.839        0.011      344.494       21.351      861.197
07/24/2014  23:46:00      -64.841      -41.508       -4.110       24.842       23.225       13.628      617.102      539.394      185.733        0.364        0.067       76.988       12.003        0.024      344.403       21.197      861.197
07/24/2014  23:47:00      -42.188      -41.194        2.553       25.218       20.100       15.913      635.946      403.992      253.214        0.239        0.065       58.964        9.588        0.026      344.284       20.994      861.203
07/24/2014  23:48:00      -49.775      -26.693        0.140       29.655       26.180       16.829      879.444      685.392      283.213        0.252        0.092       56.480       12.473        0.049      344.254       20.942      861.192
07/24/2014  23:49:00       -7.454      -29.938       -0.191       39.252       30.441       24.834     1540.740      926.671      616.720        0.202        0.154       30.852       23.854        0.598      344.336       21.081      861.192
07/24/2014  23:50:00        5.423      -27.942      -16.361       21.459       20.610       14.586      460.484      424.783      212.753        0.109        0.055       28.463       11.116        0.153      344.398       21.187      861.204
07/24/2014  23:51:00      -18.795      -24.928      -11.536       11.366       13.570       10.859      129.183      184.139      117.911        0.077        0.022       31.219        7.102        0.052      344.453       21.284      861.220
07/24/2014  23:52:00        5.676      -40.780      -15.538       14.534       24.559       11.909      211.225      603.163      141.834        0.145        0.048       41.173       13.028        0.100      344.432       21.247      861.243
07/24/2014  23:53:00      -37.082      -16.674       -3.623       33.170       19.660       15.015     1100.233      386.509      225.450        0.169        0.086       40.658       14.638        0.130      344.284       20.993      861.253
07/24/2014  23:54:00      -80.142      -31.451      -12.247       11.769       12.999        8.896      138.507      168.962       79.146        0.397        0.019       86.092        4.615        0.003      344.258       20.948      861.247
07/24/2014  23:55:00      -80.493      -49.855      -10.396       20.421       17.517       11.984      417.034      306.847      143.604        0.497        0.043       94.682        7.224        0.006      344.325       21.064      861.247
07/24/2014  23:56:00      -93.827      -32.921      -12.127       19.045       19.109       13.202      362.716      365.137      174.295        0.547        0.045       99.435        5.238        0.003      344.300       21.021      861.244
07/24/2014  23:57:00     -101.496      -13.103      -14.668       16.210       11.926        9.637      262.779      142.220       92.871        0.559        0.025      102.338        4.644        0.002      344.308       21.037      861.230
07/24/2014  23:58:00      -89.148      -24.901      -10.725       12.269       13.433       10.536      150.535      180.456      111.014        0.456        0.022       92.560        7.683        0.007      344.325       21.064      861.231
07/24/2014  23:59:00      -96.077      -18.289       -9.138       15.511       11.610       14.429      240.596      134.799      208.199        0.512        0.029       97.802       10.454        0.011      344.361       21.125      861.223
